[[[{"header":{"parameterUnit":"kt","parameterCategory":2,"dx":1,"dy":1,"la1":29.587661999999998,"la2":31.0,"lo1":-88.76705300000003,"lo2":-86.6583820000003,"nx":115,"ny":88,"refTime":"2022-09-19T12:00:00:Z","depth":0,"parameterNumber":1,"parameterNumberName":"U-component_of_WINDS"},"data":[8.1538,8.3605,8.4361,8.4807,8.5156,8.6087,8.6494,8.6668,8.7541,8.8866,8.9751,9.0265,9.0906,9.1962,9.1962,9.1962,9.1962,9.1962,9.1962,9.1962,9.1962,9.1962,9.1962,9.1962,9.1962,9.1962,9.1962,9.1962,9.1962,9.1962,9.1962,9.1962,9.1962,9.1793,9.1566,9.0486,8.8052,8.5664,8.3263,8.0846,7.8806,7.7867,7.7519,7.717,7.697,7.697,7.7116,7.7165,7.7165,7.7165,7.7165,7.7165,7.7365,7.7565,7.7716,7.7814,7.7814,7.7615,7.8014,7.8952,8.041,8.1039,8.3823,8.7162,8.8987,9.0257,9.0829,9.1227,9.1793,9.1793,9.1962,9.1962,9.1962,9.1962,9.1962,9.1962,9.1962,9.1962,9.1962,9.1962,9.1962,9.1962,9.1962,9.1962,9.1962,9.1962,9.1962,9.1962,9.1962,9.1962,9.1962,9.1962,9.1962,9.1962,9.1903,9.1845,9.1264,9.1322,9.1264,9.0566,9.0449,9.1147,9.294,9.5305,9.6494,9.7179,9.8715,10.0873,9.9953,9.9295,9.9229,9.9032,9.8638,9.8243,9.7783,7.9424,8.1708,8.4602,8.6494,8.7541,8.7774,8.7832,8.7845,8.8175,8.8867,9.0051,9.1205,9.1671,9.1903,9.1962,9.1962,9.1962,9.1962,9.1962,9.1962,9.1962,9.1962,9.1962,9.1962,9.1962,9.1962,9.1962,9.1962,9.1962,9.1962,9.1962,9.1962,9.1962,9.1903,9.1962,9.1169,8.9742,8.7064,8.5008,8.2647,8.1095,7.9593,7.8252,7.7175,7.6433,7.6335,7.6872,7.7116,7.7116,7.7019,7.6823,7.6823,7.6872,7.7067,7.7116,7.7165,7.7165,7.7165,7.7365,7.7915,7.9002,8.0654,8.345,8.5846,8.8052,8.9336,8.974,9.0486,9.1397,9.1735,9.1962,9.1962,9.1962,9.1962,9.1962,9.1962,9.1962,9.1962,9.1962,9.1962,9.1962,9.1962,9.1962,9.1962,9.1962,9.1962,9.1962,9.1962,9.1962,9.1962,9.1496,9.1264,9.0973,9.1264,9.1613,9.1089,9.0158,9.0158,8.9926,8.9111,8.8704,8.9286,9.074,9.3532,9.5464,9.6203,9.7627,9.8782,9.8506,9.7848,9.7717,9.7454,9.7191,9.6928,9.6468,7.98,8.2398,8.5812,8.7541,8.8123,8.8879,8.917,8.9238,8.9951,9.0529,9.1205,9.1671,9.1962,9.1962,9.1962,9.1962,9.1962,9.1962,9.1962,9.1962,9.1962,9.1962,9.1962,9.1962,9.1845,9.1962,9.1962,9.1845,9.1962,9.1903,9.1787,9.1903,9.1947,9.1597,9.0798,9.0001,8.8656,8.7221,8.6129,8.445,8.3024,7.9969,7.775,7.7091,7.5889,7.492,7.5261,7.531,7.5359,7.5359,7.5457,7.5652,7.6238,7.6677,7.7019,7.7067,7.7019,7.7165,7.7165,7.7365,7.7716,7.9002,8.1039,8.2888,8.5299,8.6239,8.6775,8.8535,8.9457,9.0876,9.1102,9.1496,9.1496,9.1496,9.1496,9.1496,9.1496,9.1496,9.1496,9.1496,9.1496,9.1496,9.1438,9.1438,9.1554,9.1554,9.1845,9.1903,9.1962,9.1962,9.0915,9.0217,8.9519,8.9577,9.01,8.9693,8.8995,8.8762,8.8588,8.8064,8.7774,8.7992,8.8888,9.1835,9.4116,9.5132,9.5754,9.6632,9.6665,9.6599,9.6336,9.6007,9.581,9.5613,9.4967,8.0144,8.2745,8.6203,8.8157,8.9111,9.01,9.0507,9.0624,9.1554,9.1903,9.1962,9.1962,9.1962,9.1962,9.1962,9.1962,9.1962,9.1962,9.1962,9.1962,9.1962,9.1962,9.1962,9.1438,9.1322,9.138,9.1147,9.0682,9.0566,9.0789,9.0964,9.0856,9.0682,9.0265,8.9519,8.8948,8.8118,8.7294,8.6329,8.5314,8.3733,8.0488,7.7491,7.6585,7.4883,7.3842,7.409,7.4041,7.3944,7.3846,7.3846,7.4285,7.5066,7.5847,7.6286,7.6384,7.614,7.6286,7.6433,7.6579,7.757,7.8606,7.9735,8.0846,8.1544,8.2442,8.3651,8.5635,8.7395,8.883,9.0072,9.0407,9.0798,9.0798,9.0798,9.0798,9.0798,9.0798,9.0856,9.0856,9.0856,9.0798,9.074,9.0856,9.1031,9.1031,9.1089,9.1089,9.0856,9.0566,8.9344,8.8937,8.8239,8.8006,8.8181,8.8064,8.7715,8.7483,8.6959,8.6959,8.6959,8.7026,8.7334,9.0373,9.2725,9.4127,9.4912,9.5315,9.5481,9.5547,9.5284,9.4758,9.4495,9.4174,9.3532,7.8948,8.1441,8.502,8.8033,9.1329,9.1496,9.1613,9.1845,9.1613,9.1903,9.1787,9.1845,9.1671,9.138,9.138,9.1438,9.1322,9.1322,9.1264,9.1845,9.1438,9.138,9.1031,9.0848,9.0217,8.9751,8.9402,8.917,8.875,8.8866,8.9041,8.8355,8.8484,8.8484,8.8181,8.7613,8.7278,8.6687,8.6131,8.5468,8.3582,8.1322,7.8611,7.7131,7.4897,7.2723,7.3456,7.3797,7.3846,7.3846,7.3797,7.37,7.3992,7.4285,7.4334,7.4383,7.4627,7.5017,7.5505,7.5652,7.7222,7.8791,8.0654,8.0818,8.0097,8.0039,8.0494,8.1969,8.4435,8.6048,8.8022,8.8744,8.9238,8.9402,8.9402,8.9402,8.9402,8.9402,8.9402,8.9402,8.9402,8.9344,8.9344,8.9519,8.9635,8.8879,8.8762,8.8821,8.8646,8.8413,8.7948,8.7832,8.7366,8.7134,8.7076,8.6668,8.6378,8.5854,8.5156,8.4982,8.504,8.5366,8.5925,8.7604,8.9402,9.1567,9.386,9.4211,9.4363,9.4298,9.3837,9.3443,9.3051,9.2733,9.2252,7.716,7.8341,8.1711,8.4854,8.7747,8.9893,8.9385,8.8027,8.9016,8.9566,8.9635,8.9596,8.9645,8.9587,8.9751,8.9751,8.9751,8.9868,8.9809,8.9926,8.9364,8.9703,8.9529,8.9006,8.8774,8.8762,8.8297,8.7715,8.8123,8.8109,8.7934,8.7832,8.709,8.6974,8.6668,8.6145,8.5854,8.5563,8.5232,8.476,8.3474,8.1682,7.9463,7.7448,7.4871,7.288,7.2169,7.1845,7.1894,7.1943,7.1943,7.2187,7.287,7.2967,7.3016,7.37,7.37,7.4041,7.4383,7.4529,7.5306,7.6082,7.6566,7.7332,7.7018,7.7177,7.7696,7.8739,8.1211,8.3402,8.5373,8.7138,8.7463,8.7948,8.7948,8.7948,8.7948,8.7948,8.789,8.789,8.7832,8.7832,8.789,8.8064,8.8006,8.7715,8.7599,8.7366,8.6959,8.6319,8.5854,8.5738,8.5738,8.5738,8.5563,8.5156,8.4923,8.4516,8.3702,8.3178,8.3004,8.3283,8.3289,8.4487,8.6356,8.909,9.2065,9.2668,9.3114,9.2456,9.193,9.1404,9.0956,9.0993,9.13,7.5917,7.6643,7.9172,8.1495,8.3739,8.4927,8.4758,8.3579,8.52,8.6032,8.6095,8.6768,8.7162,8.7195,8.7683,8.8123,8.8123,8.8006,8.8006,8.8167,8.84,8.8284,8.7948,8.7774,8.7599,8.7366,8.7076,8.661,8.6843,8.6785,8.6727,8.6901,8.597,8.5581,8.504,8.3993,8.3411,8.3062,8.3062,8.291,8.2239,8.0511,7.9078,7.679,7.4325,7.235,7.0908,7.0289,6.9795,6.9941,7.0088,7.0478,7.1406,7.1698,7.1991,7.287,7.2967,7.3163,7.3358,7.3407,7.3842,7.4185,7.35,7.3163,7.2967,7.3526,7.4411,7.6437,7.8645,8.0954,8.3128,8.4928,8.6103,8.6261,8.6261,8.6261,8.6203,8.6203,8.6261,8.6261,8.6261,8.6261,8.6319,8.6436,8.6261,8.6727,8.6668,8.597,8.5272,8.3876,8.3237,8.3178,8.3178,8.3178,8.312,8.3411,8.3353,8.3178,8.2422,8.1782,8.1666,8.1466,8.0735,8.2076,8.4904,8.7504,8.9988,9.1026,9.1864,9.1141,9.0155,8.9431,8.8975,8.9575,9.0029,7.541,7.7358,7.7593,7.8896,8.0361,7.7081,7.6941,7.9529,8.0901,8.1628,8.1737,8.3746,8.4366,8.5037,8.6639,8.7232,8.7278,8.7278,8.7438,8.7643,8.7259,8.7452,8.7277,8.6693,8.6302,8.5738,8.5272,8.4749,8.4458,8.44,8.4342,8.4284,8.4051,8.3993,8.3353,8.2306,8.1375,8.1317,8.1317,8.1375,8.0927,7.8952,7.7671,7.571,7.3423,7.1288,6.9964,6.8918,6.8166,6.8184,6.8624,6.9014,6.9502,7.0185,7.0527,7.0771,7.0771,7.1357,7.1894,7.204,7.2431,7.2333,7.1601,7.1064,7.0869,7.1249,7.2181,7.4129,7.6049,7.8415,8.0463,8.2187,8.3877,8.4032,8.4032,8.44,8.4342,8.44,8.44,8.44,8.4342,8.4342,8.4342,8.4342,8.4109,8.4342,8.4225,8.3702,8.3062,8.1666,8.1666,8.155,8.1317,8.0968,8.0968,8.1433,8.1492,8.1841,8.1084,8.0503,8.0533,8.0359,8.0093,8.0936,8.3683,8.5921,8.8007,8.937,9.0172,8.9629,8.8511,8.77,8.6853,8.7688,8.8844,7.2305,7.2995,7.3179,7.4354,7.5813,7.3235,7.3442,7.5874,7.7982,7.8883,7.8883,7.962,8.0014,8.0351,8.0967,8.1632,8.3323,8.3323,8.3702,8.5505,8.5467,8.5487,8.5331,8.5079,8.4691,8.4458,8.376,8.3004,8.3004,8.219,8.1957,8.1957,8.1724,8.1899,8.155,8.1084,8.0212,8.0154,8.0096,8.0154,7.9564,7.846,7.6568,7.4627,7.2526,7.0132,6.8745,6.8026,6.755,6.7647,6.7843,6.8038,6.8087,6.838,6.8526,6.8624,6.8672,6.9209,6.9941,7.0234,7.0088,7.0185,6.916,6.8965,6.9502,6.96,7.0617,7.1664,7.3182,7.4534,7.5574,7.8229,7.938,8.0152,8.0515,8.1749,8.1899,8.2015,8.2015,8.1841,8.1841,8.1782,8.1724,8.1899,8.2015,8.1899,8.1724,8.1375,8.091,8.0794,8.0852,8.0735,8.0619,8.027,8.0096,7.9979,7.9979,8.0328,7.9863,7.9223,7.9251,7.9758,7.9728,7.9939,8.2705,8.5036,8.6586,8.7378,8.7762,8.7459,8.6604,8.5821,8.5147,8.5814,8.7004,6.9844,7.0137,7.0137,7.0797,7.147,7.0272,7.0451,7.1949,7.3345,7.4206,7.4206,7.548,7.5926,7.6478,7.7147,7.8702,7.9808,7.9862,8.0391,8.2307,8.2403,8.2578,8.2778,8.2873,8.2778,8.262,8.2306,8.1724,8.1724,8.1201,8.0619,8.0445,8.0735,8.0037,7.9339,7.9165,7.9165,7.9165,7.9165,7.9107,7.8962,7.7764,7.6008,7.3956,7.1955,6.9685,6.7738,6.66,6.6134,6.6183,6.6769,6.6915,6.6964,6.7599,6.7647,6.7599,6.7599,6.7891,6.8282,6.791,6.7794,6.7843,6.7745,6.8038,6.838,6.8526,6.8868,6.9649,7.1263,7.2143,7.2329,7.4794,7.6524,7.7032,7.7949,7.906,8.0007,8.0007,8.0154,8.0096,8.0445,8.0677,8.0794,8.1201,8.0386,7.9921,7.9281,7.8874,7.8902,7.9135,7.9251,7.9251,7.931,7.9107,7.9049,7.8525,7.8467,7.861,7.8261,7.8136,7.8601,7.9189,7.9444,8.0379,8.2351,8.4329,8.5474,8.6304,8.6078,8.5289,8.4302,8.3431,8.4077,8.5102,8.59,6.7958,6.9014,6.9063,6.8477,6.7921,6.755,6.7647,6.8195,6.8272,6.8447,6.8945,7.1161,7.2382,7.2932,7.4705,7.599,7.6718,7.6994,7.7998,7.9065,7.9567,7.9914,8.0476,8.0949,8.1238,8.0587,8.0386,8.0386,8.0386,7.9863,7.9921,7.9921,7.899,7.8292,7.6722,7.6547,7.6547,7.6547,7.6547,7.6547,7.6407,7.5926,7.438,7.2357,7.0182,6.8207,6.6224,6.4847,6.4398,6.428,6.4914,6.5305,6.55,6.633,6.6818,6.7013,6.7111,6.7208,6.7131,6.6254,6.6254,6.6644,6.6671,6.7062,6.7355,6.7501,6.7647,6.8136,6.929,7.0234,7.1308,7.2637,7.4301,7.5448,7.6319,7.7383,7.8519,7.9018,7.9136,7.9165,7.9805,8.027,8.027,7.9921,7.87,7.7736,7.6838,7.6629,7.671,7.6769,7.6769,7.6769,7.6769,7.6908,7.7185,7.6769,7.6885,7.6769,7.695,7.7743,7.8301,7.891,7.9923,8.1108,8.2377,8.3309,8.4342,8.528,8.4201,8.3119,8.2132,8.2248,8.3527,8.4557,8.539,6.6182,6.7763,6.7989,6.7794,6.755,6.7501,6.7501,6.7501,6.7277,6.7501,6.755,6.8223,6.8945,6.9169,7.0389,7.1354,7.2772,7.3395,7.5009,7.6516,7.7635,7.8856,7.9992,8.0323,7.9761,8.0181,7.9747,7.9107,7.9049,7.8176,7.7885,7.7245,7.6024,7.5268,7.4104,7.3872,7.3872,7.3872,7.3872,7.3872,7.3774,7.2951,7.1408,6.9331,6.7653,6.5716,6.3933,6.3072,6.2376,6.2376,6.2571,6.3011,6.345,6.3938,6.4475,6.4914,6.5207,6.5207,6.4649,6.38,6.3164,6.4649,6.5086,6.5744,6.6134,6.6378,6.6498,6.7062,6.719,6.7309,6.7479,6.8883,7.0468,7.195,7.2991,7.4995,7.6193,7.7483,7.7658,7.8234,7.7943,7.8002,7.806,7.8286,7.7164,7.6434,7.5902,7.5725,7.5858,7.5858,7.5607,7.5666,7.5473,7.5502,7.5397,7.6016,7.6637,7.6517,7.7038,7.7693,7.8385,7.9097,8.0097,8.1142,8.1892,8.2615,8.3178,8.357,8.2646,8.1277,8.1155,8.1452,8.2558,8.3579,8.4545,6.2997,6.5322,6.4061,6.3473,6.3473,6.352,6.3473,6.365,6.4399,6.4797,6.4749,6.6324,6.6867,6.7013,6.7334,6.8325,6.9433,6.9604,7.1381,7.3343,7.4355,7.5081,7.6366,7.6852,7.7822,7.7625,7.7947,7.7827,7.7594,7.6606,7.5849,7.5114,7.451,7.3441,7.3697,7.4395,7.4512,7.4453,7.4395,7.4279,7.3948,7.2787,7.1123,6.8687,6.6737,6.4943,6.2074,6.1595,6.1351,6.1205,6.1156,6.1595,6.2083,6.111,6.1117,6.1547,6.0942,6.0913,6.0401,5.9598,5.9413,6.1358,6.2954,6.339,6.2811,6.4673,6.5304,6.5058,6.5036,6.5595,6.5425,6.579,6.6609,6.7834,6.9674,7.1783,7.3396,7.4801,7.5585,7.6962,7.6838,7.6198,7.6279,7.6753,7.605,7.5348,7.5234,7.53,7.5794,7.604,7.6287,7.6348,7.6282,7.6226,7.6351,7.6357,7.6359,7.6849,7.7274,7.806,7.8777,7.9411,7.9867,8.0906,8.1766,8.2108,8.2384,8.2226,8.217,8.2009,8.1719,8.1106,8.1544,8.2511,8.3691,5.8825,6.1319,5.8204,5.6967,5.7321,5.6967,5.7188,5.8072,5.9606,6.0566,6.1628,6.3841,6.5401,6.5939,6.6525,6.6915,6.7334,6.7257,6.8308,6.8896,6.9083,7.0242,7.1619,7.3075,7.3824,7.3832,7.5182,7.5943,7.5966,7.5093,7.4221,7.3133,7.3707,7.4293,7.4433,7.4512,7.4977,7.5151,7.5151,7.5384,7.5362,7.4945,7.3331,7.0543,6.9494,6.7739,6.2749,6.1986,6.1449,6.0424,6.0326,6.057,5.9972,5.8896,5.8108,5.8077,5.7451,5.6347,5.5699,5.492,5.5498,5.7681,5.9513,6.0551,5.9567,6.2001,6.2166,6.0586,6.2118,6.2959,6.339,6.4153,6.476,6.5687,6.6906,6.8861,7.0718,7.2116,7.3901,7.5638,7.5908,7.5151,7.5056,7.6079,7.588,7.4894,7.4529,7.5377,7.5982,7.5612,7.6158,7.6699,7.6643,7.6524,7.6767,7.7104,7.6823,7.7038,7.7438,7.8264,7.8869,7.9263,7.9568,8.0356,8.0799,8.1465,8.1935,8.108,8.0919,8.1948,8.2183,8.1243,8.1195,8.1634,8.2579,5.3728,5.3792,5.3015,5.3627,5.5178,5.5178,5.5615,5.6226,5.6792,5.8407,6.0427,6.1395,6.3002,6.443,6.4914,6.5061,6.5109,6.5109,6.6155,6.7297,6.7879,6.8242,6.9095,7.0758,7.1443,7.0903,7.3065,7.3832,7.4027,7.4163,7.4337,7.4163,7.3765,7.3457,7.3366,7.389,7.4182,7.4163,7.4046,7.393,7.393,7.3872,7.1438,6.9185,6.7207,6.5491,6.1206,6.0375,5.9887,5.9106,5.9008,5.8671,5.7998,5.7017,5.639,5.5187,5.4435,5.2948,5.0771,5.0894,5.2047,5.3333,5.4911,5.6593,5.6012,5.6146,5.6583,5.6467,5.8491,5.9489,5.9842,6.1128,6.2083,6.3047,6.4213,6.6119,6.8054,6.9585,7.1154,7.2959,7.379,7.3349,7.4148,7.5382,7.5374,7.4335,7.4605,7.549,7.5292,7.4667,7.524,7.6028,7.5745,7.5003,7.5509,7.6163,7.6868,7.7263,7.7573,7.814,7.826,7.8596,7.9025,7.9425,7.9796,8.0423,8.108,7.9962,7.9141,8.056,8.161,8.0914,8.089,8.0673,8.1457,4.9632,4.9513,4.9513,5.0392,5.1396,5.157,5.1726,5.2448,5.3406,5.488,5.6355,5.7478,5.9398,6.1286,6.2701,6.2913,6.2864,6.2864,6.3628,6.4423,6.4573,6.4804,6.6026,6.7318,6.9181,6.953,7.1212,7.2364,7.2807,7.3465,7.3755,7.3639,7.3674,7.3441,7.3814,7.3697,7.3581,7.329,7.2999,7.2708,7.2708,7.2441,7.1303,6.8398,6.739,6.4751,6.1736,6.0064,5.9155,5.8813,5.8618,5.8083,5.7013,5.579,5.4389,5.2777,5.1381,4.8898,4.613,4.7281,4.8637,4.9991,5.1045,5.2517,5.3911,5.4429,5.4566,5.3247,5.5153,5.6412,5.6955,5.8551,5.92,6.0213,6.173,6.3766,6.5687,6.7099,6.8549,7.0171,7.1575,7.1851,7.2364,7.3182,7.3194,7.3552,7.4847,7.5629,7.5399,7.4826,7.5159,7.5711,7.4902,7.4189,7.507,7.548,7.6476,7.6937,7.7333,7.7563,7.7726,7.7924,7.8219,7.8482,7.9042,7.947,8.0094,8.0063,8.0295,8.072,8.1122,8.175,8.2378,8.2028,8.2147,4.5589,4.6222,4.658,4.6796,4.6721,4.7217,4.7369,4.7802,4.9705,5.0579,5.2124,5.3546,5.5834,5.8247,6.0036,6.0789,6.1156,6.1351,6.1706,6.232,6.216,6.2222,6.1987,6.3457,6.6927,6.8564,7.0955,7.2192,7.3349,7.3348,7.3174,7.3232,7.389,7.424,7.3872,7.3754,7.4367,7.4085,7.3232,7.2708,7.2708,7.2708,7.1303,6.939,6.7517,6.5047,6.1634,6.0217,5.9301,5.9155,5.9001,5.8031,5.6761,5.4799,5.1972,4.9229,4.6603,4.4686,4.4382,4.5023,4.6005,4.7867,4.805,4.9419,5.0794,5.2015,5.1632,5.0549,5.2311,5.3533,5.378,5.566,5.6945,5.7895,5.8982,6.0754,6.3203,6.4496,6.6039,6.7556,6.71,6.8209,7.0173,7.0785,7.1604,7.3403,7.5014,7.5674,7.5985,7.576,7.5958,7.5925,7.5335,7.5366,7.5958,7.5729,7.6218,7.6578,7.6806,7.7003,7.7398,7.7924,7.7924,7.815,7.841,7.8873,7.9819,8.0751,8.152,8.2004,8.2129,8.2738,8.3437,8.3705,8.3497,3.961,3.9921,4.1863,4.2599,4.2948,4.4584,4.5689,4.6394,4.6957,4.849,5.0967,5.1701,5.4054,5.7148,5.8341,5.9523,6.101,6.101,6.1449,6.1937,6.2083,6.223,6.3305,6.5407,6.7378,6.8147,7.0763,7.3638,7.4686,7.4337,7.4221,7.3814,7.3149,7.3091,7.3174,7.3175,7.3002,7.304,7.2767,7.2708,7.2708,7.2575,7.111,6.777,6.6992,6.4794,6.108,5.9916,5.9315,5.8313,5.6747,5.4988,5.2853,5.0697,4.8662,4.6976,4.575,4.4989,4.4403,4.4252,4.4065,4.5673,4.569,4.6301,4.7374,4.7518,4.7191,4.6603,4.8164,4.9751,5.0167,5.1601,5.3424,5.4744,5.5691,5.7103,5.9779,6.1404,6.2708,6.3218,6.2632,6.41,6.6956,6.81,7.0399,7.2308,7.3787,7.4594,7.6154,7.6148,7.6214,7.6148,7.6142,7.6339,7.6253,7.6041,7.6423,7.6981,7.7355,7.7688,7.7938,7.8344,7.8247,7.8373,7.8659,7.9428,7.9879,8.0756,8.1275,8.1908,8.2844,8.309,8.2749,8.2868,8.3289,3.7898,3.8043,3.9102,3.9629,4.0013,4.1095,4.1862,4.2355,4.3478,4.4882,4.6476,4.8159,5.0737,5.324,5.4217,5.6487,5.8504,5.9314,6.0293,6.1644,6.1839,6.1839,6.2222,6.479,6.6513,6.8531,7.0981,7.3523,7.4512,7.3988,7.3639,7.3465,7.3133,7.2667,7.265,7.2227,7.1878,7.1588,7.1196,7.0847,7.0847,7.0905,7.0194,6.8019,6.681,6.4771,6.1705,6.0673,5.9628,5.8465,5.6472,5.4654,5.2274,4.9418,4.6135,4.5121,4.3891,4.2913,4.2073,4.1173,4.111,4.1891,4.2536,4.3047,4.3328,4.4008,4.4626,4.4832,4.5873,4.656,4.6688,4.8759,5.0146,5.1392,5.2596,5.4251,5.6113,5.6762,5.8069,5.9103,6.0378,6.2569,6.4699,6.6858,6.9138,7.0904,7.2392,7.4208,7.6152,7.6411,7.6609,7.6566,7.6505,7.6629,7.6738,7.6687,7.6975,7.7908,7.8499,7.8974,7.9339,7.9833,7.97,7.9317,7.9722,8.0427,8.0718,8.0474,8.0817,8.1328,8.215,8.2708,8.2233,8.1929,8.2383,3.6653,3.6653,3.7188,3.7271,3.7207,3.7706,3.7961,3.8104,3.9745,4.0712,4.182,4.4238,4.6782,4.9148,5.0009,5.2565,5.5808,5.7504,5.8896,6.1177,6.1546,6.1839,6.2529,6.484,6.6415,6.8711,7.0873,7.2326,7.2749,7.2534,7.2418,7.2359,7.201,7.1836,7.1487,7.1527,7.1198,7.1149,7.0877,7.0711,7.0528,7.0156,6.9403,6.7992,6.6752,6.4725,6.2767,6.1262,6.0218,5.9057,5.6723,5.4434,5.1255,4.6942,4.4046,4.2524,4.1158,4.0159,3.9397,3.788,3.716,3.7527,3.8996,4.0017,4.0862,4.1906,4.2907,4.3481,4.4245,4.4534,4.4724,4.6245,4.7444,4.8346,4.9594,5.0948,5.211,5.2742,5.3502,5.5852,5.9167,6.1787,6.3807,6.5961,6.8203,6.9943,7.115,7.2597,7.4684,7.5746,7.6471,7.6744,7.692,7.7347,7.7478,7.781,7.8383,7.9445,7.9828,8.0307,8.0528,8.1053,8.1336,8.0931,8.109,8.1038,8.0664,8.0367,8.0535,8.0579,8.1438,8.2368,8.1873,8.1462,8.1781,3.1852,3.2035,3.4013,3.4563,3.4414,3.6163,3.6775,3.6431,3.6775,3.8386,4.0595,4.1209,4.4121,4.7388,4.8292,4.9998,5.2544,5.4786,5.827,6.1356,6.1824,6.2376,6.3641,6.5355,6.7005,6.7353,6.9332,7.1079,7.1804,7.1778,7.1196,7.1022,7.0265,7.0161,7.0065,7.0469,7.1203,7.1505,7.1978,7.2379,7.2379,7.1323,6.9626,6.7992,6.6772,6.5127,6.2801,6.1158,5.9864,5.8081,5.4399,5.0358,4.6718,4.3304,4.1129,3.8969,3.7811,3.6903,3.6284,3.5689,3.555,3.7356,3.7495,3.8179,3.9505,4.011,4.0935,4.1909,4.2739,4.2916,4.385,4.4588,4.5536,4.6515,4.6663,4.7655,4.8974,4.9429,5.0735,5.3137,5.6123,5.9333,6.1851,6.4956,6.709,6.8986,6.9743,7.09,7.3187,7.4796,7.6015,7.6648,7.8333,7.9093,7.9496,7.9828,8.0516,8.1197,8.1174,8.13,8.1381,8.2028,8.2511,8.2234,8.187,8.1089,8.067,8.0537,8.0325,8.0032,8.0648,8.1413,8.1373,8.108,8.074,2.6615,2.6989,2.938,3.0332,3.041,3.2264,3.324,3.3387,3.4283,3.5708,3.7353,3.9244,4.1093,4.3333,4.5205,4.6438,4.8283,5.155,5.5809,5.9464,6.1307,6.2083,6.3035,6.4173,6.5568,6.6112,6.7324,6.8939,7.0181,7.0207,6.9975,6.98,6.9393,6.9488,7.0177,7.0784,7.1617,7.2433,7.3181,7.352,7.352,7.2663,7.1202,7.0304,6.9137,6.7692,6.4693,6.3164,6.0676,5.7443,5.3766,4.9899,4.6617,4.3328,3.9736,3.632,3.4386,3.2825,3.0722,2.9503,2.8654,2.8801,3.0276,3.1915,3.372,3.5456,3.7147,3.9655,4.054,4.1022,4.2815,4.3129,4.3416,4.4391,4.4276,4.4985,4.6462,4.6883,4.7716,4.9376,5.3615,5.6843,5.9867,6.3506,6.616,6.9441,7.0113,7.2266,7.4327,7.6315,7.7073,7.7748,7.9651,8.1029,8.1485,8.2011,8.2628,8.2853,8.2783,8.2783,8.2934,8.3361,8.3665,8.3457,8.3192,8.2177,8.042,8.0793,8.0607,8.0318,8.0246,8.0633,8.0891,8.0923,8.0468,2.2623,2.3229,2.5281,2.6152,2.6182,2.7694,2.8783,2.971,3.1007,3.2506,3.4443,3.6752,3.8264,3.921,4.1413,4.2721,4.331,4.7927,5.1713,5.584,5.8432,6.018,5.9731,6.0929,6.2224,6.3793,6.4952,6.6537,6.8177,6.8837,6.9044,6.917,6.943,6.9995,7.1144,7.1852,7.2778,7.3743,7.4407,7.4734,7.4734,7.4499,7.4171,7.3507,7.2479,7.0724,6.8346,6.5151,6.1713,5.7993,5.3785,4.9285,4.4922,4.1299,3.679,3.2254,2.9156,2.6872,2.4266,2.2306,2.0597,2.1437,2.3398,2.5056,2.7465,3.0205,3.339,3.5991,3.7355,3.8678,4.0825,4.1615,4.1578,4.1541,4.1701,4.2218,4.3959,4.5187,4.602,4.7598,5.1731,5.5738,5.6469,6.1641,6.5368,6.9462,7.1774,7.4046,7.6238,7.8433,7.8709,7.8599,8.0735,8.2941,8.3294,8.3714,8.4323,8.4709,8.4781,8.4781,8.5141,8.545,8.4566,8.4165,8.4126,8.2029,7.9756,7.9803,7.9677,8.007,8.0315,7.9778,7.9609,8.0594,8.0585,2.1035,2.3021,2.3418,2.3368,2.2844,2.3112,2.4425,2.5733,2.6374,2.892,3.2414,3.3738,3.4742,3.7994,3.7714,3.8544,3.8722,4.387,4.6631,4.9991,5.3727,5.7106,5.616,5.7833,5.9625,6.1457,6.2873,6.4686,6.6716,6.8293,6.8859,6.9238,7.0242,7.0963,7.1674,7.3841,7.5101,7.5526,7.6627,7.7232,7.7132,7.7036,7.657,7.5855,7.5142,7.3057,6.9462,6.5362,6.2415,6.0081,5.456,4.7611,3.9609,3.6426,3.1502,2.5713,2.2056,2.0031,1.8882,1.6518,1.5586,1.697,1.8182,2.0718,2.3745,2.6466,2.9208,3.1615,3.3744,3.5726,3.7987,3.859,3.8625,3.8607,3.8572,3.9138,4.105,4.4414,4.7201,4.8101,5.1722,5.5082,5.7151,5.975,6.2972,6.6722,6.9707,7.2171,7.5037,7.8354,8.001,8.0117,8.212,8.4518,8.502,8.538,8.5836,8.6128,8.6074,8.6252,8.6522,8.6385,8.5418,8.4521,8.3986,8.2385,7.9854,7.8552,7.8127,7.8482,7.9322,7.8566,7.8054,7.9571,8.0192,1.3187,1.4354,1.5862,1.7142,1.8549,1.9609,2.1622,2.3702,2.3699,2.5238,2.6876,2.7519,2.8165,2.9624,3.2391,3.3688,3.423,3.9124,4.2804,4.5426,4.8622,5.172,5.4399,5.5443,5.7687,6.0439,6.254,6.4289,6.6039,6.8036,6.8859,6.9363,7.0405,7.1626,7.261,7.5186,7.67,7.7232,7.8808,7.9452,7.8968,7.9317,7.916,7.9068,7.8659,7.7232,7.3387,6.7738,6.4017,6.1184,5.5235,4.7815,3.9782,3.4592,2.7702,1.9327,1.4841,1.2331,1.1621,0.968,0.9139,1.0844,1.1669,1.361,1.6399,1.9087,2.318,2.6409,2.9081,3.1998,3.456,3.5575,3.5616,3.5788,3.5435,3.5748,3.7876,4.1582,4.3578,4.5153,4.8101,5.1668,5.3675,5.5588,5.9402,6.3906,6.7187,7.0243,7.3777,7.8248,8.1204,8.1889,8.3363,8.5117,8.5928,8.6229,8.6736,8.669,8.6635,8.6946,8.7196,8.7305,8.5469,8.3515,8.3549,8.2686,8.0259,7.8345,7.7885,7.7925,7.8201,7.8426,7.8575,7.9497,7.9422,0.6045,0.7012,0.952,1.1838,1.3561,1.5067,1.7327,1.9899,1.9542,2.0322,2.2018,2.2169,2.2773,2.3587,2.7083,2.8543,2.9833,3.3688,3.8091,4.0609,4.0954,4.4999,5.0824,5.3679,5.6214,5.8832,6.1221,6.3593,6.5372,6.7129,6.8605,6.9613,7.1195,7.2704,7.4625,7.6871,7.8175,7.9061,8.0633,8.1067,8.0581,8.1496,8.2113,8.1881,8.1872,8.0528,7.7701,7.1627,6.7359,6.4575,5.6011,4.6957,3.835,3.0856,2.192,1.2672,0.7121,0.4182,0.2765,0.1281,0.1438,0.313,0.4048,0.5932,0.8944,1.1386,1.5721,2.056,2.3853,2.6886,3.0788,3.1282,3.1973,3.2844,3.1644,3.1829,3.53,3.8464,4.0503,4.1025,4.4592,4.7605,4.9856,5.2012,5.5797,6.0395,6.4111,6.7597,7.2558,7.719,8.1506,8.2582,8.4371,8.5849,8.677,8.7127,8.7131,8.6979,8.6047,8.5883,8.5478,8.5154,8.3287,8.1734,8.0973,8.0531,7.8811,7.7564,7.8211,7.8208,7.828,7.8195,7.8604,7.8878,7.8825,0.175,0.4277,0.6818,0.7401,0.7783,0.8157,0.998,1.2132,1.2427,1.4865,1.8341,1.8769,2.007,2.2244,2.2604,2.3359,2.4321,2.8518,3.101,3.1139,3.256,3.6778,4.5089,5.0781,5.3968,5.5929,5.9365,6.1995,6.3906,6.5862,6.7836,7.0784,7.2461,7.4515,7.6635,7.8581,7.9922,8.0802,8.1819,8.2288,8.2217,8.3757,8.4197,8.3273,8.3633,8.2725,8.0021,7.5824,7.2327,6.7922,5.4114,4.0837,3.2486,2.4275,1.2236,0.1131,-0.1926,-0.5622,-0.8035,-0.7976,-0.6464,-0.5342,-0.3498,-0.0718,0.291,0.5686,0.9367,1.3836,1.6831,2.0956,2.5418,2.5883,2.6563,2.9332,2.7532,2.8104,3.2805,3.5773,3.7112,3.8267,4.1785,4.4985,4.4946,4.8347,5.2397,5.661,6.0263,6.5005,7.0316,7.54,8.0208,8.3307,8.5495,8.6611,8.6773,8.7052,8.6801,8.5706,8.3191,8.2382,8.1597,8.0583,7.8924,7.8386,7.781,7.7423,7.6692,7.6021,7.606,7.6975,7.7575,7.7856,7.8035,7.8208,7.829,-0.8771,-0.7888,-0.541,-0.3479,-0.193,-0.0194,0.2879,0.6426,0.6815,0.8703,1.1556,1.211,1.2599,1.3572,1.5288,1.6833,1.8581,2.1736,2.2522,2.155,2.494,3.1061,3.783,4.4676,4.9743,5.4668,5.9801,6.2694,6.3494,6.6416,6.9054,7.1084,7.2707,7.4783,7.73,7.9498,8.0984,8.1974,8.3432,8.4167,8.4269,8.5455,8.5931,8.565,8.5819,8.4869,8.2638,7.7394,7.3637,6.7896,4.5412,2.3234,0.5872,-0.1267,-0.8094,-1.4446,-1.7775,-1.843,-1.6437,-1.6213,-1.4577,-1.1546,-1.0337,-0.8738,-0.693,-0.3225,0.0722,0.5053,0.879,1.3798,1.9301,2.0,2.035,2.1995,2.229,2.3787,2.5533,2.8717,3.0786,3.2526,3.4416,3.7035,3.9226,4.2318,4.473,5.0016,5.467,6.0112,6.6561,7.2283,7.853,8.336,8.4807,8.5296,8.6309,8.6152,8.6034,8.1752,7.7479,7.4795,7.3949,7.2755,7.3356,7.2495,7.2464,7.1864,7.24,7.2391,7.3241,7.5012,7.5984,7.6207,7.6483,7.6837,7.7261,-1.7871,-1.7969,-1.5471,-1.3061,-1.1087,-0.8922,-0.5275,-0.0933,-0.0555,0.185,0.5056,0.5386,0.6412,0.7943,0.9511,1.1452,1.3006,1.294,1.4134,1.603,2.0319,2.5824,3.2199,3.7338,4.366,5.1071,5.7547,6.1392,6.3494,6.6379,6.9502,7.1847,7.3777,7.6015,7.8659,8.0915,8.2493,8.343,8.5264,8.6156,8.5885,8.676,8.6921,8.6426,8.5841,8.3958,8.07,7.5621,6.848,5.8,3.4818,0.9888,-1.1362,-2.1425,-2.6368,-3.0292,-3.2552,-3.1254,-2.7787,-2.5809,-2.3078,-2.0466,-1.8459,-1.7326,-1.5574,-1.2464,-0.8636,-0.3554,0.0531,0.5604,1.1473,1.3936,1.5082,1.5068,1.6842,1.8622,2.167,2.2362,2.3556,2.502,2.6095,2.7979,3.0736,3.2459,3.4574,3.9138,4.5379,5.1805,5.8901,6.5534,7.3455,7.9938,8.1126,8.1467,8.0574,7.9842,7.5031,6.8151,6.4265,6.1173,6.2346,6.2828,6.4846,6.5526,6.5812,6.6157,6.6864,6.769,6.9071,7.0616,7.2251,7.3387,7.4394,7.5081,7.5495,-2.4487,-2.4798,-2.15,-2.0051,-1.8936,-1.7359,-1.4477,-1.0922,-1.0096,-0.6094,-0.0723,0.0,0.1918,0.6112,0.5973,0.7194,0.6197,0.2699,0.5526,1.332,1.4979,2.025,2.868,3.064,3.6068,4.45,5.1261,5.7492,6.2887,6.5229,6.8654,7.2995,7.5519,7.7748,8.1107,8.2572,8.418,8.5466,8.6859,8.7739,8.7653,8.7635,8.7015,8.5486,8.2849,7.8739,7.2672,6.9683,5.6537,3.4065,2.1811,0.5191,-2.0321,-3.271,-3.9067,-4.3989,-4.3675,-4.356,-4.3041,-3.6903,-3.3239,-3.1498,-2.9065,-2.5245,-2.227,-2.0322,-1.7233,-1.1712,-0.8049,-0.3662,0.2729,0.681,0.9049,1.0268,1.0498,1.3553,1.7758,1.7129,1.4917,1.5701,1.6994,1.8669,1.9515,2.1053,2.2586,2.5701,3.1368,3.791,4.2224,5.0293,6.3544,6.9271,6.9099,7.0315,7.2396,7.1853,6.2077,5.3755,4.8798,4.7026,4.7793,5.3514,5.5447,5.6951,5.7161,5.5368,5.5953,5.814,6.0341,6.3554,6.7409,6.8945,7.0144,7.1306,7.2331,-3.6329,-3.54,-3.2912,-3.0754,-2.8973,-2.5717,-2.167,-1.7716,-1.5954,-1.2921,-0.9594,-0.9101,-0.7386,-0.4817,-0.4711,-0.4719,-0.4665,-0.5975,-0.2768,0.4718,0.8127,1.3926,2.159,2.6653,3.3091,4.0452,4.5225,5.2193,6.0602,6.4423,6.8587,7.3232,7.4171,7.6906,8.0734,8.2203,8.4151,8.6206,8.7352,8.8078,8.8354,8.7156,8.6021,8.4709,7.9292,7.2002,6.3114,5.3722,4.1962,2.5994,-0.687,-2.6518,-2.9415,-4.7116,-5.9102,-5.9905,-5.8172,-5.5502,-5.1602,-4.7466,-4.3266,-3.9424,-3.6646,-3.4264,-3.1549,-2.8597,-2.4803,-2.0376,-1.707,-1.2401,-0.5863,-0.3599,-0.2388,0.0686,0.3789,0.6743,0.9017,1.0589,1.0157,0.8193,0.7359,0.8479,1.0813,1.0801,0.9531,0.7539,1.0789,1.2726,1.3687,1.9636,2.7314,3.7791,4.5226,5.2861,5.7582,4.6244,3.3144,3.0494,2.6552,2.8969,3.1953,4.0675,4.5782,4.725,4.6793,4.472,4.4926,4.7068,4.9963,5.3302,5.7865,6.2461,6.3766,6.604,6.779,-4.5861,-4.4907,-4.2372,-4.0344,-3.8447,-3.3944,-2.9557,-2.542,-2.3087,-2.0299,-1.7509,-1.7129,-1.5543,-1.2947,-1.6978,-1.7141,-1.3876,-1.3078,-0.9019,-0.2488,0.2304,0.8254,1.5471,2.0798,2.7466,3.4878,3.9503,4.7469,5.838,6.298,6.7347,7.1842,7.3999,7.6906,8.0718,8.2563,8.435,8.6652,8.7753,8.8328,8.8457,8.6579,8.4242,8.1828,7.4667,6.5682,5.481,4.194,2.7798,1.2781,-2.7421,-4.8247,-4.6012,-6.1852,-7.1746,-7.0832,-6.8856,-6.5102,-5.9777,-5.6225,-5.2095,-4.7236,-4.4685,-4.2207,-3.9739,-3.7198,-3.3621,-2.8948,-2.566,-2.1806,-1.6403,-1.5024,-1.2765,-0.7198,-0.3946,-0.1886,0.0686,0.1888,0.2239,0.035,-0.1065,-0.1252,0.0,-0.2235,-0.5928,-0.868,-0.845,-0.8392,-0.9398,-0.5158,0.3947,1.3028,2.0843,2.8133,3.7452,1.7837,0.886,0.7535,0.8331,1.1154,1.4998,2.2901,2.7647,2.8506,2.9674,2.8099,2.8365,3.0725,3.4952,4.0023,5.1615,5.5088,5.485,5.9128,6.2068,-5.3183,-5.2735,-4.9953,-4.8157,-4.707,-4.2124,-3.8043,-3.4362,-3.1747,-2.8284,-2.4816,-2.4301,-2.193,-1.9832,-2.9197,-2.9172,-2.1441,-1.9023,-1.439,-0.7392,-0.2656,0.3157,0.9776,1.2962,1.9157,2.7725,3.3289,4.2739,5.5472,6.0137,6.5033,7.0483,7.4592,7.8381,8.13,8.3648,8.5655,8.7006,8.8155,8.8619,8.7794,8.6127,8.2032,7.6021,6.9755,6.0582,4.7858,3.4667,1.4219,-1.5199,-4.0078,-5.8417,-6.737,-7.358,-7.6597,-7.6304,-7.5117,-7.2248,-6.7574,-6.3183,-5.9271,-5.6041,-5.2711,-4.9543,-4.6198,-4.5042,-4.2247,-3.7225,-3.3304,-3.0903,-2.9168,-2.576,-2.0387,-1.3102,-1.2958,-1.0716,-0.5429,-0.8329,-0.9416,-0.8862,-0.8564,-0.9282,-1.1469,-1.8156,-2.2285,-2.5279,-2.6411,-2.7656,-2.7406,-2.1138,-1.5269,-0.8794,-0.2847,-0.0629,-1.3503,-1.4359,-1.1883,-1.0292,-0.8002,-0.6343,-0.1974,0.2484,0.5922,0.8818,1.0976,1.2391,1.248,1.476,1.8482,2.5623,3.6456,4.4134,4.2376,4.9904,5.6015,-6.1194,-6.0662,-5.8119,-5.5488,-5.2887,-4.9057,-4.6015,-4.3309,-3.8696,-3.5973,-3.4761,-3.353,-3.4551,-3.7508,-4.0437,-3.7572,-3.0032,-2.749,-2.1995,-1.4249,-0.9489,-0.3796,0.2756,0.6902,1.2888,1.9905,2.5612,3.3797,4.4079,5.3573,6.2002,6.8023,7.1955,7.6512,8.161,8.4167,8.6035,8.7592,8.8079,8.7783,8.6584,8.4362,7.9746,7.2911,6.7589,5.7906,4.3248,2.577,0.5255,-1.8488,-3.9487,-5.6305,-6.7621,-7.2846,-7.5668,-7.6164,-7.6238,-7.4905,-7.1984,-6.9509,-6.6365,-6.2297,-5.9133,-5.6031,-5.3162,-5.1389,-4.8191,-4.3635,-4.2882,-4.0771,-3.7137,-3.2866,-2.8374,-2.3401,-2.1209,-2.0328,-1.8227,-1.859,-2.0273,-2.2156,-2.0032,-2.0333,-2.5498,-3.0126,-3.6194,-4.3296,-4.7633,-5.1773,-5.7609,-5.3947,-4.9885,-5.0696,-3.4948,-2.9784,-3.5704,-3.3076,-2.8093,-2.5553,-2.4112,-2.3174,-2.2844,-1.3511,-0.7346,-0.5413,-0.4598,-0.3443,-0.1802,-0.2455,-0.0641,0.5755,1.4206,2.2606,2.7982,4.068,4.8435,-6.6968,-6.6529,-6.4412,-6.1795,-5.8801,-5.49,-5.2255,-5.0386,-4.6386,-4.4266,-4.3875,-4.3535,-4.4893,-4.7433,-4.8113,-4.4762,-3.7917,-3.4032,-2.8552,-2.207,-1.4827,-0.9093,-0.3953,0.1372,0.7013,1.2958,1.9174,2.6091,3.397,4.3918,5.4223,6.3416,6.8336,7.403,8.089,8.3425,8.5453,8.7542,8.7764,8.6864,8.4562,8.1174,7.6452,7.0567,6.5143,5.5096,3.9303,1.9275,-0.1011,-2.0813,-4.1507,-5.7491,-6.7605,-7.2551,-7.5464,-7.5975,-7.6855,-7.661,-7.4749,-7.3133,-7.054,-6.6814,-6.4127,-6.1432,-5.8689,-5.6951,-5.459,-5.137,-5.1444,-4.9339,-4.3381,-3.991,-3.6113,-3.1655,-2.9614,-2.8739,-2.8655,-2.8347,-2.9174,-3.209,-3.1024,-3.1609,-3.5833,-3.8629,-4.4417,-5.4035,-6.1154,-6.5768,-7.2406,-7.1558,-6.9299,-6.7222,-5.7166,-4.9505,-4.9489,-4.5888,-4.1288,-3.7955,-3.6511,-3.4291,-3.1707,-2.4957,-2.0895,-1.9008,-1.7449,-1.6124,-1.4871,-1.6435,-1.7688,-1.4813,-0.6928,0.1267,1.1439,2.2514,2.8717,-7.1144,-7.0517,-6.9084,-6.7162,-6.4482,-6.028,-5.7665,-5.6314,-5.403,-5.2636,-5.228,-5.3805,-5.3449,-5.2253,-5.3426,-5.0958,-4.5365,-3.9347,-3.4085,-2.9065,-1.9696,-1.3386,-0.9927,-0.4305,0.1205,0.6337,1.3159,1.8942,2.4485,3.2329,4.3163,5.6405,6.4139,7.1838,7.9265,8.2266,8.445,8.668,8.6898,8.5226,8.1582,7.7253,7.3015,6.8601,6.2654,5.2603,3.8877,1.6024,-0.4261,-2.234,-4.4891,-6.0928,-6.7823,-7.3013,-7.5807,-7.5985,-7.7071,-7.745,-7.6458,-7.4866,-7.2837,-7.0294,-6.8126,-6.5851,-6.3357,-6.1943,-6.0721,-5.9089,-5.8173,-5.4765,-4.9243,-4.6567,-4.324,-3.8138,-3.7731,-3.78,-3.7659,-3.7327,-3.8206,-4.0007,-4.1312,-4.2109,-4.4402,-4.5325,-4.9266,-5.8806,-6.641,-7.2579,-7.502,-7.4011,-7.2279,-6.8372,-6.4744,-6.0969,-5.7781,-5.4221,-4.9733,-4.738,-4.499,-4.0916,-3.6975,-3.4218,-3.287,-2.845,-2.7443,-2.7336,-2.7522,-2.9168,-3.0215,-2.8181,-2.5284,-2.0521,-0.9874,0.0471,0.4171,-7.3978,-7.4076,-7.2208,-7.074,-6.9349,-6.6061,-6.4376,-6.368,-5.8858,-5.8689,-6.1801,-6.2514,-6.1646,-6.0044,-5.9372,-5.6336,-5.1021,-4.5467,-3.9176,-3.2371,-2.6795,-2.0272,-1.3399,-1.1601,-0.7267,-0.1205,0.4125,1.0327,1.7151,2.4217,3.3499,4.5066,6.0235,7.154,7.883,8.2435,8.4667,8.5322,8.3178,8.0134,7.6573,7.4671,7.1315,6.6463,6.2125,5.5705,4.6139,2.289,0.1252,-1.7449,-4.5055,-6.3861,-7.1025,-7.3234,-7.4556,-7.5356,-7.6038,-7.6565,-7.6762,-7.5742,-7.4633,-7.3666,-7.1281,-6.8665,-6.6125,-6.4979,-6.4071,-6.2751,-6.0025,-5.6766,-5.3116,-5.1003,-4.9007,-4.6461,-4.6837,-4.7518,-4.8884,-5.0269,-5.18,-5.3242,-5.3537,-5.3949,-5.5344,-5.597,-5.797,-6.3223,-7.0198,-7.5343,-7.6754,-7.5455,-7.2549,-6.8609,-6.5032,-6.2013,-5.9051,-5.6317,-5.3434,-4.9838,-4.8025,-4.529,-4.2507,-4.2063,-4.0672,-3.6039,-3.5202,-3.5148,-3.4725,-3.552,-3.6689,-3.7118,-3.638,-3.4826,-3.144,-1.9838,-1.0954,-7.6153,-7.6031,-7.4912,-7.3927,-7.293,-7.1075,-6.9332,-6.7371,-6.4179,-6.4464,-6.6769,-6.5679,-6.4784,-6.3887,-6.3222,-6.061,-5.6402,-5.0903,-4.4875,-3.8363,-3.1685,-2.5424,-1.9977,-1.5755,-1.1807,-0.7919,-0.1547,0.4473,0.9823,1.6703,2.5031,3.5206,4.9285,6.3516,7.6643,8.0999,8.3463,8.4494,7.8771,7.4916,7.326,7.0245,6.7278,6.429,6.1491,5.7067,5.0591,3.1425,0.9645,-1.4543,-3.6889,-5.6596,-7.265,-7.4725,-7.548,-7.6005,-7.6591,-7.7041,-7.7484,-7.7297,-7.6274,-7.435,-7.1769,-6.9574,-6.7886,-6.6997,-6.5742,-6.3865,-6.2141,-5.9554,-5.6215,-5.57,-5.4778,-5.2477,-5.319,-5.424,-5.5079,-5.6076,-5.7443,-5.9479,-6.0494,-6.1462,-6.2544,-6.2496,-6.3572,-6.6814,-7.0225,-7.4012,-7.6141,-7.4048,-7.084,-6.7641,-6.4803,-6.2421,-6.0924,-5.8634,-5.6124,-5.3473,-5.1939,-4.9736,-4.6871,-4.6475,-4.5138,-4.134,-4.0626,-4.0755,-4.0231,-4.1328,-4.2063,-4.2556,-4.2824,-4.3423,-4.3066,-3.4607,-2.7523,-7.7462,-7.7201,-7.7027,-7.6489,-7.5713,-7.5193,-7.2898,-6.9666,-6.9666,-6.9399,-6.8956,-6.6956,-6.6034,-6.5902,-6.5839,-6.4112,-6.0837,-5.5566,-5.0319,-4.499,-3.592,-3.0225,-2.7275,-1.9475,-1.5271,-1.3792,-0.603,-0.0517,0.2923,1.0302,1.8517,2.7772,3.7847,5.3282,7.2387,7.8172,8.1477,8.3389,7.5365,7.0961,7.0604,6.6044,6.3245,6.2122,6.0915,5.8143,5.37,4.2854,2.2479,-0.7912,-2.4688,-4.4813,-6.9727,-7.3814,-7.5909,-7.6864,-7.7525,-7.8018,-7.8202,-7.8713,-7.7554,-7.4318,-7.1565,-6.9316,-6.8037,-6.737,-6.6063,-6.3771,-6.3467,-6.2204,-5.8902,-5.9337,-5.9099,-5.7369,-5.7779,-5.8563,-5.9107,-5.9232,-6.0098,-6.2319,-6.4199,-6.5294,-6.3291,-6.1305,-5.9669,-6.1391,-6.0384,-6.5505,-6.6107,-6.6713,-6.5106,-6.5391,-6.4018,-6.274,-6.1393,-5.9898,-5.7801,-5.6596,-5.4801,-5.2878,-4.9442,-4.9198,-4.8061,-4.4715,-4.3988,-4.4212,-4.4431,-4.6069,-4.6974,-4.7247,-4.8351,-4.8812,-4.7334,-4.4685,-4.2637,-7.6986,-7.8304,-7.7328,-7.7158,-7.7451,-7.6893,-7.5411,-7.3629,0.0,0.0,0.0,-6.9983,-6.9372,-6.856,-6.8299,-6.6136,-6.2241,-5.8575,-5.3484,-4.7113,-4.2257,-3.6266,-2.9497,-2.6345,-2.2058,-1.6576,-1.3096,-0.8254,-0.2067,0.6672,1.5913,2.5608,3.7525,4.9974,6.2406,7.2979,7.9242,8.082,7.736,7.2906,6.7603,6.5839,6.3353,5.9912,6.1774,6.2274,6.0965,6.0634,4.6839,1.7496,-1.2714,-3.6636,-5.2397,-6.2649,-7.0545,-7.595,-7.7082,-7.7783,-7.8401,-7.8574,-7.8051,-7.6823,-7.3267,-6.8473,-6.2189,-6.3911,-6.4833,-6.4052,-6.2691,-6.1065,-5.9012,-5.9207,-5.9558,-6.0377,-6.1503,-6.2671,-6.3737,-6.4473,-6.4462,-6.4755,-6.519,-6.3373,-5.5268,-4.7418,-3.8754,-3.1196,-3.7051,-4.3222,-4.2688,-4.3511,-4.7371,-5.8685,-6.1232,-6.0453,-5.8968,-5.8536,-5.7677,-5.5253,-5.4757,-5.3702,-5.1121,-5.0734,-4.9511,-4.5762,-4.5148,-4.5783,-4.6604,-4.8288,-5.014,-5.2057,-5.3534,-5.4069,-5.3,-5.3675,-5.3383,-7.6143,-7.6169,-7.5644,-7.6055,0.0,-7.6462,-7.6244,-7.6351,-7.6424,-7.5068,-7.2628,-7.1893,-7.0788,-6.9416,-6.8946,-6.6778,-6.336,-5.9869,-5.5468,-5.0413,-4.5034,-3.9856,-3.4739,-2.9554,-2.5492,-2.208,-1.6482,-1.1364,-0.6546,0.2398,1.1605,2.0811,3.2968,4.4828,5.668,6.8669,7.6665,8.073,7.6026,7.1133,6.6199,6.2764,6.0172,5.8284,6.0707,0.0,0.0,0.0,0.0,0.0,0.0,0.0,0.0,0.0,0.0,-5.9159,-6.7178,-7.2208,-7.3113,-7.257,-7.1001,-6.8319,-6.6304,-5.9757,-4.6842,-5.2146,-5.7176,-5.9838,-5.9383,-5.8707,-5.866,-5.95,-6.0609,-6.2088,-6.3936,-6.5255,-6.5621,-6.5741,-6.5675,-6.5181,-6.1583,-5.539,-4.6408,-3.5365,-2.3721,-1.3807,-1.65,-2.3133,-3.1476,-3.1239,-3.3175,-4.5498,-5.357,-5.9274,-5.9062,-5.9076,-5.8197,-5.6789,-5.6196,-5.5359,-5.3794,-5.3579,-5.2535,-4.9702,-4.9114,-4.9687,-5.0691,-5.1695,-5.3411,-5.6235,-5.7599,-5.8011,-5.8635,-5.836,-5.7339,-7.5921,-7.4778,-7.4778,-7.5583,-7.6809,-7.6027,-7.6623,-7.8217,-7.8051,-7.6812,-7.4681,-7.325,-7.1436,-6.9554,-6.9033,-6.73,-6.436,-6.1048,-5.7749,-5.442,-4.81,-4.3495,-4.0267,-3.2737,-2.8432,-2.6676,-1.847,-1.273,-0.9462,0.0,0.938,1.837,2.957,4.1355,5.3426,0.0,0.0,0.0,7.4713,6.9586,6.506,6.0239,5.7328,5.6532,5.903,0.0,6.1405,6.3582,5.536,3.5943,3.0667,0.0,0.0,0.0,0.0,0.0,0.0,0.0,0.0,0.0,0.0,0.0,-4.991,-4.2419,-2.8478,-3.6176,-4.5045,-5.1752,-5.2696,-5.3492,-5.4817,-5.6817,-5.8903,-6.132,-6.4089,-6.5986,-6.6092,-6.5559,-6.5035,-6.4553,-5.5501,-4.5571,-3.5482,-2.1077,-0.6929,0.4891,0.5116,-0.157,-1.4582,-1.2707,-1.7248,-3.0348,-4.4159,-5.4902,-5.9383,-5.908,-5.8463,-5.8822,-5.8143,-5.756,-5.7154,-5.6396,-5.52,-5.3406,-5.3278,-5.3584,-5.4831,-5.562,-5.7176,-6.0445,-6.1011,-6.1737,-6.3982,-6.2349,-5.9975,-7.7433,-7.8098,-7.8068,-7.8344,-7.8675,-7.7072,-7.7299,-7.8561,-7.783,-7.6686,-7.5248,-7.4032,-7.1651,-6.8719,-6.9412,-6.8458,-6.6079,-6.3673,-6.1669,-5.9596,-5.4551,-4.9411,-4.4131,-3.8188,-3.2546,-2.7028,-1.9996,-1.353,-0.7013,0.3908,1.3836,2.2755,3.3483,4.3423,5.2638,6.3766,7.2003,7.7375,7.6613,7.1941,6.3353,6.1329,5.8575,5.5069,5.7248,5.8518,5.8506,6.1405,5.981,5.2574,4.2949,3.2215,2.0426,0.719,-0.4256,0.0,-1.713,0.0,0.0,0.0,0.0,0.0,0.0,0.0,0.0,-1.689,-2.6884,-3.7654,-3.9893,-4.1415,-4.2753,-4.5404,-4.9449,-5.5056,-5.9307,-6.2685,-6.4948,-6.5867,-6.4891,-6.1035,-4.9486,-3.5769,-2.0809,0.1451,2.2997,3.7632,3.5055,3.0731,3.3214,2.6296,1.0033,-1.8608,-3.1281,-4.3185,-5.3452,-5.7023,-5.7946,-5.9098,-5.926,-5.9097,-5.9134,-5.8729,-5.7587,-5.5533,-5.485,-5.5069,-5.6082,-5.8504,-6.1055,-6.3678,-6.4205,-6.5395,-6.8819,-6.8692,-6.7094,-7.6441,-7.6049,-7.6049,-7.7062,-7.8548,-7.7798,-7.7974,-7.8875,-7.8126,-7.6934,-7.5406,-7.4563,-7.1852,-6.8106,-6.8033,-6.6526,-6.392,-6.1809,-5.9999,-5.8009,-5.422,-4.9889,-4.5283,-4.0586,-3.5642,-3.0584,-2.2715,-1.5302,-0.8337,0.2716,1.2871,2.1885,3.2307,4.2185,5.1548,6.2337,6.9922,7.4429,7.6429,7.2994,6.4308,6.0343,5.6553,5.2865,5.466,5.5366,5.4271,5.8344,6.0044,5.8563,5.4359,4.984,4.5163,2.9884,1.8533,0.0,0.0,0.0,0.0,0.0,0.0,0.0,0.0,0.0,0.0,0.0,-0.4959,-1.4166,-1.8925,-2.2292,-2.4311,-2.6915,-3.1132,-3.7936,-4.4257,-5.0716,-5.7404,-5.812,-5.7256,-5.4886,-4.0124,-2.3821,-0.757,1.4954,3.6618,5.4087,5.6111,5.7175,5.9396,4.6953,2.9383,0.8166,-1.3534,-3.1706,-4.2006,-5.1869,-5.9249,-6.1712,-6.1858,-6.1772,-6.2452,-6.1388,-5.9987,-5.8883,-5.7879,-5.7725,-5.908,-6.155,-6.4328,-6.6558,-6.7152,-6.8799,-7.2684,-7.187,-6.984,-7.6068,-7.4514,-7.2985,-7.3789,-7.6162,-7.6799,-7.7518,-7.8143,-7.7274,-7.5882,-7.3995,-7.1779,-6.8592,-6.4881,-6.3405,-6.1799,-6.005,-5.8634,-5.7433,-5.6091,-5.3432,-5.0064,-4.621,-4.2232,-3.8042,-3.3221,-2.3936,-1.5698,-0.8264,0.3382,1.389,2.2911,3.2885,4.2407,5.1429,6.1087,6.8193,7.2417,7.5475,7.3647,6.6796,6.0,5.4524,5.0568,5.1862,5.2125,5.1234,5.5616,5.8967,6.111,6.224,6.3019,6.31,4.8977,0.0,0.0,0.0,0.0,0.0,0.0,0.0,0.0,0.0,3.4562,2.9359,0.0,1.4819,0.0,0.1913,-0.2827,-0.5072,-0.7711,0.0,0.0,-2.7095,-3.5847,-4.5394,-4.6756,-4.669,-4.5906,-2.929,-1.2149,0.2681,2.499,4.4919,5.8912,6.728,7.2717,7.4216,5.9676,4.4593,3.0988,0.7729,-1.4019,-2.6574,-4.2259,-5.5322,-6.4016,-6.4695,-6.4458,-6.5449,-6.4045,-6.2564,-6.197,-6.1029,-6.07,-6.154,-6.3429,-6.5758,-6.8553,-7.0088,-7.1763,-7.5234,-7.4307,-7.2703,-7.7497,-7.6261,-7.0379,-6.8884,-7.0532,-7.3052,-7.4745,-7.5568,-7.4024,-7.2245,-7.0058,-6.2916,-5.8698,-5.706,-5.3806,0.0,-5.4466,-5.4852,-5.5475,-5.6598,-5.4598,-5.1675,-4.7891,-4.4184,-3.9275,-3.3379,-2.2376,-1.2579,-0.3491,0.9541,2.0716,2.9554,3.8643,4.6473,5.3248,6.0539,6.6889,7.2417,7.4069,7.3927,7.183,6.1777,5.3889,4.8995,4.8857,4.9768,5.1053,5.4129,5.7714,6.1854,6.3921,6.5998,6.8148,0.0,0.0,0.0,0.0,0.0,0.0,0.0,0.0,0.0,0.0,0.0,0.0,0.0,0.0,2.5487,1.9095,0.0,1.3391,0.9725,0.0,0.0,0.0,-1.9332,-2.8392,-3.2188,-3.374,-3.245,0.0,0.0,0.9226,3.1619,4.9968,5.8931,6.6563,7.2678,7.6577,7.0396,6.0734,4.6508,3.2793,1.5125,-0.857,-2.5659,-4.2058,-6.0897,-6.6792,-6.6929,-6.7189,-6.6799,-6.5811,-6.3925,-6.3086,-6.3078,-6.3049,-6.3226,-6.4507,-6.8328,-7.2054,-7.5533,-7.7381,-7.7722,-7.7999,-6.412,-4.917,-4.8194,-5.0531,-5.5388,-5.9852,-6.4471,-6.8887,-6.7879,-6.4355,-5.8921,-5.0888,-4.5059,-4.1334,-3.7837,0.0,0.0,0.0,-4.7912,-4.911,-4.8411,-4.6879,-4.4886,-4.3435,-3.9581,-3.3158,-2.0817,-1.0178,-0.1148,1.4828,2.7517,3.6771,0.0,0.0,5.1401,5.8742,6.5005,6.9656,7.259,7.3047,7.0889,6.4554,5.7649,5.0434,5.0222,5.0627,5.1234,5.5638,5.9506,6.2408,6.5858,6.7662,0.0,0.0,0.0,0.0,0.0,0.0,0.0,0.0,0.0,0.0,0.0,4.8699,4.6408,0.0,0.0,0.0,3.4093,3.2385,3.2505,3.0527,0.0,0.0,0.0,0.0,0.0,0.0,0.0,-1.3808,-0.3206,0.7942,1.7805,3.6244,5.164,5.9587,6.7024,7.3432,7.8091,0.0,6.9834,6.038,4.753,3.3582,1.827,-0.804,-3.0928,-4.3287,-5.8758,-7.0424,-7.1446,-7.0428,-6.9431,-6.9098,-6.7465,-6.5792,-6.5832,-6.398,-6.3539,-6.5526,-6.8984,-7.2794,-7.6873,-7.8699,-8.0303,-4.4179,0.0,0.0,0.0,0.0,-4.2506,-4.8603,-5.4788,-5.3853,-4.9911,-4.3399,-3.5412,0.0,0.0,0.0,0.0,0.0,0.0,-3.7405,-3.9424,-3.9706,-3.9547,-3.9036,-3.9675,-3.6143,-2.8456,-1.6944,-0.5957,0.5008,2.2531,3.4879,4.2173,0.0,0.0,0.0,0.0,6.3202,6.799,7.1536,7.2235,7.0164,6.5924,6.008,5.2887,5.2207,5.2556,5.366,5.7953,6.158,6.447,6.7064,0.0,0.0,0.0,0.0,0.0,0.0,0.0,0.0,0.0,0.0,0.0,0.0,0.0,0.0,0.0,0.0,0.0,0.0,0.0,4.615,4.5626,4.3491,0.0,0.0,0.0,0.0,0.0,0.0,0.0,0.0,0.0,2.7859,4.092,5.2027,0.0,0.0,7.261,7.756,7.7727,7.5885,7.1852,6.197,0.0,4.2705,1.4715,-1.0771,-2.5123,-4.7173,-6.6126,-7.4711,-7.4126,-7.2762,-7.3753,-7.0726,-6.8473,-6.8999,-6.1676,-5.4019,-5.397,-5.6212,-6.0456,-6.7935,-7.5744,-8.1597,0.0,0.0,0.0,0.0,0.0,0.0,0.0,0.0,-2.98,-2.7288,0.0,-1.584,0.0,0.0,0.0,0.0,0.0,-2.0102,0.0,0.0,-2.9078,-2.9856,-3.0284,-3.2298,-2.7768,-1.7337,-1.0227,0.1117,1.6181,3.3128,0.0,0.0,0.0,0.0,0.0,0.0,6.1944,6.8203,7.1,7.1712,7.0231,6.4864,6.0138,5.6269,5.4233,5.5231,5.969,6.0663,6.3383,6.8464,6.7037,0.0,0.0,0.0,0.0,0.0,0.0,0.0,0.0,0.0,0.0,0.0,0.0,0.0,0.0,0.0,0.0,0.0,0.0,0.0,0.0,5.2427,0.0,0.0,0.0,0.0,0.0,0.0,0.0,0.0,0.0,0.0,3.9917,4.5825,5.1164,5.7475,0.0,0.0,0.0,0.0,7.9029,7.9947,7.8216,7.1715,5.8359,4.4238,2.2621,-1.2992,0.0,0.0,-7.5082,-7.743,-7.482,-7.5425,-7.0886,-7.0609,-7.3473,-5.1176,-3.328,-3.0953,-3.1736,-3.6865,-4.8246,-6.332,-7.8802,0.0,0.0,0.0,0.0,0.0,0.0,0.0,0.0,0.0,-0.8081,-0.1891,0.4986,0.0,0.0,0.0,0.0,0.0,0.0,0.0,0.0,-1.4838,-1.6516,-1.9327,-1.8712,-1.5109,0.0,0.1664,1.4711,0.0,0.0,0.0,0.0,0.0,0.0,0.0,0.0,6.1536,6.7016,7.059,7.1712,7.0314,6.6822,6.2842,5.8135,5.8094,5.9153,6.1311,6.2881,6.4364,0.0,0.0,0.0,0.0,0.0,0.0,0.0,0.0,0.0,0.0,0.0,0.0,0.0,0.0,0.0,0.0,0.0,0.0,0.0,0.0,0.0,0.0,0.0,5.5678,0.0,0.0,0.0,0.0,0.0,0.0,0.0,0.0,0.0,4.739,5.1313,5.4806,5.8557,6.3724,6.8941,7.4036,0.0,0.0,0.0,0.0,0.0,0.0,0.0,3.5111,1.6593,-0.6512,-2.889,-4.7578,-4.5773,-4.7475,-6.4501,0.0,0.0,-2.9719,-1.854,-0.9407,-0.818,-0.7362,-0.9219,-1.6991,-2.5816,-3.5295,0.0,0.0,0.0,0.0,0.0,0.0,0.0,0.0,0.0,1.2945,1.8658,0.0,0.0,0.0,0.0,0.0,0.0,0.0,0.0,0.0,0.0,0.0,-0.734,-0.5497,0.0,0.0,0.0,0.0,0.0,0.0,0.0,0.0,0.0,0.0,0.0,0.0,6.0516,6.6283,6.9848,7.1407,7.0938,6.7953,6.4117,5.9706,6.0348,6.0951,6.1352,0.0,0.0,0.0,0.0,0.0,0.0,0.0,0.0,0.0,0.0,0.0,0.0,0.0,0.0,0.0,0.0,0.0,0.0,0.0,0.0,0.0,0.0,0.0,0.0,0.0,5.8297,0.0,0.0,0.0,0.0,0.0,0.0,0.0,0.0,0.0,0.0,0.0,5.8309,6.0036,6.4407,6.9079,7.3374,7.487,7.6369,0.0,0.0,0.0,0.0,0.0,0.0,0.0,0.0,0.0,0.0,0.0,0.0,0.0,0.0,0.9804,0.3243,1.2026,2.1017,2.2778,0.0,0.0,0.0,0.0,0.0,0.0,0.0,0.0,0.0,0.0,0.0,0.0,0.0,0.0,0.0,3.7756,0.0,0.0,4.2213,0.0,0.0,0.0,0.0,0.0,0.0,0.0,0.0,0.0,0.0,0.0,0.0,0.0,0.0,0.0,0.0,0.0,0.0,0.0,0.0,0.0,0.0,5.8907,6.6342,6.8885,7.0877,7.2116,6.797,6.4114,6.0843,6.0794,6.0532,6.0347,0.0,0.0,0.0,0.0,0.0,0.0,0.0,0.0,0.0,0.0,0.0,0.0,0.0,0.0,0.0,0.0,0.0,0.0,0.0,0.0,0.0,0.0,0.0,0.0,0.0,0.0,5.9154,6.1246,6.2173,0.0,0.0,0.0,0.0,0.0,0.0,0.0,0.0,0.0,0.0,6.5784,6.9576,7.213,7.4909,7.734,7.9267,8.1396,8.2969,8.3136,8.0857,7.0751,0.0,0.0,0.0,0.0,0.0,0.0,0.0,0.0,0.0,0.0,0.0,0.0,0.0,0.0,0.0,0.0,0.0,0.0,0.0,0.0,0.0,0.0,0.0,0.0,0.0,0.0,0.0,0.0,0.0,0.0,0.0,0.0,0.0,0.0,0.0,0.0,0.0,0.0,0.0,0.0,0.0,0.0,0.0,0.0,0.0,0.0,0.0,0.0,0.0,0.0,0.0,0.0,0.0,0.0,5.7674,6.4832,6.7745,7.0182,7.2226,6.8429,6.5123,6.2548,6.329,6.384,0.0,0.0,0.0,0.0,0.0,0.0,0.0,0.0,0.0,0.0,0.0,0.0,0.0,0.0,0.0,0.0,0.0,0.0,0.0,0.0,0.0,0.0,0.0,0.0,0.0,0.0,0.0,0.0,6.2419,6.2716,6.2319,0.0,0.0,0.0,0.0,0.0,0.0,0.0,0.0,0.0,0.0,7.0922,7.4354,7.3856,7.401,7.667,7.7464,7.8239,7.9453,7.8623,7.3742,6.1652,0.0,0.0,0.0,0.0,0.0,0.0,0.0,0.0,0.0,0.0,0.0,0.0,0.0,0.0,0.0,0.0,0.0,0.0,0.0,0.0,0.0,0.0,0.0,0.0,0.0,0.0,0.0,0.0,0.0,0.0,0.0,0.0,0.0,0.0,0.0,0.0,0.0,0.0,0.0,0.0,0.0,0.0,0.0,0.0,0.0,0.0,0.0,0.0,0.0,0.0,0.0,0.0,0.0,5.6348,6.4377,6.6805,6.9457,7.2283,6.8819,6.5931,6.3881,6.4871,6.4969,0.0,0.0,0.0,0.0,0.0,0.0,0.0,0.0,0.0,0.0,0.0,0.0,0.0,0.0,0.0,0.0,0.0,0.0,0.0,0.0,0.0,0.0,0.0,0.0,0.0,0.0,0.0,0.0,6.2586,6.2837,6.2786,0.0,0.0,0.0,0.0,0.0,0.0,0.0,0.0,0.0,0.0,7.1886,7.4715,7.3782,0.0,0.0,7.5662,7.5982,7.7027,7.6847,7.4726,6.9285,6.2456,0.0,0.0,0.0,0.0,0.0,0.0,0.0,0.0,0.0,0.0,0.0,0.0,0.0,0.0,0.0,0.0,0.0,0.0,0.0,0.0,0.0,0.0,0.0,0.0,0.0,0.0,0.0,0.0,0.0,0.0,0.0,0.0,0.0,0.0,0.0,0.0,0.0,0.0,0.0,0.0,0.0,0.0,0.0,0.0,0.0,0.0,0.0,0.0,0.0,0.0,0.0,0.0,5.517,6.4099,6.5913,6.8732,7.2688,6.9345,6.6641,6.5066,6.5639,6.4704,0.0,0.0,0.0,0.0,0.0,0.0,0.0,0.0,0.0,0.0,0.0,0.0,0.0,0.0,0.0,0.0,0.0,0.0,0.0,0.0,0.0,0.0,0.0,0.0,0.0,0.0,0.0,0.0,0.0,0.0,0.0,0.0,0.0,0.0,0.0,0.0,0.0,0.0,0.0,0.0,0.0,7.2687,7.3802,7.4582,7.5085,0.0,7.5624,7.5985,7.6183,7.6038,7.4523,7.0263,0.0,0.0,0.0,0.0,0.0,0.0,0.0,0.0,0.0,0.0,0.0,0.0,0.0,0.0,0.0,0.0,0.0,0.0,0.0,0.0,0.0,0.0,0.0,0.0,0.0,0.0,0.0,0.0,0.0,0.0,0.0,0.0,0.0,0.0,0.0,0.0,0.0,0.0,0.0,0.0,0.0,0.0,0.0,0.0,0.0,0.0,0.0,0.0,0.0,0.0,0.0,0.0,0.0,0.0,6.0688,6.4866,6.8598,7.1863,6.9825,6.789,6.6018,6.675,0.0,0.0,0.0,0.0,0.0,0.0,0.0,0.0,0.0,0.0,0.0,0.0,0.0,0.0,0.0,0.0,0.0,0.0,0.0,0.0,0.0,0.0,0.0,0.0,0.0,0.0,0.0,6.109,0.0,0.0,0.0,0.0,0.0,0.0,0.0,0.0,0.0,0.0,0.0,0.0,0.0,0.0,7.3682,7.6282,7.4568,7.3528,0.0,0.0,7.56,7.7451,7.6762,7.579,0.0,0.0,0.0,0.0,0.0,0.0,0.0,0.0,0.0,0.0,0.0,0.0,0.0,0.0,0.0,0.0,0.0,0.0,0.0,0.0,0.0,0.0,0.0,0.0,0.0,0.0,0.0,0.0,0.0,0.0,0.0,0.0,0.0,0.0,0.0,0.0,0.0,0.0,0.0,0.0,0.0,0.0,0.0,0.0,0.0,0.0,0.0,0.0,0.0,0.0,0.0,0.0,0.0,0.0,5.1613,5.884,6.3332,6.7149,7.0232,6.9584,6.8305,6.6541,6.7089,6.6117,0.0,0.0,0.0,0.0,0.0,0.0,0.0,0.0,0.0,0.0,0.0,0.0,0.0,0.0,0.0,0.0,0.0,0.0,0.0,0.0,0.0,0.0,0.0,0.0,0.0,0.0,0.0,0.0,0.0,0.0,0.0,0.0,0.0,0.0,0.0,0.0,0.0,0.0,0.0,0.0,0.0,0.0,7.6582,7.4415,0.0,0.0,0.0,7.4667,7.6719,0.0,0.0,0.0,0.0,0.0,0.0,0.0,0.0,0.0,0.0,0.0,0.0,0.0,0.0,0.0,0.0,0.0,0.0,0.0,0.0,0.0,0.0,0.0,0.0,0.0,0.0,0.0,0.0,0.0,0.0,0.0,0.0,0.0,0.0,0.0,0.0,0.0,0.0,0.0,0.0,0.0,0.0,0.0,0.0,0.0,0.0,0.0,0.0,0.0,0.0,0.0,0.0,0.0,0.0,0.0,0.0,0.0,5.7701,6.1474,6.4982,6.8266,6.9071,6.8675,6.716,6.7212,6.6326,0.0,0.0,0.0,0.0,0.0,0.0,0.0,0.0,0.0,0.0,0.0,0.0,0.0,0.0,0.0,0.0,0.0,0.0,0.0,0.0,0.0,0.0,0.0,0.0,0.0,0.0,0.0,0.0,0.0,0.0,0.0,0.0,0.0,0.0,0.0,0.0,0.0,0.0,0.0,0.0,0.0,7.4529,7.5766,7.4251,7.3166,0.0,0.0,7.3731,7.4991,7.5419,0.0,0.0,0.0,0.0,0.0,0.0,0.0,0.0,0.0,0.0,0.0,0.0,0.0,0.0,0.0,0.0,0.0,0.0,0.0,0.0,0.0,0.0,0.0,0.0,0.0,0.0,0.0,0.0,0.0,0.0,0.0,0.0,0.0,0.0,0.0,0.0,0.0,0.0,0.0,0.0,0.0,0.0,0.0,0.0,0.0,0.0,0.0,0.0,0.0,0.0,0.0,0.0,0.0,0.0,0.0,0.0,5.5686,5.9836,6.3842,6.7603,6.9714,6.9899,6.8195,6.8702,6.7806,0.0,0.0,0.0,0.0,0.0,0.0,0.0,0.0,0.0,0.0,0.0,0.0,0.0,0.0,0.0,0.0,0.0,0.0,0.0,0.0,0.0,0.0,0.0,0.0,0.0,0.0,0.0,0.0,0.0,0.0,0.0,0.0,0.0,0.0,0.0,0.0,0.0,0.0,0.0,0.0,0.0,7.3009,7.5486,7.4134,0.0,0.0,0.0,0.0,7.5227,7.6275,0.0,0.0,0.0,0.0,0.0,0.0,0.0,0.0,0.0,0.0,0.0,0.0,0.0,0.0,0.0,0.0,0.0,0.0,0.0,0.0,0.0,0.0,0.0,0.0,0.0,0.0,0.0,0.0,0.0,0.0,0.0,0.0,0.0,0.0,0.0,0.0,0.0,0.0,0.0,0.0,0.0,0.0,0.0,0.0,0.0,0.0,0.0,0.0,0.0,0.0,0.0,0.0,0.0,0.0,0.0,0.0,5.5569,5.943,6.2955,6.6271,6.9437,7.0303,6.8789,6.8643,6.7499,0.0,0.0,0.0,0.0,0.0,0.0,0.0,0.0,0.0,0.0,0.0,0.0,0.0,0.0,0.0,0.0,0.0,0.0,0.0,0.0,0.0,0.0,0.0,0.0,0.0,0.0,0.0,0.0,0.0,0.0,0.0,0.0,0.0,0.0,0.0,0.0,0.0,0.0,0.0,0.0,7.4491,7.4871,7.7061,0.0,0.0,0.0,0.0,0.0,0.0,7.6061,7.6775,0.0,0.0,0.0,0.0,0.0,0.0,0.0,0.0,0.0,0.0,0.0,0.0,0.0,0.0,0.0,0.0,0.0,0.0,0.0,0.0,0.0,0.0,0.0,0.0,0.0,0.0,0.0,0.0,0.0,0.0,0.0,0.0,0.0,0.0,0.0,0.0,0.0,0.0,0.0,0.0,0.0,0.0,0.0,0.0,0.0,0.0,0.0,0.0,0.0,0.0,0.0,0.0,0.0,0.0,0.0,5.5366,5.8922,6.2004,6.4656,6.8679,7.0096,6.8864,6.7841,6.6492,6.4438,0.0,0.0,0.0,0.0,0.0,0.0,0.0,0.0,0.0,0.0,0.0,0.0,0.0,0.0,0.0,0.0,0.0,0.0,0.0,0.0,0.0,0.0,0.0,0.0,0.0,0.0,0.0,0.0,0.0,0.0,0.0,0.0,0.0,0.0,0.0,0.0,0.0,0.0,0.0,7.7665,7.8128,0.0,0.0,0.0,0.0,0.0,0.0,0.0,0.0,7.6275,0.0,0.0,0.0,0.0,0.0,0.0,0.0,0.0,0.0,0.0,0.0,0.0,0.0,0.0,0.0,0.0,0.0,0.0,0.0,0.0,0.0,0.0,0.0,0.0,0.0,0.0,0.0,0.0,0.0,0.0,0.0,0.0,0.0,0.0,0.0,0.0,0.0,0.0,0.0,0.0,0.0,0.0,0.0,0.0,0.0,0.0,0.0,0.0,0.0,0.0,0.0,0.0,0.0,0.0,0.0,0.0,5.6593,6.0351,6.2756,6.7442,6.9256,6.7933,6.6879,6.544,6.3394,0.0,0.0,0.0,0.0,0.0,0.0,0.0,0.0,0.0,0.0,0.0,0.0,0.0,0.0,0.0,0.0,0.0,0.0,0.0,0.0,0.0,0.0,0.0,0.0,0.0,0.0,0.0,0.0,0.0,0.0,0.0,0.0,0.0,0.0,0.0,0.0,0.0,0.0,7.9004,8.007,0.0,0.0,0.0,0.0,0.0,0.0,0.0,0.0,7.5276,0.0,0.0,0.0,0.0,0.0,0.0,0.0,0.0,0.0,0.0,0.0,0.0,0.0,0.0,0.0,0.0,0.0,0.0,0.0,0.0,0.0,0.0,0.0,0.0,0.0,0.0,0.0,0.0,0.0,0.0,0.0,0.0,0.0,0.0,0.0,0.0,0.0,0.0,0.0,0.0,0.0,0.0,0.0,0.0,0.0,0.0,0.0,0.0,0.0,0.0,0.0,0.0,0.0,0.0,0.0,0.0,0.0,0.0,6.0197,6.3257,6.6704,6.8469,6.8334,6.4783,6.2192,0.0,0.0,0.0,0.0,0.0,0.0,0.0,0.0,0.0,0.0,0.0,0.0,0.0,0.0,0.0,0.0,0.0,0.0,0.0,0.0,0.0,0.0,0.0,0.0,0.0,0.0,0.0,0.0,0.0,0.0,0.0,0.0,0.0,0.0,0.0,0.0,0.0,0.0,0.0,0.0,0.0,0.0,0.0,0.0,0.0,0.0,0.0,0.0,0.0,0.0,0.0,0.0,0.0,0.0,0.0,0.0,0.0,0.0,0.0,0.0,0.0,0.0,0.0,0.0,0.0,0.0,0.0,0.0,0.0,0.0,0.0,0.0,0.0,0.0,0.0,0.0,0.0,0.0,0.0,0.0,0.0,0.0,0.0,0.0,0.0,0.0,0.0,0.0,0.0,0.0,0.0,0.0,0.0,0.0,0.0,0.0,0.0,0.0,0.0,0.0,0.0,0.0,0.0,0.0,0.0,0.0,0.0,0.0,5.9475,6.2744,6.4806,6.6416,6.7466,6.2892,5.9726,0.0,0.0,0.0,0.0,0.0,0.0,0.0,0.0,0.0,0.0,0.0,0.0,0.0,0.0,0.0,0.0,0.0,0.0,0.0,0.0,0.0,0.0,0.0,0.0,0.0,0.0,0.0,0.0,0.0,0.0,0.0,0.0,0.0,0.0,0.0,0.0,0.0,0.0,0.0,0.0,0.0,0.0,0.0,0.0,0.0,0.0,0.0,0.0,7.6561,0.0,0.0,0.0,0.0,0.0,0.0,0.0,0.0,0.0,0.0,0.0,0.0,0.0,0.0,0.0,0.0,0.0,0.0,0.0,0.0,0.0,0.0,0.0,0.0,0.0,0.0,0.0,0.0,0.0,0.0,0.0,0.0,0.0,0.0,0.0,0.0,0.0,0.0,0.0,0.0,0.0,0.0,0.0,0.0,0.0,0.0,0.0,0.0,0.0,0.0,0.0,0.0,0.0,0.0,0.0,0.0,0.0,0.0,0.0,5.6723,5.7846,5.983,6.1286,6.2173,6.1515,6.0512,0.0,0.0,0.0,0.0,0.0,0.0,0.0,0.0,0.0,0.0,0.0,0.0,0.0,0.0,0.0,0.0,0.0,0.0,0.0,0.0,0.0,0.0,0.0,0.0,0.0,0.0,0.0,0.0,0.0,0.0,0.0,0.0,0.0,0.0,0.0,0.0,0.0,0.0,0.0,0.0,0.0,0.0,0.0,0.0,0.0,0.0,0.0,0.0,0.0,0.0,0.0,0.0,0.0,0.0,0.0,0.0,0.0,0.0,0.0,0.0,0.0,0.0,0.0,0.0,0.0,0.0,0.0,0.0,0.0,0.0,0.0,0.0,0.0,0.0,0.0,0.0,0.0,0.0,0.0,0.0,0.0,0.0,0.0,0.0,0.0,0.0,0.0,0.0,0.0,0.0,0.0,0.0,0.0,0.0,0.0,0.0,0.0,0.0,0.0,0.0,0.0,0.0,0.0,0.0,0.0,0.0,0.0,0.0,5.6611,5.8682,5.9772,6.0255,6.0192,5.9323,5.8592,0.0,0.0,0.0,0.0,0.0,0.0,0.0,0.0,0.0,0.0,0.0,0.0,0.0,0.0,0.0,0.0,0.0,0.0,0.0,0.0,0.0,0.0,0.0,0.0,0.0,0.0,0.0,0.0,0.0,0.0,0.0,0.0,0.0,0.0,0.0,0.0,0.0,0.0,0.0,0.0,0.0,0.0,0.0,0.0,0.0,0.0,0.0,0.0,0.0,0.0,0.0,0.0,0.0,0.0,0.0,0.0,0.0,0.0,0.0,0.0,0.0,0.0,0.0,0.0,0.0,0.0,0.0,0.0,0.0,0.0,0.0,0.0,0.0,0.0,0.0,0.0,0.0,0.0,0.0,0.0,0.0,0.0,0.0,0.0,0.0,0.0,0.0,0.0,0.0,0.0,0.0,0.0,0.0,0.0,0.0,0.0,0.0,0.0,0.0,0.0,0.0,0.0,0.0,0.0,0.0,0.0,0.0,0.0,0.0,5.9265,6.0044,6.0092,5.923,5.7953,5.7181,0.0,0.0,0.0,0.0,0.0,0.0,0.0,0.0,0.0,0.0,0.0,0.0,0.0,0.0,0.0,0.0,0.0,0.0,0.0,0.0,0.0,0.0,0.0,0.0,0.0,0.0,0.0,0.0,0.0,0.0,0.0,0.0,0.0,0.0,0.0,0.0,0.0,0.0,0.0,0.0,0.0,0.0,0.0,0.0,0.0,0.0,0.0,0.0,0.0,0.0,0.0,0.0,0.0,0.0,0.0,0.0,0.0,0.0,0.0,0.0,0.0,0.0,0.0,0.0,0.0,0.0,0.0,0.0,0.0,0.0,0.0,0.0,0.0,0.0,0.0,0.0,0.0,0.0,0.0,0.0,0.0,0.0,0.0,0.0,0.0,0.0,0.0,0.0,0.0,0.0,0.0,0.0,0.0,0.0,0.0,0.0,0.0,0.0,0.0,0.0,0.0,0.0,0.0,0.0,0.0,0.0,0.0,0.0,0.0,5.7967,5.9663,6.0048,5.9322,5.808,5.7251,0.0,0.0,0.0,0.0,0.0,0.0,0.0,0.0,0.0,0.0,0.0,0.0,0.0,0.0,0.0,0.0,0.0,0.0,0.0,0.0,0.0,0.0,0.0,0.0,0.0,0.0,0.0,0.0,0.0,0.0,0.0,0.0,0.0,0.0,0.0,0.0,0.0,0.0,0.0,0.0,0.0,0.0,0.0,0.0,0.0,0.0,0.0,0.0,0.0,0.0,0.0,0.0,0.0,0.0,0.0,0.0,0.0,0.0,0.0,0.0,0.0,0.0,0.0,0.0,0.0,0.0,0.0,0.0,0.0,0.0,0.0,0.0,0.0,0.0,0.0,0.0,0.0,0.0,0.0,0.0,0.0,0.0,0.0,0.0,0.0,0.0,0.0,0.0,0.0,0.0,0.0,0.0,0.0,0.0,0.0,0.0,0.0,0.0,0.0,0.0,0.0,0.0,0.0,0.0,0.0,0.0,0.0,0.0,0.0,5.9595,5.9364,5.9705,6.0441,5.8474,5.7359,5.7283,0.0,0.0,0.0,0.0,0.0,0.0,0.0,0.0,0.0,0.0,0.0,0.0,0.0,0.0,0.0,0.0,0.0,0.0,0.0,0.0,0.0,0.0,0.0,0.0,0.0,0.0,0.0,0.0,0.0,0.0,0.0,0.0,0.0,0.0,0.0,0.0,0.0,0.0,0.0,0.0,0.0,0.0,0.0,0.0,0.0,0.0,0.0,0.0,0.0,0.0,0.0,0.0,0.0,0.0,0.0,0.0,0.0,0.0,0.0,0.0,0.0,0.0,0.0,0.0,0.0,0.0,0.0,0.0,0.0,0.0,0.0,0.0,0.0,0.0,0.0,0.0,0.0,0.0,0.0,0.0,0.0,0.0,0.0,0.0,0.0,0.0,0.0,0.0,0.0,0.0,0.0,0.0,0.0,0.0,0.0,0.0,0.0,0.0,0.0,0.0,0.0,0.0,0.0,0.0,0.0,0.0,0.0,0.0,6.1351,6.044,6.0341,6.1137,5.9895,5.8598,0.0,0.0,0.0,0.0,0.0,0.0,0.0,0.0,0.0,0.0,0.0,0.0,0.0,0.0,0.0,0.0,0.0,0.0,0.0,0.0,0.0,0.0,0.0,0.0,0.0,0.0,0.0,0.0,0.0,0.0,0.0,0.0,0.0,0.0,0.0,0.0,0.0,0.0,0.0,0.0,0.0,0.0,0.0,0.0,0.0,0.0,0.0,0.0,0.0,0.0,0.0,0.0,0.0,0.0,0.0,0.0,0.0,0.0,0.0,0.0,0.0,0.0,0.0,0.0,0.0,0.0,0.0,0.0,0.0,0.0,0.0,0.0,0.0,0.0,0.0,0.0,0.0,0.0,0.0,0.0,0.0,0.0,0.0,0.0,0.0,0.0,0.0,0.0,0.0,0.0,0.0,0.0,0.0,0.0,0.0,0.0,0.0,0.0,0.0,0.0,0.0,0.0,0.0,0.0,0.0,0.0,0.0,0.0,6.1776,6.2937,6.2937,6.2415,6.1311,6.2238,6.1211,0.0,0.0,0.0,0.0,0.0,0.0,0.0,0.0,0.0,0.0,0.0,0.0,0.0,0.0,0.0,0.0,0.0,0.0,0.0,0.0,0.0,0.0,0.0,0.0,0.0,0.0,0.0,0.0,0.0,0.0,0.0,0.0,0.0,0.0,0.0,0.0,0.0,0.0,0.0,0.0,0.0,0.0,0.0,0.0,0.0,0.0,0.0,0.0,0.0,0.0,0.0,0.0,0.0,0.0,0.0,0.0,0.0,0.0,0.0,0.0,0.0,0.0,0.0,0.0,0.0,0.0,0.0,0.0,0.0,0.0,0.0,0.0,0.0,0.0,0.0,0.0,0.0,0.0,0.0,0.0,0.0,0.0,0.0,0.0,0.0,0.0,0.0,0.0,0.0,0.0,0.0,0.0,0.0,0.0,0.0,0.0,0.0,0.0,0.0,0.0,0.0,0.0,0.0,0.0,0.0,0.0,0.0,0.0,0.0,5.933,0.0,6.2064,0.0,6.1424,5.9605,0.0,0.0,0.0,0.0,0.0,0.0,0.0,0.0,0.0,0.0,0.0,0.0,0.0,0.0,0.0,0.0,0.0,0.0,0.0,0.0,0.0,0.0,0.0,0.0,0.0,0.0,0.0,0.0,0.0,0.0,0.0,0.0,0.0,0.0,0.0,0.0,0.0,0.0,0.0,0.0,0.0,0.0,0.0,0.0,0.0,0.0,0.0,0.0,0.0,0.0,0.0,0.0,0.0,0.0,0.0,0.0,0.0,0.0,0.0,0.0,0.0,0.0,0.0,0.0,0.0,0.0,0.0,0.0,0.0,0.0,0.0,0.0,0.0,0.0,0.0,0.0,0.0,0.0,0.0,0.0,0.0,0.0,0.0,0.0,0.0,0.0,0.0,0.0,0.0,0.0,0.0,0.0,0.0,0.0,0.0,0.0,0.0,0.0,0.0,0.0,0.0,0.0,0.0,0.0,0.0,0.0,0.0,0.0,0.0,5.8846,5.908,6.1133,6.4681,6.2413,6.0377,0.0,0.0,0.0,0.0,0.0,0.0,0.0,0.0,0.0,0.0,0.0,0.0,0.0,0.0,0.0,0.0,0.0,0.0,0.0,0.0,0.0,0.0,0.0,0.0,0.0,0.0,0.0,0.0,0.0,0.0,0.0,0.0,0.0,0.0,0.0,0.0,0.0,0.0,0.0,0.0,0.0,0.0,0.0,0.0,0.0,0.0,0.0,0.0,0.0,0.0,0.0,0.0,0.0,0.0,0.0,0.0,0.0,0.0,0.0,0.0,0.0,0.0,0.0,0.0,0.0,0.0,0.0,0.0,0.0,0.0,0.0,0.0,0.0,0.0,0.0,0.0,0.0,0.0,0.0,0.0,0.0,0.0,0.0,0.0,0.0,0.0,0.0,0.0,0.0,0.0,0.0,0.0,0.0,0.0,0.0,0.0,0.0,0.0,0.0,0.0,0.0,0.0,0.0,0.0,0.0,0.0,0.0,0.0,0.0,6.0741,5.9907,6.008,6.125,6.474,6.3227,0.0,0.0,0.0,0.0,0.0,0.0,0.0,0.0,0.0,0.0,0.0,0.0,0.0,0.0,0.0,0.0,0.0,0.0,0.0,0.0,0.0,0.0,0.0,0.0,0.0,0.0,0.0,0.0,0.0,0.0,0.0,0.0,0.0,0.0,0.0,0.0,0.0,0.0,0.0,0.0,0.0,0.0,0.0,0.0,0.0,0.0,0.0,0.0,0.0,0.0,0.0,0.0,0.0,0.0,0.0,0.0,0.0,0.0,0.0,0.0,0.0,0.0,0.0,0.0,0.0,0.0,0.0,0.0,0.0,0.0,0.0,0.0,0.0,0.0,0.0,0.0,0.0,0.0,0.0,0.0,0.0,0.0,0.0,0.0,0.0,0.0,0.0,0.0,0.0,0.0,0.0,0.0,0.0,0.0,0.0,0.0,0.0,0.0,0.0,0.0,0.0,0.0,0.0,0.0,0.0,0.0,0.0,0.0,0.0,0.0,6.0681,6.173,6.1088,6.1227,6.0435,5.8341,0.0,0.0,0.0,0.0,0.0,0.0,0.0,0.0,0.0,0.0,0.0,0.0,0.0,0.0,0.0,0.0,0.0,0.0,0.0,0.0,0.0,0.0,0.0,0.0,0.0,0.0,0.0,0.0,0.0,0.0,0.0,0.0,0.0,0.0,0.0,0.0,0.0,0.0,0.0,0.0,0.0,0.0,0.0,0.0,0.0,0.0,0.0,0.0,0.0,0.0,0.0,0.0,0.0,0.0,0.0,0.0,0.0,0.0,0.0,0.0,0.0,0.0,0.0,0.0,0.0,0.0,0.0,0.0,0.0,0.0,0.0,0.0,0.0,0.0,0.0,0.0,0.0,0.0,0.0,0.0,0.0,0.0,0.0,0.0,0.0,0.0,0.0,0.0,0.0,0.0,0.0,0.0,0.0,0.0,0.0,0.0,0.0,0.0,0.0,0.0,0.0,0.0,0.0,0.0,0.0,0.0,0.0,0.0,0.0,0.0,6.2157,6.2004,6.0791,5.8918,0.0,0.0,0.0,0.0,0.0,0.0,0.0,0.0,0.0,0.0,0.0,0.0,0.0,0.0,0.0,0.0,0.0,0.0,0.0,0.0,0.0,0.0,0.0,0.0,0.0,0.0,0.0,0.0,0.0,0.0,0.0,0.0,0.0,0.0,0.0,0.0,0.0,0.0,0.0,0.0,0.0,0.0,0.0,0.0,0.0,0.0,0.0,0.0,0.0,0.0,0.0,0.0,0.0,0.0,0.0,0.0,0.0,0.0,0.0,0.0,0.0,0.0,0.0,0.0,0.0,0.0,0.0,0.0,0.0,0.0,0.0,0.0,0.0,0.0,0.0,0.0,0.0,0.0,0.0,0.0,0.0,0.0,0.0,0.0,0.0,0.0,0.0,0.0,0.0,0.0,0.0,0.0,0.0,0.0,0.0,0.0,0.0,0.0,0.0,0.0,0.0,0.0,0.0,0.0,0.0,0.0,0.0,0.0,0.0,0.0,0.0,6.2373,6.3673,6.2393,0.0,5.3493,0.0,0.0,0.0,0.0,0.0,0.0,0.0,0.0,0.0,0.0,0.0,0.0,0.0,0.0,0.0,0.0,0.0,0.0,0.0,0.0,0.0,0.0,0.0,0.0,0.0,0.0,0.0,0.0,0.0,0.0,0.0,0.0,0.0,0.0,0.0,0.0,0.0,0.0,0.0,0.0,0.0,0.0,0.0,0.0,0.0,0.0,0.0,0.0,0.0,0.0,0.0,0.0,0.0,0.0,0.0,0.0,0.0,0.0,0.0,0.0,0.0,0.0,0.0,0.0,0.0,0.0,0.0,0.0,0.0,0.0,0.0,0.0,0.0,0.0,0.0,0.0,0.0,0.0,0.0,0.0,0.0,0.0,0.0,0.0,0.0,0.0,0.0,0.0,0.0,0.0,0.0,0.0,0.0,0.0,0.0,0.0,0.0,0.0,0.0,0.0,0.0,0.0,0.0,0.0,0.0,0.0,0.0,0.0,0.0,0.0,0.0,0.0,6.497,6.31,6.0732,0.0,0.0,0.0,0.0,0.0,0.0,0.0,0.0,0.0,0.0,0.0,0.0,0.0,0.0,0.0,0.0,0.0,0.0,0.0,0.0,0.0,0.0,0.0,0.0,0.0,0.0,0.0,0.0,0.0,0.0,0.0,0.0,0.0,0.0,0.0,0.0,0.0,0.0,0.0,0.0,0.0,0.0,0.0,0.0,0.0,0.0,0.0,0.0,0.0,0.0,0.0,0.0,0.0,0.0,0.0,0.0,0.0,0.0,0.0,0.0,0.0,0.0,0.0,0.0,0.0,0.0,0.0,0.0,0.0,0.0,0.0,0.0,0.0,0.0,0.0,0.0,0.0,0.0,0.0,0.0,0.0,0.0,0.0,0.0,0.0,0.0,0.0,0.0,0.0,0.0,0.0,0.0,0.0,0.0,0.0,0.0,0.0,0.0,0.0,0.0,0.0,0.0,0.0,0.0,0.0,0.0,0.0,0.0,0.0,0.0,6.706,6.699,6.5303,6.3596,6.2198,0.0,0.0,0.0,0.0,0.0,0.0,0.0,0.0,0.0,0.0,0.0,0.0,0.0,0.0,0.0,0.0,0.0,0.0,0.0,0.0,0.0,0.0,0.0,0.0,0.0,0.0,0.0,0.0,0.0,0.0,0.0,0.0,0.0,0.0,0.0,0.0,0.0,0.0,0.0,0.0,0.0,0.0,0.0,0.0,0.0,0.0,0.0,0.0,0.0,0.0,0.0,0.0,0.0,0.0,0.0,0.0,0.0,0.0,0.0,0.0,0.0,0.0,0.0,0.0,0.0,0.0,0.0,0.0,0.0,0.0,0.0,0.0,0.0,0.0,0.0,0.0,0.0,0.0,0.0,0.0,0.0,0.0,0.0,0.0,0.0,0.0,0.0,0.0,0.0,0.0,0.0,0.0,0.0,0.0,0.0,0.0,0.0,0.0,0.0,0.0,0.0,0.0,0.0,0.0,0.0,0.0,0.0,0.0,0.0,0.0,0.0,0.0,0.0,0.0,6.1235,0.0,0.0,0.0,0.0,0.0,0.0,0.0,0.0,0.0,0.0,0.0,0.0,0.0,0.0,0.0,0.0,0.0,0.0,0.0,0.0,0.0,0.0,0.0,0.0,0.0,0.0,0.0,0.0,0.0,0.0,0.0,0.0,0.0,0.0,0.0,0.0,0.0,0.0,0.0,0.0,0.0,0.0,0.0,0.0,0.0,0.0,0.0,0.0,0.0,0.0,0.0,0.0,0.0,0.0,0.0,0.0,0.0,0.0,0.0,0.0,0.0,0.0,0.0,0.0,0.0,0.0,0.0,0.0,0.0,0.0,0.0,0.0,0.0,0.0,0.0,0.0,0.0,0.0,0.0,0.0,0.0,0.0,0.0,0.0,0.0,0.0,0.0,0.0,0.0,0.0,0.0,0.0,0.0,0.0,0.0,0.0,0.0,0.0,0.0,0.0,0.0,0.0,0.0,0.0,0.0,0.0,0.0,0.0,0.0,0.0,0.0,0.0,0.0,0.0,0.0,0.0,0.0,0.0,0.0,0.0,0.0,0.0,0.0,0.0,0.0,0.0,0.0,0.0,0.0,0.0,0.0,0.0,0.0,0.0,0.0,0.0,0.0,0.0,0.0,0.0,0.0,0.0,0.0,0.0,0.0,0.0,0.0,0.0,0.0,0.0,0.0,0.0,0.0,0.0,0.0,0.0,0.0,0.0,0.0,0.0,0.0,0.0,0.0,0.0,0.0,0.0,0.0,0.0,0.0,0.0,0.0,0.0,0.0,0.0,0.0,0.0,0.0,0.0,0.0,0.0,0.0,0.0,0.0,0.0,0.0,0.0,0.0,0.0,0.0,0.0,0.0,0.0,0.0,0.0,0.0,0.0,0.0,0.0,0.0,0.0,0.0,0.0,0.0,0.0,0.0,0.0,0.0,0.0,0.0,0.0,0.0,0.0,0.0,0.0,0.0,0.0,0.0,0.0,0.0,0.0,0.0,0.0,0.0,0.0,0.0,0.0,0.0,0.0,0.0,0.0,0.0,0.0,0.0,0.0,0.0,0.0,0.0,0.0,0.0,0.0,0.0,0.0,0.0,0.0,0.0,0.0,0.0,0.0,0.0,0.0,0.0,0.0,0.0,0.0,0.0,0.0,0.0,0.0,0.0,0.0,0.0,0.0,0.0,0.0,0.0,0.0,0.0,0.0,0.0,0.0,0.0,0.0,0.0,0.0,0.0,0.0,0.0,0.0,0.0,0.0,0.0,0.0,0.0,0.0,0.0,0.0,0.0,0.0,0.0,0.0,0.0,0.0,0.0,0.0,0.0,0.0,0.0,0.0,0.0,0.0,0.0,0.0,0.0,0.0,0.0,0.0,0.0,0.0,0.0,0.0,0.0,0.0,0.0,0.0,0.0,0.0,0.0,0.0,0.0,0.0,0.0,0.0,0.0,0.0,0.0,0.0,0.0,0.0,0.0,0.0,0.0,0.0,0.0,0.0,0.0,0.0,0.0,0.0,0.0,0.0,0.0,0.0,0.0,0.0,0.0,0.0,0.0,0.0,0.0,0.0,0.0,0.0,0.0,0.0,0.0,0.0,0.0,0.0,0.0,0.0,0.0,0.0,0.0,0.0,0.0,0.0,0.0,0.0,0.0,0.0,0.0,0.0,0.0,0.0,0.0,0.0,0.0,0.0,0.0,0.0,0.0,0.0,0.0,0.0,0.0,0.0,0.0,0.0,0.0,0.0,0.0,0.0,0.0,0.0,0.0,0.0,0.0,0.0,0.0,0.0,0.0,0.0,0.0,0.0,0.0,0.0,0.0,0.0,0.0,0.0,0.0,0.0,0.0,0.0,0.0,0.0,0.0,0.0,0.0,0.0,0.0,0.0,0.0,0.0,0.0,0.0,0.0,0.0,0.0,0.0,0.0,0.0,0.0,0.0,0.0,0.0,0.0,0.0,0.0,0.0,0.0,0.0,0.0,0.0,0.0,0.0,0.0,0.0,0.0,0.0,0.0,0.0,0.0,0.0,0.0,0.0,0.0,0.0,0.0,0.0,0.0,0.0,0.0,0.0,0.0,0.0,0.0,0.0,0.0,0.0,0.0,0.0,0.0,0.0,0.0,0.0,0.0,0.0,0.0,0.0,0.0,0.0,0.0,0.0,0.0,0.0,0.0,0.0,0.0,0.0,0.0,0.0,0.0,0.0,0.0,0.0,0.0,0.0,0.0,0.0,0.0,0.0,0.0,0.0,0.0,0.0,0.0,0.0,0.0,0.0,0.0,0.0,0.0,0.0,0.0,0.0,0.0,0.0,0.0,0.0,0.0,0.0,0.0,0.0,0.0,0.0,0.0,0.0,0.0,0.0,0.0,0.0,0.0,0.0,0.0,0.0,0.0,0.0,0.0,0.0,0.0,0.0,0.0,0.0,0.0,0.0,0.0,0.0,0.0,0.0,0.0,0.0,0.0,0.0,0.0,0.0,0.0,0.0,0.0,0.0,0.0,0.0,0.0,0.0,0.0,0.0,0.0,0.0,0.0,0.0,0.0,0.0,0.0,0.0,0.0,0.0,0.0,0.0,0.0,0.0,0.0,0.0,0.0,0.0,0.0,0.0,0.0,0.0,0.0,0.0,0.0,0.0,0.0,0.0,0.0,0.0,0.0,0.0,0.0,0.0,0.0,0.0,0.0,0.0,0.0,0.0,0.0,0.0,0.0,0.0,0.0,0.0,0.0,0.0,0.0,0.0,0.0,0.0,0.0,0.0,0.0,0.0,0.0,0.0,0.0,0.0,0.0,0.0,0.0,0.0,0.0,0.0,0.0,0.0,0.0,0.0,0.0,0.0,0.0,0.0,0.0,0.0,0.0,0.0,0.0,0.0,0.0,0.0,0.0,0.0,0.0,0.0,0.0,0.0,0.0,0.0,0.0,0.0,0.0,0.0,0.0,0.0,0.0,0.0,0.0,0.0,0.0,0.0,0.0,0.0,0.0,0.0,0.0,0.0,0.0,0.0,0.0,0.0,0.0,0.0,0.0,0.0,0.0,0.0,0.0,0.0,0.0,0.0,0.0,0.0,0.0,0.0,0.0,0.0,0.0,0.0,0.0,0.0,0.0,0.0,0.0,0.0,0.0,0.0,0.0,0.0,0.0,0.0,0.0,0.0,0.0,0.0,0.0,0.0,0.0,0.0,0.0,0.0,0.0,0.0,0.0,0.0,0.0,0.0,0.0,0.0,0.0,0.0,0.0,0.0,0.0,0.0,0.0,0.0,0.0,0.0,0.0,0.0,0.0,0.0,0.0,0.0,0.0,0.0,0.0,0.0,0.0,0.0,0.0,0.0,0.0,0.0,0.0,0.0,0.0,0.0,0.0,0.0,0.0,0.0,0.0,0.0,0.0,0.0,0.0,0.0,0.0,0.0,0.0,0.0,0.0,0.0,0.0,0.0,0.0,0.0,0.0,0.0,0.0,0.0,0.0,0.0,0.0,0.0,0.0,0.0,0.0,0.0,0.0,0.0,0.0,0.0,0.0,0.0,0.0,0.0,0.0,0.0,0.0,0.0,0.0,0.0,0.0,0.0,0.0,0.0,0.0,0.0,0.0,0.0,0.0,0.0,0.0,0.0,0.0,0.0,0.0,0.0,0.0,0.0,0.0,0.0,0.0,0.0,0.0,0.0,0.0,0.0,0.0,0.0,0.0,0.0,0.0,0.0,0.0,0.0,0.0,0.0,0.0,0.0,0.0,0.0,0.0,0.0,0.0,0.0,0.0,0.0,0.0,0.0,0.0,0.0,0.0,0.0,0.0,0.0,0.0,0.0,0.0,0.0,0.0,0.0,0.0,0.0,0.0,0.0,0.0,0.0,0.0,0.0,0.0,0.0,0.0,0.0,0.0,0.0,0.0,0.0,0.0,0.0,0.0,0.0,0.0,0.0,0.0,0.0,0.0,0.0,0.0,0.0,0.0,0.0,0.0,0.0,0.0,0.0,0.0,0.0,0.0,0.0,0.0,0.0,0.0,0.0,0.0,0.0,0.0,0.0,0.0,0.0,0.0,0.0,0.0,0.0,0.0,0.0,0.0,0.0,0.0,0.0,0.0,0.0,0.0,0.0,0.0,0.0,0.0,0.0,0.0,0.0,0.0,0.0,0.0,0.0,0.0,0.0,0.0,0.0,0.0,0.0,0.0,0.0,0.0,0.0,0.0,0.0,0.0,0.0,0.0,0.0,0.0,0.0,0.0,0.0,0.0,0.0,0.0,0.0,0.0,0.0,0.0,0.0,0.0,0.0,0.0,0.0,0.0,0.0,0.0,0.0,0.0,0.0,0.0,0.0,0.0,0.0,0.0,0.0,0.0,0.0,0.0,0.0,0.0,0.0,0.0,0.0,0.0,0.0]}],[{"header":{"parameterUnit":"kt","parameterCategory":2,"dx":1,"dy":1,"la1":29.587661999999998,"la2":31.0,"lo1":-88.76705300000003,"lo2":-86.6583820000003,"nx":115,"ny":88,"refTime":"2022-09-19T12:00:00:Z","depth":0,"parameterNumber":2,"parameterNumberName":"V-component_of_WINDS"},"data":[7.3417,7.1406,7.1102,7.1162,7.1454,7.2235,7.2577,7.2723,7.3456,7.4238,7.531,7.5406,7.5942,7.7165,7.7165,7.7165,7.7165,7.7165,7.7165,7.7165,7.7165,7.7165,7.7165,7.7165,7.7165,7.7165,7.7165,7.7165,7.7165,7.7165,7.7165,7.7165,7.7165,7.7365,7.7516,7.8658,8.1039,8.345,8.5846,8.8228,9.0257,9.0769,9.1165,9.1561,9.1729,9.1729,9.1903,9.1962,9.1962,9.1962,9.1962,9.1962,9.1793,9.1624,9.1397,9.1512,9.1512,9.1682,9.1342,9.0028,8.8524,8.8052,8.5299,8.1994,8.0124,7.8806,7.8263,7.7915,7.7365,7.7365,7.7165,7.7165,7.7165,7.7165,7.7165,7.7165,7.7165,7.7165,7.7165,7.7165,7.7165,7.7165,7.7165,7.7165,7.7165,7.7165,7.7165,7.7165,7.7165,7.7165,7.7165,7.7165,7.7165,7.7165,7.7116,7.7067,7.6579,7.6628,7.6579,7.5994,7.5896,7.6482,7.3928,6.8926,6.6318,6.4627,6.1684,5.8239,5.7708,5.7328,5.729,5.7176,5.6948,5.6721,5.6455,7.57,7.357,7.2577,7.2577,7.3456,7.3651,7.37,7.4038,7.5642,7.6235,7.5897,7.653,7.6921,7.7116,7.7165,7.7165,7.7165,7.7165,7.7165,7.7165,7.7165,7.7165,7.7165,7.7165,7.7165,7.7165,7.7165,7.7165,7.7165,7.7165,7.7165,7.7165,7.7165,7.7116,7.7165,7.7866,7.9048,8.1544,8.3902,8.6334,8.6964,8.7625,8.9229,9.0361,9.1089,9.0973,9.1613,9.1903,9.1903,9.1787,9.1554,9.1554,9.1613,9.1845,9.1903,9.1962,9.1962,9.1962,9.1793,9.1227,9.0085,8.8404,8.5664,8.3263,8.1039,7.9735,7.9395,7.8658,7.7716,7.7316,7.7165,7.7165,7.7165,7.7165,7.7165,7.7165,7.7165,7.7165,7.7165,7.7165,7.7165,7.7165,7.7165,7.7165,7.7165,7.7165,7.7165,7.7165,7.7165,7.7165,7.6774,7.6579,7.6335,7.6579,7.6872,7.6433,7.5652,7.5652,7.5457,7.4773,7.4432,7.492,7.3152,6.8267,6.4999,6.3073,6.0414,5.7608,5.6873,5.6493,5.6417,5.6265,5.6113,5.5961,5.5696,7.7062,7.4845,7.3615,7.3456,7.3944,7.4578,7.4822,7.5212,7.6486,7.6978,7.653,7.6921,7.7165,7.7165,7.7165,7.7165,7.7165,7.7165,7.7165,7.7165,7.7165,7.7165,7.7165,7.7165,7.7067,7.7165,7.7165,7.7067,7.7165,7.7116,7.7019,7.7116,7.6472,7.618,7.6189,7.6192,7.7407,7.9923,8.2091,8.2628,8.1588,8.427,8.673,8.7519,8.8463,8.9286,8.9693,8.9751,8.9809,8.9809,8.9926,9.0158,9.0856,9.138,9.1787,9.1845,9.1787,9.1962,9.1962,9.1793,9.1397,9.0085,8.8052,8.6208,8.3823,8.2196,8.163,7.9718,7.8797,7.7273,7.7124,7.6774,7.6774,7.6774,7.6774,7.6774,7.6774,7.6774,7.6774,7.6774,7.6774,7.6774,7.6726,7.6726,7.6823,7.6823,7.7067,7.7116,7.7165,7.7165,7.6286,7.5701,7.5115,7.5164,7.5603,7.5261,7.4676,7.4481,7.4334,7.3895,7.3651,7.3508,7.2302,6.8265,6.4684,6.2075,5.9544,5.6921,5.5809,5.5772,5.562,5.543,5.5316,5.5202,5.373,7.9102,7.6824,7.5598,7.4961,7.4773,7.5603,7.5945,7.6042,7.6823,7.7116,7.7165,7.7165,7.7165,7.7165,7.7165,7.7165,7.7165,7.7165,7.7165,7.7165,7.7165,7.7165,7.7165,7.6726,7.6628,7.6677,7.6482,7.6091,7.5994,7.5844,7.599,7.6238,7.6091,7.5406,7.5115,7.4968,7.5593,7.7231,7.876,7.8519,7.8769,8.1549,8.4197,8.543,8.6524,8.7613,8.8297,8.8239,8.8123,8.8006,8.8006,8.853,8.946,9.0391,9.0915,9.1031,9.074,9.0915,9.1089,9.1264,9.0823,9.0028,8.9336,8.8228,8.7064,8.5372,8.3651,8.162,7.9732,7.8245,7.6929,7.6535,7.6189,7.6189,7.6189,7.6189,7.6189,7.6189,7.6238,7.6238,7.6238,7.6189,7.614,7.6238,7.6384,7.6384,7.6433,7.6433,7.6238,7.5994,7.4969,7.4627,7.4041,7.3846,7.3992,7.3895,7.3602,7.3407,7.2967,7.2967,7.2967,7.2058,7.0722,6.7178,6.4026,6.0835,5.8162,5.5865,5.5126,5.5164,5.5012,5.4708,5.4557,5.3281,5.1314,8.2831,8.0382,7.9283,7.7885,7.6974,7.6774,7.6872,7.7067,7.6872,7.7116,7.7019,7.7067,7.6921,7.6677,7.6677,7.6726,7.6628,7.6628,7.6579,7.7067,7.6726,7.6677,7.6384,7.5893,7.5701,7.531,7.5017,7.4822,7.4141,7.4238,7.4384,7.4139,7.4576,7.4576,7.3992,7.3842,7.3886,7.4694,7.4873,7.5284,7.6925,7.8875,8.1049,8.3806,8.5404,8.6668,8.7541,8.7948,8.8006,8.8006,8.7948,8.7832,8.8181,8.853,8.8588,8.8646,8.8937,8.9402,8.9984,9.0158,8.9621,8.9057,8.8404,8.7429,8.6648,8.5457,8.4085,8.2327,8.0126,7.8504,7.6516,7.5795,7.5212,7.5017,7.5017,7.5017,7.5017,7.5017,7.5017,7.5017,7.5017,7.4969,7.4969,7.5115,7.5213,7.4578,7.4481,7.4529,7.4383,7.4188,7.3797,7.37,7.3309,7.3114,7.3065,7.2723,7.2479,7.204,7.1454,7.1308,7.1357,7.037,6.8962,6.6314,6.3476,6.0034,5.6676,5.5495,5.4481,5.4443,5.4177,5.3949,5.2646,5.0875,4.9051,8.2744,8.1836,8.0648,7.9127,7.7292,7.6437,7.668,7.6858,7.5358,7.4822,7.5213,7.5848,7.5555,7.5506,7.531,7.531,7.531,7.5408,7.5359,7.5457,7.5652,7.5604,7.5457,7.5017,7.4821,7.4481,7.409,7.3602,7.3944,7.3605,7.3459,7.37,7.3402,7.3304,7.2723,7.2284,7.204,7.1796,7.1836,7.2392,7.3527,7.5177,7.741,7.985,8.2066,8.3839,8.5249,8.5621,8.568,8.5738,8.5738,8.6029,8.6843,8.6959,8.7017,8.7832,8.7832,8.8239,8.8646,8.8821,8.8562,8.8298,8.8079,8.7408,8.6671,8.5714,8.442,8.2612,8.0506,7.8456,7.6534,7.4752,7.4371,7.3797,7.3797,7.3797,7.3797,7.3797,7.3748,7.3748,7.37,7.37,7.3748,7.3895,7.3846,7.3602,7.3504,7.3309,7.2967,7.2431,7.204,7.1943,7.1943,7.1943,7.1796,7.1454,7.1259,7.0918,7.0234,6.9795,6.9649,6.8959,6.8354,6.6008,6.3029,5.8688,5.4501,5.3772,5.3759,5.338,5.3076,5.2772,5.1722,4.9149,4.6771,8.3578,8.2912,8.1985,8.0435,7.843,7.7481,7.7327,7.7599,7.6044,7.5448,7.5836,7.5759,7.5769,7.4802,7.4229,7.3944,7.3944,7.3846,7.3846,7.3654,7.3849,7.3751,7.3797,7.3651,7.3504,7.3309,7.3065,7.2675,7.287,7.2821,7.2772,7.2919,7.2138,7.2129,7.1357,7.0478,6.999,6.9697,6.9697,6.9878,7.055,7.2175,7.3742,7.6122,7.8322,8.0353,8.1931,8.2662,8.3178,8.3353,8.3527,8.3993,8.5098,8.5447,8.5796,8.6843,8.6959,8.7192,8.7425,8.7483,8.7613,8.8019,8.7206,8.7192,8.6959,8.6088,8.5224,8.2689,8.038,7.7835,7.5508,7.3826,7.257,7.2382,7.2382,7.2382,7.2333,7.2333,7.2382,7.2382,7.2382,7.2382,7.2431,7.2528,7.2382,7.2772,7.2723,7.2138,7.1552,7.0381,6.9844,6.9795,6.9795,6.9795,6.9746,6.999,6.9941,6.9795,6.916,6.8624,6.8526,6.8056,6.7745,6.5873,6.2825,5.8469,5.3537,5.2819,5.3038,5.262,5.2051,5.1633,5.0596,4.7128,4.4397,8.6368,8.4421,8.4308,8.2776,8.0713,8.052,8.0023,7.9183,7.9848,7.9866,7.9973,7.7754,7.6969,7.6568,7.4983,7.4174,7.3886,7.3886,7.3695,7.3216,7.2251,7.2733,7.2587,7.2102,7.2096,7.1943,7.1552,7.1113,7.0869,7.082,7.0771,7.0722,7.0527,7.0478,6.9941,6.9063,6.8282,6.8233,6.8233,6.8282,6.8813,7.0159,7.1798,7.3754,7.6032,7.8139,7.9428,8.0337,8.0878,8.1259,8.1782,8.2248,8.2829,8.3644,8.4051,8.4342,8.4342,8.504,8.568,8.5854,8.6319,8.6203,8.5331,8.4691,8.4458,8.4535,8.4141,8.2328,8.0139,7.7395,7.4706,7.3034,7.1322,7.1138,7.1138,7.082,7.0771,7.082,7.082,7.082,7.0771,7.0771,7.0771,7.0771,7.0576,7.0771,7.0674,7.0234,6.9697,6.8526,6.8526,6.8428,6.8233,6.794,6.794,6.8331,6.838,6.8672,6.8038,6.755,6.7277,6.7131,6.6024,6.4379,6.1922,5.8777,5.446,5.2643,5.2324,5.1747,5.1102,5.0379,4.864,4.5162,4.2139,8.5034,8.4342,8.4183,8.2942,8.13,8.2414,8.1924,8.0305,7.9009,7.854,7.854,7.7902,7.7606,7.7256,7.65,7.5791,7.4042,7.4042,7.3728,7.1747,7.1082,7.1415,7.1601,7.1074,7.1064,7.0869,7.0283,6.9649,6.9649,6.8965,6.877,6.877,6.8575,6.8721,6.8428,6.8038,6.7306,6.7257,6.7208,6.7257,6.7954,6.9111,7.1089,7.3016,7.5103,7.7548,7.9082,8.0001,8.0503,8.0619,8.0852,8.1084,8.1143,8.1492,8.1666,8.1782,8.1841,8.248,8.3353,8.3702,8.3527,8.3644,8.2422,8.219,8.2829,8.2946,8.2682,8.2078,8.0215,7.8542,7.6904,7.2314,7.1161,7.0291,6.9991,6.89,6.8721,6.8819,6.8819,6.8672,6.8672,6.8624,6.8575,6.8721,6.8819,6.8721,6.8575,6.8282,6.7891,6.7794,6.7843,6.7745,6.7647,6.7355,6.7208,6.7111,6.7111,6.7403,6.7013,6.6476,6.6206,6.4875,6.3703,6.2455,5.9266,5.6284,5.3581,5.1984,5.1181,5.0494,5.0001,4.8308,4.6231,4.3489,4.034,8.3237,8.3586,8.3586,8.2527,8.1138,8.2277,8.2124,8.0612,7.9344,7.8539,7.8539,7.8162,7.794,7.7825,7.7484,7.6668,7.5405,7.5127,7.3665,7.1864,7.2904,7.1784,7.0387,7.0157,7.0387,6.9634,6.9063,6.8575,6.8575,6.8136,6.7647,6.7501,6.7745,6.7159,6.6574,6.6427,6.6427,6.6427,6.6427,6.6378,6.6551,6.7599,6.9344,7.1418,7.3222,7.5385,7.724,7.8324,7.8816,7.8874,7.9572,7.9747,7.9805,8.0561,8.0619,8.0561,8.0561,8.091,8.1375,8.1291,8.0794,8.0852,8.0735,8.1084,8.1492,8.1666,8.2073,8.191,7.9493,7.8386,7.7904,7.3821,7.136,7.0587,6.9572,6.8423,6.7432,6.7432,6.7257,6.7208,6.7501,6.7696,6.7794,6.8136,6.7452,6.7062,6.6525,6.6183,6.5914,6.6108,6.6206,6.6206,6.6254,6.6378,6.633,6.589,6.5842,6.567,6.5378,6.4697,6.365,6.2427,6.1235,5.9749,5.6598,5.3465,5.2636,5.1857,5.0451,4.9241,4.8672,4.7444,4.5176,4.2199,3.8921,8.1349,8.2248,8.2306,8.1608,8.0587,8.0503,8.0619,8.0555,8.029,8.0141,8.0014,7.938,7.8991,7.8898,7.8379,7.7666,7.7054,7.6994,7.5322,7.3087,7.3551,7.2271,7.0266,6.9137,6.9384,6.7921,6.7452,6.7452,6.7452,6.7013,6.7062,6.7062,6.6281,6.5695,6.4377,6.4231,6.4231,6.4231,6.4231,6.4231,6.4398,6.4847,6.6387,6.8365,7.0489,7.2506,7.4525,7.5926,7.6407,7.6606,7.7362,7.7827,7.806,7.9049,7.963,7.9863,7.9979,8.0096,8.0359,7.931,7.931,7.9776,7.9456,7.9921,8.027,8.0445,8.0619,8.1201,7.901,7.7661,7.6468,7.489,7.2698,7.1285,7.024,6.9067,6.7656,6.719,6.6698,6.6427,6.6964,6.7355,6.7355,6.7062,6.6037,6.494,6.4475,6.4015,6.3799,6.3848,6.3848,6.3848,6.3848,6.368,6.3344,6.3848,6.3945,6.3848,6.3151,6.1563,6.0355,5.8925,5.7802,5.7056,5.4524,5.1805,5.1432,5.1495,4.9598,4.7989,4.7419,4.6297,4.3946,4.1241,3.8018,8.1728,8.1116,8.1026,8.0794,8.0503,8.0445,8.0445,8.0445,8.0533,8.0445,8.0503,8.0232,8.0014,7.9921,7.956,7.89,7.7698,7.7005,7.4682,7.3248,7.2395,7.0381,6.8622,6.7999,6.8424,6.7578,6.6915,6.6378,6.633,6.5598,6.5353,6.4817,6.3792,6.3157,6.2181,6.1986,6.1986,6.1986,6.1986,6.1986,6.2455,6.3415,6.5147,6.7245,6.9145,7.1091,7.2902,7.3848,7.4337,7.4337,7.457,7.5093,7.5617,7.6198,7.6838,7.7362,7.7711,7.7711,7.8077,7.8087,7.87,7.8077,7.7911,7.8351,7.8816,7.9107,7.9601,7.9921,7.9018,7.8116,7.7969,7.5503,7.3291,7.2265,7.1105,6.9324,6.8005,6.6764,6.6327,6.5646,6.5402,6.5451,6.55,6.511,6.3609,6.162,6.1191,6.1048,6.0882,6.0882,6.0952,6.1,6.1117,6.0597,6.0243,6.0196,6.0145,6.0051,5.9381,5.8016,5.6689,5.4362,5.3015,5.2946,5.192,4.9886,4.924,4.9473,4.8198,4.6926,4.5915,4.4917,4.252,3.9419,3.6542,8.1729,8.0666,8.0898,8.0878,8.0878,8.0938,8.0878,8.0739,8.024,8.0017,7.9958,7.9746,7.9688,7.9863,7.9891,7.9646,7.8479,7.8328,7.588,7.3664,7.2751,7.1562,6.9062,6.8292,6.7649,6.7181,6.5987,6.5305,6.5109,6.428,6.3645,6.2749,6.1695,6.108,6.1839,6.2425,6.2523,6.2474,6.2425,6.2327,6.2602,6.3833,6.5458,6.7794,6.9714,7.1184,7.3002,7.3406,7.3116,7.2941,7.2883,7.3406,7.3988,7.4794,7.5473,7.6004,7.7652,7.7965,7.8362,7.8021,7.778,7.645,7.603,7.6557,7.7912,7.7761,7.852,7.8921,7.8545,7.7483,7.7626,7.6017,7.3977,7.3062,7.1522,6.9624,6.8144,6.7056,6.6286,6.5153,6.4475,6.3938,6.3723,6.3271,6.0764,5.834,5.7991,5.778,5.7635,5.7561,5.7486,5.7532,5.7744,5.7441,5.7274,5.6759,5.6245,5.5834,5.5374,5.4658,5.3889,5.157,5.0149,4.9337,4.8645,4.8365,4.8045,4.7712,4.7202,4.6872,4.5531,4.3808,4.0656,3.7385,3.4666,8.1339,8.1005,8.1224,8.1357,8.1107,8.1357,8.1294,8.1039,7.9822,7.9288,7.9236,7.8837,7.8637,7.8583,7.9281,7.9747,7.9891,8.0154,7.7548,7.6516,7.7062,7.4344,7.1307,6.9043,6.8242,6.677,6.4781,6.4006,6.3743,6.3011,6.2279,6.1094,6.0759,6.1242,6.1906,6.2523,6.2913,6.306,6.306,6.3255,6.3517,6.4009,6.5738,6.872,7.0103,7.1382,7.4122,7.3872,7.3232,7.201,7.1894,7.2185,7.3076,7.4043,7.5048,7.603,7.764,7.8632,7.8813,7.8433,7.7091,7.5854,7.5492,7.6123,7.7279,7.6907,7.7457,7.8602,7.7397,7.6715,7.6557,7.6117,7.4498,7.3274,7.1748,6.9768,6.7994,6.6956,6.567,6.4601,6.3694,6.306,6.2701,6.1334,5.9017,5.6181,5.5654,5.5016,5.4699,5.4433,5.4323,5.3955,5.4166,5.4333,5.4253,5.324,5.2307,5.1718,5.1255,5.0825,5.073,5.0253,4.8759,4.8044,4.7594,4.7509,4.7305,4.6812,4.6483,4.6364,4.5321,4.2744,3.9821,3.656,3.3574,8.1174,8.0127,8.0097,7.9506,7.8437,7.8437,7.9058,7.9928,7.962,7.9294,7.9107,7.8936,7.8148,7.7469,7.7362,7.7536,7.7594,7.7594,7.6102,7.54,7.5388,7.3824,7.1238,7.045,6.8992,6.4687,6.3515,6.2504,6.2391,6.223,6.2376,6.223,6.0807,6.0823,6.1289,6.1727,6.197,6.223,6.2132,6.2035,6.2035,6.1986,6.4323,6.6521,6.8093,6.9013,7.1347,7.1952,7.1371,7.044,7.0324,7.1491,7.2914,7.3971,7.4831,7.666,7.7382,7.8498,7.8932,7.9124,7.9008,7.8329,7.7697,7.648,7.7094,7.7279,7.7524,7.8078,7.6573,7.5801,7.5231,7.4485,7.3988,7.3169,7.1944,6.9674,6.7462,6.6323,6.52,6.3983,6.3023,6.237,6.0581,5.9161,5.7057,5.4255,5.297,5.2369,5.1989,5.1558,5.0989,5.0083,5.0373,5.1068,5.0453,4.9461,4.85,4.7579,4.7072,4.672,4.7256,4.6992,4.7015,4.6785,4.6302,4.6432,4.6812,4.6166,4.5462,4.5116,4.4311,4.1897,3.9234,3.5918,3.2704,8.0992,8.0798,8.0798,8.0253,7.9523,7.9411,8.0033,8.0379,7.9928,7.9478,7.9372,7.875,7.7409,7.602,7.5056,7.4977,7.4919,7.4919,7.4171,7.3784,7.3956,7.3247,7.1115,7.0629,7.0092,6.627,6.412,6.2353,6.1364,6.1644,6.1888,6.1791,6.1274,6.108,6.1937,6.1839,6.1742,6.1498,6.1254,6.101,6.101,6.1326,6.2531,6.5477,6.6514,6.7936,6.9473,7.0326,7.0498,7.0091,6.9858,7.109,7.3302,7.4712,7.5551,7.7514,7.7628,7.7874,7.8313,7.8689,7.8215,7.7719,7.7121,7.6772,7.6636,7.7015,7.7568,7.8204,7.6965,7.6236,7.5926,7.4606,7.4092,7.337,7.2597,7.0509,6.8617,6.6807,6.4767,6.346,6.2219,6.0023,5.8078,5.692,5.5156,5.2223,5.0485,4.9584,4.8964,4.8592,4.7651,4.6624,4.7489,4.8179,4.7366,4.6709,4.5951,4.5772,4.5099,4.5007,4.4875,4.4989,4.5388,4.554,4.5176,4.5651,4.6242,4.5992,4.5892,4.4514,4.3134,4.143,3.9292,3.5667,3.0713,8.099,8.2115,8.1913,8.1877,8.1745,8.1372,8.1635,8.1558,8.0323,7.9776,7.9502,7.8276,7.6849,7.5228,7.3808,7.3091,7.2883,7.3116,7.3214,7.3291,7.3427,7.3175,7.2577,7.0786,6.9004,6.7378,6.5304,6.359,6.237,6.1546,6.14,6.1449,6.1727,6.2019,6.1986,6.2714,6.3516,6.244,6.1449,6.101,6.101,6.101,6.2531,6.4425,6.606,6.7653,6.9055,7.0194,7.0673,7.0498,7.0627,7.2305,7.4645,7.6472,7.7416,7.8024,7.7944,7.7398,7.6872,7.7202,7.7328,7.7353,7.6523,7.6099,7.6741,7.7479,7.8008,7.9345,7.792,7.6809,7.645,7.5564,7.4887,7.377,7.2512,7.1134,6.9276,6.6496,6.518,6.3828,6.1756,5.9032,5.632,5.4807,5.3226,5.0448,4.802,4.6829,4.5883,4.5521,4.4743,4.4947,4.549,4.5733,4.519,4.4831,4.4449,4.4435,4.4344,4.4458,4.4686,4.4989,4.4989,4.4441,4.4137,4.4397,4.379,4.4301,4.5887,4.4062,4.0502,3.9243,3.8465,3.4031,2.875,8.1213,8.1399,8.0418,8.0117,7.993,7.9204,7.9536,8.0357,8.0117,7.991,7.9619,7.9234,7.7556,7.5495,7.4674,7.3833,7.2708,7.2708,7.3232,7.3814,7.3988,7.4163,7.3146,7.1067,6.8564,6.726,6.4277,6.2615,6.2669,6.2376,6.2279,6.1937,6.0837,6.0789,6.14,6.2222,6.2074,6.156,6.1058,6.101,6.101,6.1168,6.2636,6.6018,6.67,6.7685,6.9343,7.0152,7.0065,7.0113,7.0706,7.1987,7.3756,7.5162,7.7125,7.896,7.8448,7.7924,7.7297,7.7034,7.749,7.8317,7.7955,7.8212,7.8455,7.7924,7.7768,7.7944,7.7079,7.6246,7.6155,7.473,7.3531,7.2648,7.1926,7.0517,6.8465,6.7011,6.5792,6.3494,6.128,5.8737,5.5934,5.4169,5.2809,5.0162,4.8377,4.6838,4.4858,4.3964,4.4002,4.3964,4.3518,4.3632,4.2704,4.215,4.1927,4.2015,4.2439,4.2621,4.3424,4.4099,4.427,4.3891,4.3377,4.1789,4.092,4.0704,4.1859,4.1285,3.7754,3.5698,3.5338,3.181,2.7465,8.1273,8.1121,8.0616,8.0359,8.0253,7.979,7.999,8.0503,8.0076,7.9733,7.9694,7.9755,7.8503,7.7104,7.7071,7.5991,7.4546,7.3904,7.3795,7.3465,7.3697,7.3697,7.3175,7.0706,6.8876,6.676,6.3353,6.1693,6.2523,6.2083,6.1791,6.1644,6.1094,6.0705,6.0961,6.0874,6.0581,6.0336,5.9741,5.9448,5.9448,5.9497,6.0217,6.2328,6.3401,6.5054,6.7044,6.7979,6.8898,6.9986,7.1314,7.3191,7.5002,7.6462,7.7162,7.776,7.8373,7.8221,7.669,7.7435,7.7726,7.9203,7.8341,7.8061,7.8166,7.7785,7.6906,7.6874,7.6346,7.6729,7.6562,7.5442,7.4344,7.3395,7.2725,7.1021,6.8679,6.7946,6.5924,6.3658,6.171,5.9376,5.6242,5.414,5.2336,5.0575,4.8829,4.6596,4.4411,4.4116,4.423,4.354,4.2408,4.139,3.889,3.8654,3.8588,3.9269,3.9782,4.0022,4.0643,4.0677,4.1269,4.151,4.106,3.9662,3.8717,3.8169,3.8332,3.814,3.6147,3.4259,3.2808,3.0428,2.6569,8.1842,8.1842,8.1601,8.1312,8.1174,8.086,8.0489,8.0337,7.9283,7.9047,7.9068,7.9398,7.8633,7.7895,7.8878,7.7566,7.5077,7.4267,7.4043,7.3558,7.3348,7.3697,7.3213,7.1071,6.9076,6.7228,6.3815,6.1228,6.1315,6.0863,6.0766,6.0717,6.0424,6.0277,5.9985,5.9225,5.8431,5.8131,5.714,5.6498,5.6605,5.7065,5.7979,5.9627,6.09,6.2504,6.4152,6.5695,6.7469,7.0382,7.2276,7.458,7.6708,7.774,7.7851,7.7914,7.8645,7.8393,7.6906,7.7665,7.8348,7.8678,7.8214,7.7697,7.7256,7.6781,7.6226,7.6076,7.6249,7.7135,7.7463,7.621,7.5559,7.4804,7.3525,7.1757,6.9784,6.8734,6.7564,6.4534,6.2349,6.019,5.7705,5.5348,5.2809,5.0352,4.89,4.7145,4.4212,4.3292,4.3707,4.2759,4.1331,3.8353,3.6334,3.6698,3.655,3.7681,3.829,3.852,3.841,3.8011,3.6853,3.6457,3.6103,3.5658,3.6125,3.6414,3.5856,3.4619,3.415,3.3488,3.1223,2.9047,2.5198,8.4071,8.4001,8.3138,8.1923,8.0584,7.9814,7.8864,7.7684,7.7101,7.7839,7.7568,7.7502,7.7983,7.6578,7.6909,7.5538,7.4348,7.4039,7.4248,7.41,7.4007,7.4337,7.3859,7.1011,6.8185,6.6767,6.3254,6.1517,6.0787,6.0229,5.9741,5.9594,5.896,5.8612,5.8014,5.6557,5.563,5.5365,5.3994,5.307,5.307,5.4481,5.6634,5.8586,5.9859,6.1534,6.3906,6.5584,6.7073,6.9218,7.1863,7.4659,7.6989,7.8526,7.943,8.0343,7.972,7.914,7.8256,7.7861,7.8008,7.8759,7.8609,7.8279,7.7533,7.7051,7.6184,7.5219,7.44,7.5087,7.5951,7.5696,7.5041,7.408,7.2546,7.0986,6.9619,6.9297,6.8252,6.5619,6.3996,6.1981,5.9468,5.7216,5.3366,5.0121,4.9062,4.7374,4.3758,4.1888,4.2353,4.1833,3.9269,3.6462,3.6858,3.7224,3.627,3.679,3.7207,3.748,3.7302,3.5667,3.3337,3.2393,3.1018,3.0722,3.0966,3.1521,3.1438,3.0722,2.9953,2.9632,2.8616,2.7129,2.3916,8.5714,8.5597,8.4725,8.3905,8.2988,8.1387,8.0747,8.0604,7.9318,7.927,8.0103,8.0463,8.0217,7.9809,7.9899,7.9629,7.8791,7.7516,7.6114,7.4756,7.4042,7.3988,7.3479,6.9726,6.6723,6.5538,6.1962,5.9928,5.9413,5.8911,5.8716,5.8569,5.8228,5.7282,5.6072,5.5303,5.3968,5.2868,5.1959,5.1479,5.1479,5.2551,5.4389,5.5423,5.6992,5.8585,6.166,6.344,6.5927,6.8762,7.1674,7.4327,7.6072,7.8166,8.0136,8.1575,8.1503,8.1244,8.0032,7.9437,7.9263,7.9129,7.939,7.8991,7.8486,7.78,7.6586,7.4974,7.3894,7.3627,7.4532,7.4702,7.4447,7.3515,7.2964,7.1992,7.0866,7.0497,6.9752,6.8587,6.6209,6.3968,6.1994,6.0265,5.6756,5.2566,5.1409,4.8744,4.5103,4.1651,4.1847,4.0905,3.7779,3.5865,3.6706,3.6086,3.4649,3.4107,3.4078,3.4078,3.3507,3.1583,2.9422,2.7924,2.6031,2.5713,2.4971,2.6057,2.6385,2.6291,2.6267,2.5811,2.4731,2.3013,2.0623,8.6696,8.6693,8.6037,8.5539,8.4973,8.3373,8.3004,8.3321,8.1305,8.0963,8.2138,8.2546,8.2527,8.267,8.2609,8.3394,8.2318,8.016,7.8501,7.5809,7.412,7.3004,7.1501,6.8565,6.6146,6.4634,6.0834,5.8867,5.8487,5.8533,5.7935,5.7784,5.7233,5.6177,5.4591,5.3655,5.2392,5.1158,5.0188,4.97,4.97,4.9778,5.0265,5.1232,5.2418,5.4514,5.7349,6.1288,6.4748,6.7901,7.1375,7.4462,7.6645,7.8914,8.1197,8.2941,8.408,8.3323,8.127,8.1121,8.1102,7.9312,7.9626,8.0076,7.9201,7.8686,7.7718,7.5456,7.4111,7.3515,7.365,7.3555,7.3489,7.3423,7.3332,7.3123,7.28,7.2314,7.2237,7.1572,6.9593,6.7316,6.6704,6.3553,6.0162,5.5749,5.2868,5.018,4.649,4.2364,4.185,4.1572,3.7433,3.2254,3.2601,3.1508,3.0067,2.8961,2.8986,2.8986,2.7664,2.5921,2.2659,2.118,2.0391,1.9693,1.8413,1.9528,2.3224,2.296,2.2651,2.2876,2.2077,1.9163,1.6762,8.6782,8.667,8.6642,8.5711,8.4516,8.4049,8.3123,8.1614,8.117,8.1104,8.1246,8.0951,8.1847,8.1479,8.2279,8.1725,8.1641,8.038,7.9164,7.7719,7.6023,7.3422,7.156,6.9228,6.7691,6.5617,6.2873,6.1117,5.9808,5.8586,5.8036,5.7584,5.5624,5.4452,5.3766,5.0749,4.9004,4.8347,4.6728,4.5721,4.5889,4.5605,4.6236,4.74,4.8101,5.0682,5.5749,6.0951,6.4071,6.5855,7.0784,7.5095,7.9012,8.0862,8.3148,8.5434,8.6058,8.507,8.2609,8.2107,8.113,7.8989,8.0354,8.0836,7.9524,8.026,7.9708,7.6325,7.4908,7.4068,7.3362,7.296,7.3028,7.338,7.3313,7.4388,7.5605,7.4653,7.3735,7.4781,7.2511,7.0186,6.8413,6.6359,6.3524,5.8772,5.5199,5.2195,4.8265,4.2986,4.0328,3.9945,3.507,2.9515,2.8035,2.692,2.5426,2.4697,2.4885,2.3111,2.1773,1.6401,1.4486,1.3387,1.2365,1.1762,1.1223,1.4914,1.966,2.0114,1.7223,1.85,1.9642,1.5647,1.396,8.8239,8.8134,8.7721,8.717,8.6338,8.4935,8.4366,8.4042,8.3333,8.3198,8.396,8.4071,8.4177,8.4238,8.3295,8.2861,8.2638,8.1112,7.9663,7.8285,7.7061,7.4554,7.1863,7.0964,6.9054,6.6247,6.448,6.2627,6.0779,5.8883,5.8036,5.7433,5.6759,5.496,5.2754,4.8594,4.6314,4.5721,4.2789,4.1581,4.2653,4.151,4.1648,4.182,4.2265,4.4365,5.0202,5.7598,6.2362,6.504,7.0065,7.5055,7.8499,8.1003,8.401,8.7178,8.7514,8.6369,8.4015,8.3344,8.1801,7.9677,8.0481,8.133,8.1512,8.186,8.1507,7.8359,7.6757,7.4928,7.3278,7.2537,7.3024,7.3785,7.5132,7.6662,7.8089,7.7388,7.7417,7.7038,7.5503,7.3108,7.1553,6.9883,6.6263,6.1713,5.7892,5.4143,4.9763,4.2706,3.7866,3.5606,3.1792,2.7246,2.4842,2.2904,2.1224,2.1413,2.0999,1.7492,1.2449,0.4003,0.2238,0.1276,0.2918,0.361,0.3504,0.5135,0.9908,1.182,1.1513,1.1022,1.2094,1.0466,1.0456,8.9243,8.9096,8.871,8.843,8.8106,8.6551,8.6127,8.6193,8.5496,8.547,8.5911,8.6499,8.6499,8.6517,8.5248,8.4691,8.4245,8.2861,8.0763,7.9271,7.9093,7.6776,7.3605,7.2213,7.0355,6.7678,6.594,6.3871,6.1496,5.9915,5.8336,5.713,5.6378,5.4291,4.9863,4.5734,4.378,4.2481,3.8893,3.7802,3.8651,3.6497,3.5279,3.5815,3.6024,3.841,4.307,5.204,5.804,6.1012,6.886,7.5147,7.8195,8.1444,8.476,8.7394,8.802,8.7069,8.4466,8.3894,8.2373,7.9666,8.0613,8.2248,8.335,8.3664,8.2805,8.0954,7.9253,7.6991,7.3873,7.3252,7.3533,7.4644,7.6395,7.8288,7.9286,7.9744,7.9922,7.9655,7.7627,7.5816,7.4264,7.2583,6.9521,6.505,6.084,5.647,5.0335,4.3672,3.6289,3.3365,2.7821,2.401,2.0432,1.8122,1.6542,1.6121,1.1328,0.6194,-0.1865,-0.989,-1.1891,-1.1487,-1.0301,-1.1318,-0.9851,-0.5424,-0.3415,-0.0512,0.0854,0.3756,0.4636,0.3789,0.3269,8.9126,8.9041,8.9111,8.9064,8.8955,8.8769,8.759,8.6321,8.7046,8.6509,8.5373,8.6446,8.6933,8.6794,8.6622,8.6422,8.6235,8.4619,8.3495,8.3285,8.2658,8.0702,7.6547,7.3542,7.1617,6.9999,6.6806,6.4478,6.2801,6.1417,5.9229,5.5303,5.4109,5.0974,4.6275,4.2888,4.0503,3.8541,3.5576,3.4085,3.4056,3.0072,2.8581,3.0515,3.0854,3.3213,3.7527,4.1599,4.742,5.4757,6.3922,7.1814,7.8429,8.2613,8.4388,8.6402,8.8287,8.577,8.3442,8.2838,8.2131,7.8864,8.0107,8.2306,8.3322,8.3939,8.3838,8.2678,8.1811,7.9597,7.5968,7.5169,7.5012,7.4463,7.6682,7.8816,8.0187,8.0821,8.0967,8.068,7.9001,7.7136,7.7071,7.5165,7.2118,6.8369,6.4342,5.8531,5.2031,4.4193,3.6764,2.9296,2.2111,1.7228,1.1039,0.8574,0.4929,0.187,-0.6547,-1.2312,-1.9213,-2.5215,-2.8921,-2.5848,-2.416,-2.6093,-2.4919,-1.7376,-1.2899,-1.1504,-0.8667,-0.4421,-0.3919,-0.5983,-0.6849,8.7108,8.7955,8.8446,8.8543,8.8439,8.8915,8.7957,8.6475,8.6598,8.6428,8.6323,8.755,8.8248,8.8181,8.7823,8.7617,8.7418,8.6374,8.5545,8.4855,8.3525,8.1447,7.8869,7.5468,7.3057,7.0605,6.6416,6.3798,6.3218,6.0593,5.7687,5.4544,5.2101,4.8797,4.4854,4.1164,3.7979,3.5219,3.161,2.9598,2.8605,2.511,2.3427,2.4156,2.5217,2.943,3.423,2.0376,1.9731,3.3483,4.0001,5.2492,6.8847,7.2579,7.5422,7.7945,7.9356,7.983,7.9024,7.969,7.9619,7.8427,7.8519,7.9782,8.1255,8.2094,8.2762,8.2611,8.1915,8.0297,7.8139,7.7335,7.6616,7.6081,7.7734,7.9035,7.9765,8.1096,8.1795,8.1528,8.1078,8.0334,7.9542,7.794,7.6317,7.1763,6.7211,6.1438,5.3421,4.4949,3.4759,2.5486,1.5336,0.69,0.2072,-0.2256,-0.6205,-1.5152,-2.3688,-2.8898,-3.2538,-3.7672,-3.9622,-3.6342,-3.3791,-3.505,-3.3569,-2.6886,-2.2742,-2.1864,-2.036,-1.7244,-1.5213,-1.6859,-1.5193,8.4076,8.5452,8.5554,8.6108,8.715,8.6711,8.6249,8.5494,8.4737,8.4795,8.5729,8.8068,8.8912,8.856,8.8634,8.8481,8.8343,8.7892,8.6785,8.5451,8.383,8.1904,7.9695,7.7842,7.5622,7.26,6.8279,6.5261,6.3218,6.0294,5.6786,5.3407,4.9763,4.6127,4.2265,3.7946,3.4381,3.1401,2.6271,2.2884,2.1812,1.6864,1.3767,1.3495,1.3788,1.575,1.9374,0.099,-0.3439,0.7378,1.4156,2.8718,5.0212,5.8865,6.2881,6.6469,6.902,7.103,7.2863,7.4953,7.6077,7.572,7.6156,7.7356,7.9198,7.9824,8.0481,8.1397,8.1093,8.014,7.9128,7.8038,7.7592,7.7518,7.8395,7.9084,7.9484,8.0633,8.1478,8.1835,8.2136,8.1835,8.0596,7.9836,7.8113,7.4388,7.0212,6.4547,5.5409,4.3788,3.0802,1.9931,0.4429,-0.7127,-1.2582,-1.7335,-2.4379,-3.4165,-3.8997,-4.3033,-4.4266,-4.6703,-4.6254,-4.4615,-4.2535,-4.1139,-3.9386,-3.6371,-3.3502,-3.181,-2.9743,-2.8539,-2.7815,-2.5669,-2.2901,8.0093,8.1109,8.0238,8.1942,8.4543,8.2554,8.2106,8.296,8.2224,8.2007,8.2838,8.7017,8.7907,8.7411,8.8182,8.8929,8.8623,8.8343,8.7222,8.53,8.4947,8.2753,7.9335,7.982,7.8689,7.5924,7.3209,6.882,6.3715,6.1093,5.7099,5.1827,4.7649,4.3764,3.8252,3.3992,3.0016,2.613,2.0053,1.4879,1.1345,0.4976,0.057,-0.1492,-0.4886,-0.7755,-1.151,-1.5448,-2.0718,-2.2547,-0.8647,1.1068,2.9706,4.1122,4.8677,5.2891,5.7696,6.1637,6.5028,6.9041,7.0878,7.1586,7.2853,7.4905,7.7029,7.7879,7.8543,7.9554,7.9931,7.9872,7.8162,7.7836,7.7913,7.7992,7.8421,7.8876,7.9282,7.9731,8.0483,8.1726,8.17,8.0866,8.051,7.9964,7.8123,7.5712,7.214,6.6666,5.6033,3.7727,2.3443,1.2059,-0.559,-2.2677,-2.8153,-3.3125,-4.3064,-5.1235,-5.3021,-5.4097,-5.4738,-5.4934,-5.4726,-5.4045,-5.1922,-5.0958,-4.9286,-4.7291,-4.4447,-4.1272,-3.8138,-3.6274,-3.4591,-3.2496,-3.0145,7.3265,7.5484,7.5692,7.7085,7.9066,7.9148,7.9484,7.9914,8.0207,8.0443,8.106,8.3103,8.4417,8.483,8.6281,8.6433,8.5447,8.5442,8.4542,8.3087,8.2518,8.1046,7.9191,7.8517,7.7021,7.4892,7.4164,7.0857,6.5272,6.1942,5.7297,5.1755,5.0265,4.5527,3.8508,3.4681,2.9181,2.2696,1.619,1.101,0.676,-0.1521,-0.6392,-0.909,-2.2363,-3.2246,-3.6623,-4.3697,-4.7429,-4.4349,-3.0987,-1.4174,0.3416,1.7733,2.8826,3.564,4.0167,4.5956,5.414,5.8877,6.2952,6.6929,6.8921,7.0642,7.2558,7.4016,7.5772,7.7394,7.7801,7.8296,7.8903,7.8506,7.8173,7.8662,7.8878,7.9061,7.914,7.9098,7.9844,8.1366,8.2056,8.2406,8.2132,8.0679,7.7626,7.3266,7.0094,6.1182,4.7341,2.9527,1.4294,-0.3639,-2.2796,-3.65,-4.5803,-4.9591,-5.7407,-6.1497,-6.371,-6.3567,-6.3739,-6.3848,-6.3596,-6.2988,-6.2097,-6.1271,-5.9891,-5.8125,-5.5247,-5.1924,-4.834,-4.4759,-4.2607,-3.9877,-3.777,6.5496,6.7526,6.9144,7.1308,7.3465,7.4484,7.5516,7.6528,7.6709,7.71,7.8171,7.9731,8.0906,8.1746,8.1625,8.1514,8.1825,8.2571,8.2349,8.1436,8.1214,8.0215,7.8677,7.8304,7.7028,7.5225,7.5483,7.2748,6.6864,6.298,5.8287,5.316,5.0384,4.5527,3.8717,3.441,2.8838,2.0603,1.1748,0.4822,-0.0772,-0.8718,-1.5044,-1.8891,-3.4818,-4.5991,-5.1335,-5.962,-6.3176,-6.0783,-4.7735,-3.3159,-1.7432,-0.3648,0.8174,1.8154,2.4383,3.2282,4.2638,4.9091,5.5137,6.1282,6.3816,6.5933,6.7801,6.9228,7.1286,7.3961,7.4523,7.5424,7.7169,7.7294,7.7314,7.8335,7.8566,7.8566,7.8662,7.8642,7.8937,8.0183,8.1391,8.1996,8.0715,7.8785,7.5319,7.0693,6.5288,5.5328,3.9911,2.1485,0.3999,-1.391,-3.2095,-4.8727,-6.1116,-6.4867,-6.7302,-7.0213,-7.1728,-7.0422,-7.0558,-7.0482,-6.974,-6.8818,-6.8654,-6.7836,-6.7231,-6.5516,-6.3708,-6.0469,-5.6824,-5.3899,-5.2507,-4.7881,-4.5302,5.7032,5.755,6.0867,6.4491,6.8169,6.8405,7.0066,7.2447,7.1725,7.2264,7.4168,7.6492,7.7758,7.7379,7.4597,7.5015,7.7973,8.0003,8.0579,8.0452,8.1127,8.0349,7.8208,7.959,7.9034,7.6693,7.7018,7.44,6.8808,6.4771,5.9853,5.4328,4.8672,4.2779,3.748,3.2739,2.6802,1.8692,0.6358,-0.3482,-1.0197,-1.7327,-2.5668,-3.4046,-4.2537,-4.994,-5.6783,-6.3518,-6.7619,-6.9272,-5.7772,-4.5231,-3.1058,-2.1621,-1.0936,0.0999,1.0557,2.0206,3.0795,4.0446,4.8426,5.4118,5.7777,6.0908,6.3295,6.4029,6.5997,6.9644,7.1016,7.1928,7.2649,7.3765,7.5427,7.7258,7.7436,7.7472,7.764,7.7612,7.8099,7.7782,7.8197,7.8421,7.7901,7.4198,7.0679,6.5855,5.8974,4.8388,3.4764,1.3596,-0.4851,-2.0105,-3.8316,-5.7704,-6.6371,-6.8287,-7.0071,-7.2087,-7.3065,-7.437,-7.5374,-7.5891,-7.5243,-7.45,-7.3445,-7.3066,-7.359,-7.2547,-7.0198,-6.808,-6.4435,-6.2161,-6.052,-5.5913,-5.3156,4.8458,4.9123,5.2561,5.5974,5.9255,6.1397,6.3334,6.5123,6.7703,6.9103,6.972,7.1497,7.084,6.8368,6.7299,6.9199,7.2953,7.4515,7.6081,7.7827,7.8702,7.9029,7.892,7.8895,7.8064,7.6968,7.7104,7.5467,7.2284,6.857,6.3094,5.6074,5.1325,4.4397,3.5485,2.9598,2.245,1.2895,-0.0384,-0.9614,-1.4878,-2.4789,-3.4056,-4.1672,-4.7767,-5.4472,-6.1764,-6.542,-6.6765,-6.5553,-5.7994,-4.8302,-3.7291,-2.8878,-2.2055,-1.6016,-0.3329,0.9861,2.218,3.1677,4.0074,4.7158,5.0953,5.4346,5.7259,5.8856,6.1405,6.4997,6.5405,6.6207,6.8398,7.0885,7.2962,7.4785,7.52,7.5207,7.5197,7.456,7.3726,7.2468,7.3477,7.3946,7.2005,6.9285,6.3972,5.617,4.8896,3.9547,2.1539,0.3536,-1.5252,-3.0915,-4.6588,-5.8454,-6.2154,-6.5979,-6.9971,-7.1664,-7.3121,-7.4061,-7.4719,-7.4719,-7.4583,-7.5053,-7.5183,-7.5093,-7.5074,-7.498,-7.3499,-7.3123,-7.1419,-6.9061,-6.7556,-6.5102,-6.2274,4.0837,4.1977,4.4893,4.8062,5.1567,5.5381,5.7781,5.9518,6.2402,6.4108,6.4743,6.5155,6.4412,6.2661,6.2139,6.4225,6.8403,7.0164,7.2485,7.511,7.7177,7.829,7.8717,7.8577,7.8199,7.7436,7.7623,7.6863,7.4973,7.3091,6.7863,5.9917,5.5091,4.7162,3.5803,2.8726,1.9728,0.8237,-0.5368,-1.5903,-2.3253,-3.2796,-4.1079,-4.7598,-5.2517,-5.8569,-6.5411,-6.6671,-6.6204,-6.4055,-5.6094,-4.7603,-3.9624,-3.0796,-2.525,-2.3409,-1.3206,-0.0836,1.3348,2.3586,3.2706,4.0944,4.4903,4.8647,5.2152,5.4045,5.5794,5.8063,5.8403,6.0388,6.4618,6.7083,6.9372,7.1517,7.2386,7.2493,7.2281,7.1505,7.0432,6.8817,6.8471,6.7785,6.6341,6.493,5.8943,4.8017,3.8399,2.6739,0.9051,-0.626,-2.1352,-3.6119,-4.7756,-5.474,-5.7688,-6.2014,-6.5437,-6.7773,-6.9764,-7.1893,-7.2489,-7.2998,-7.3474,-7.4846,-7.4835,-7.5054,-7.5622,-7.4909,-7.4389,-7.4472,-7.3632,-7.2579,-7.2222,-6.9809,-6.8483,3.3744,3.5544,3.8097,4.0956,4.4525,4.9471,5.2609,5.4381,5.6441,5.7948,5.8575,5.7698,5.7821,5.8803,5.8049,5.9928,6.3894,6.6798,6.9884,7.2853,7.6159,7.7903,7.8036,7.8851,7.8883,7.8333,7.8634,7.8148,7.7071,7.7096,7.3276,6.5461,5.9031,4.9373,3.7173,2.8126,1.7566,0.4353,-0.9325,-2.224,-3.4001,-4.0215,-4.6069,-5.2165,-5.5921,-6.1319,-6.7337,-6.6745,-6.501,-6.2652,-5.3027,-4.4674,-3.8177,-2.9685,-2.4448,-2.414,-2.0111,-1.1402,0.3505,1.5913,2.6331,3.4285,3.9332,4.3586,4.6882,4.8613,4.9171,4.9362,5.1016,5.4765,6.0271,6.2645,6.4713,6.7409,6.8419,6.8901,6.7938,6.7688,6.6846,6.5606,6.2712,6.0983,6.028,5.9876,5.4956,4.3713,3.1676,1.6756,0.0164,-1.2717,-2.4711,-3.5403,-4.3465,-4.8497,-5.2255,-5.6888,-6.0064,-6.1746,-6.4252,-6.7097,-6.9175,-7.0157,-7.1301,-7.2688,-7.3399,-7.3114,-7.3125,-7.2649,-7.2055,-7.2467,-7.2403,-7.2159,-7.3755,-7.1905,-7.0721,2.7843,2.7145,3.2527,3.5269,3.6486,4.2288,4.5077,4.6055,5.1617,5.2152,4.9159,4.8622,4.9476,5.1056,5.2297,5.5121,5.9475,6.3449,6.7514,7.1445,7.4122,7.6322,7.7978,7.8802,7.9091,7.8883,7.8709,7.8443,7.8172,7.7394,7.5683,7.2121,5.9711,4.6681,3.4072,2.3249,1.1335,-0.2048,-1.5792,-2.7788,-3.7347,-4.0543,-4.4779,-5.0083,-5.353,-5.6933,-6.0401,-6.0021,-5.739,-5.2532,-4.7686,-4.1077,-3.2743,-3.0147,-2.8247,-2.65,-2.3975,-1.8382,-0.9085,0.7961,2.0698,2.6268,3.3809,3.8849,4.0323,3.943,3.8879,4.0557,4.4619,4.8698,5.2655,5.6149,5.9187,6.0824,6.1873,6.1927,6.0367,5.9119,5.7782,5.6352,5.544,5.4185,5.298,5.2651,4.9511,4.0666,2.6246,1.0589,-0.3687,-1.5695,-2.4627,-3.2176,-3.8307,-4.3422,-4.6761,-5.0931,-5.4375,-5.658,-6.0375,-6.3202,-6.4834,-6.6025,-6.7689,-7.0351,-6.9839,-6.9356,-7.0416,-6.9337,-6.864,-6.9443,-6.9147,-6.9093,-7.0615,-7.0931,-7.222,2.2558,2.2702,2.616,2.8193,2.9281,3.3711,3.7644,4.1487,4.5357,4.5348,4.3153,4.4929,4.621,4.7059,4.8075,5.0858,5.4945,5.9076,6.3497,6.8154,7.1586,7.4363,7.6557,7.8311,7.9002,7.8647,7.8801,7.8766,7.8585,7.858,7.7614,7.5072,6.6302,5.2826,3.6147,2.2463,0.8588,-0.5353,-1.9275,-3.0649,-3.9158,-4.3046,-4.689,-5.091,-5.3218,-5.535,-5.7435,-5.6114,-5.2038,-4.5094,-4.1879,-3.623,-2.7706,-2.6462,-2.5439,-2.4329,-2.2143,-1.8674,-1.4011,-0.0337,1.1569,2.1144,2.809,3.2443,3.3846,3.3586,3.4041,3.5766,3.9398,4.3467,4.7589,5.0594,5.313,5.5299,5.6296,5.5922,5.4126,5.2982,5.1496,4.9249,4.8119,4.7375,4.6704,4.7523,4.5555,3.7802,2.6606,1.0237,-0.8507,-2.0535,-2.8981,-3.2445,-3.7038,-4.0925,-4.2858,-4.6431,-4.9437,-5.1639,-5.4972,-5.7977,-6.1084,-6.1956,-6.3869,-6.648,-6.6296,-6.586,-6.6625,-6.5502,-6.5394,-6.616,-6.6258,-6.6231,-6.7276,-6.9033,-6.9871,1.7884,1.9607,2.028,2.1392,2.2967,2.5342,3.0756,3.7825,3.7825,3.8469,3.9412,4.2862,4.4541,4.4871,4.4828,4.7009,5.0823,5.4605,5.9176,6.4252,6.8273,7.1639,7.4432,7.7391,7.8561,7.8217,7.8814,7.8967,7.8762,7.9595,7.864,7.5787,7.3092,6.1837,4.2427,2.4273,0.7845,-0.6929,-2.09,-3.2152,-4.0353,-4.5604,-4.9413,-5.2127,-5.3186,-5.4219,-5.4645,-5.245,-4.7661,-4.0232,-3.7656,-3.3009,-2.5551,-2.3451,-2.1767,-2.0596,-1.8612,-1.605,-1.3438,-0.7233,0.2708,1.6646,2.3253,2.7479,2.976,3.1058,3.2221,3.3552,3.5543,3.8869,4.3585,4.5531,4.7432,5.009,5.1119,5.0684,4.8507,4.7752,4.6533,4.4042,4.2091,4.1797,4.4111,4.557,4.3952,3.6705,2.6413,1.155,-0.9732,-2.4943,-3.193,-3.4222,-3.7334,-3.9586,-4.0828,-4.3121,-4.5772,-4.749,-4.9777,-5.3109,-5.7128,-5.8632,-6.0152,-6.2399,-6.2821,-6.2849,-6.316,-6.1975,-6.2055,-6.356,-6.3584,-6.3327,-6.3968,-6.5017,-6.5655,1.4616,1.5398,1.9101,1.9775,1.8594,2.0783,2.4685,2.9375,0.0,0.0,0.0,3.8196,3.9449,4.0992,4.0836,4.3567,4.8847,5.228,5.6855,6.2521,6.2354,6.6105,7.3007,7.5973,7.7563,7.7986,7.826,7.8536,7.8941,7.8229,7.7349,7.5984,7.0947,6.3963,5.4249,2.8747,0.7281,-0.8316,-2.1091,-3.2269,-4.1834,-4.4828,-4.7523,-5.0272,-4.9801,-4.8435,-4.615,-4.5072,-4.2732,-3.8839,-4.0019,-3.7772,-3.1328,-3.0387,-2.7256,-2.1063,-1.8506,-1.5296,-1.1193,-0.6184,0.1022,1.0968,2.24,3.1386,3.6998,3.3448,3.1797,3.3343,3.3158,3.4549,3.8506,4.1073,4.3073,4.427,4.5303,4.5117,4.3194,4.1669,4.1265,4.1652,4.0538,4.1549,4.7412,4.8043,4.7857,4.5818,2.7542,0.6171,-0.8008,-2.3135,-3.2557,-3.3203,-3.5175,-3.7227,-3.9401,-4.1369,-4.3069,-4.4943,-4.8232,-5.0961,-5.2706,-5.5367,-5.797,-5.9638,-5.9914,-6.0481,-6.1288,-6.0165,-5.9228,-5.9885,-6.0509,-6.0846,-6.017,-5.9874,-6.0338,1.2401,1.3602,1.5906,1.6166,0.0,1.7828,1.9364,2.0458,2.0478,2.4754,3.2146,3.4291,3.568,3.6521,3.724,3.9532,4.2938,4.7197,5.2408,5.7994,5.7126,6.1667,7.0833,7.5028,7.6744,7.6372,7.754,7.8377,7.8773,7.8476,7.7651,7.6334,7.1925,6.5839,5.7678,3.8064,1.5076,-1.0987,-2.3244,-3.4119,-4.3609,-4.7296,-4.9602,-5.0889,-5.0266,0.0,0.0,0.0,0.0,0.0,0.0,0.0,0.0,0.0,0.0,-1.6824,-0.6616,0.063,0.3512,0.7627,1.3159,2.0399,2.9174,3.734,4.4841,4.0925,3.7844,3.721,3.6212,3.6152,3.7371,3.901,4.0498,4.129,4.1521,4.0578,3.8654,3.8147,3.8109,3.8203,4.0954,4.4654,4.9333,5.0041,5.0013,4.6989,2.5047,0.2177,-1.4427,-2.9515,-3.7663,-3.5868,-3.6134,-3.668,-3.7446,-3.8548,-3.9997,-4.1071,-4.3511,-4.6247,-4.9078,-5.1967,-5.4402,-5.5686,-5.6003,-5.6409,-5.7549,-5.7162,-5.7027,-5.8744,-5.9645,-5.9032,-5.613,-5.6852,-5.8095,1.0839,1.3185,1.3185,1.2988,1.3026,1.4778,1.4894,1.3792,1.429,1.8973,2.6813,3.1093,3.3121,3.3549,3.4607,3.5973,3.81,4.2945,4.8243,5.3712,5.3655,5.8779,6.8019,7.3529,7.5542,7.481,7.6934,7.8166,7.8476,7.8665,7.7798,7.5787,7.2732,6.6828,5.8049,0.0,0.0,0.0,-2.3378,-3.6031,-4.5556,-4.9879,-5.2302,-5.2717,-5.1996,0.0,-4.8191,-4.6834,-4.3839,-3.9053,-4.1634,0.0,0.0,0.0,0.0,0.0,0.0,0.0,0.0,0.0,0.0,0.0,3.9346,4.5889,5.245,5.0021,4.6646,4.3811,4.2672,4.1793,4.0934,4.0903,4.1244,4.1752,4.0437,3.8482,3.6447,3.7091,3.7548,3.6709,4.3168,4.8869,5.1626,5.2168,5.0093,4.2927,2.1105,-0.2863,-2.5512,-3.7704,-4.3232,-4.0641,-3.924,-3.8087,-3.6212,-3.7277,-3.8513,-3.8382,-3.9403,-4.2205,-4.6697,-4.9241,-5.1027,-5.2253,-5.2815,-5.3584,-5.4592,-5.4658,-5.5456,-5.7863,-5.8918,-5.7823,-5.2978,-5.4199,-5.5928,0.9851,1.3595,1.3765,1.2584,1.0882,1.0832,1.1897,1.4029,1.5835,1.9476,2.445,2.8975,3.2653,3.5393,3.3667,3.507,3.8923,4.2746,4.7107,5.1578,5.4551,5.9147,6.512,7.0333,7.353,7.4765,7.663,7.7724,7.8199,7.7807,7.6513,7.4429,7.0595,6.6231,6.1089,4.8489,3.187,1.1391,-1.6459,-3.6261,-4.7523,-5.0108,-5.228,-5.4352,-5.3619,-5.1773,-4.8875,-4.8191,-4.8002,-4.8387,-4.919,-4.6222,-3.8416,-2.8571,-1.6311,0.0,1.1125,0.0,0.0,0.0,0.0,0.0,0.0,0.0,0.0,5.8903,5.7001,5.4278,5.294,5.2534,5.3508,5.0871,4.902,4.8924,4.4691,4.149,4.0782,3.9577,4.0156,4.4141,4.7788,5.2533,5.7958,5.5411,4.9599,4.0179,1.7669,-0.8523,-3.4847,-4.0686,-4.179,-4.3574,-4.3253,-4.2069,-4.0096,-3.9558,-3.9825,-4.0428,-4.0729,-4.2153,-4.5171,-4.777,-4.9839,-5.0664,-5.2507,-5.4352,-5.5595,-5.5276,-5.4974,-5.4868,-5.6804,-5.6597,-5.1624,-5.0137,-4.9874,1.0403,1.3409,1.3409,1.2896,1.2265,1.2148,1.2001,1.214,1.4303,1.847,2.3957,2.7139,3.0499,3.3401,3.355,3.5001,3.7652,4.1299,4.6039,5.1775,5.305,5.7644,6.4973,6.9944,7.2673,7.3382,7.5473,7.693,7.7687,7.7782,7.6912,7.5085,7.0891,6.6217,6.0623,4.5707,3.1131,1.6842,-0.7191,-2.9122,-4.8021,-5.2224,-5.5333,-5.7945,-5.7099,-5.6095,-5.5468,-5.2764,-5.1056,-5.0684,-4.9811,-4.5074,-3.5924,-2.0731,-0.6111,0.0,0.0,0.0,0.0,0.0,0.0,0.0,0.0,0.0,0.0,0.0,6.1304,6.0163,5.868,5.7323,5.6247,5.488,5.3922,5.3431,5.0466,4.7709,4.5661,4.5613,4.6572,4.8773,5.4472,5.9331,6.1649,5.7307,5.017,4.0389,1.8232,-0.5128,-2.5059,-3.4585,-3.8992,-4.2504,-4.4614,-4.5281,-4.388,-4.2003,-4.0341,-3.9505,-3.998,-4.108,-4.2922,-4.584,-4.8145,-4.854,-5.0314,-5.2204,-5.3196,-5.2801,-5.2558,-5.318,-5.4622,-5.303,-4.7428,-4.6451,-4.6226,1.2388,1.4991,1.7354,1.8227,1.8109,1.6675,1.5068,1.3779,1.5897,2.0155,2.6021,3.0284,3.327,3.4862,3.6423,3.75,3.844,4.2017,4.6716,5.2077,5.3199,5.7593,6.4784,6.994,7.2305,7.2477,7.4775,7.6307,7.7008,7.7452,7.6812,7.4937,7.0122,6.499,5.9424,4.4586,3.0719,1.8392,0.0165,-2.1118,-4.4632,-5.2618,-5.7961,-6.1344,-6.0455,-6.0228,-6.0789,-5.6595,-5.3094,-5.0375,-4.6476,-3.957,-2.9257,-1.097,0.0,0.0,0.0,0.0,0.0,0.0,0.0,0.0,0.0,5.7807,6.0531,0.0,6.1725,0.0,6.2614,6.1667,5.9466,5.8569,0.0,0.0,5.5553,5.3397,5.1083,5.2616,5.4187,5.4951,6.1407,6.5551,6.4638,5.8518,5.0996,4.2411,2.1698,0.1904,-1.2419,-2.5177,-3.4683,-3.861,-4.274,-4.6213,-4.6732,-4.3952,-4.0378,-3.8085,-3.8873,-4.0278,-4.1695,-4.4223,-4.6295,-4.7337,-4.8545,-5.0037,-5.1639,-5.1135,-5.1376,-5.2603,-5.2337,-5.0016,-4.3875,-4.2901,-4.2187,1.5943,2.0791,2.9693,3.2304,3.0303,2.4798,2.2496,2.2923,2.4768,2.7913,3.2483,4.2238,4.586,4.438,4.4552,0.0,4.4106,4.7893,5.039,5.1863,5.7787,6.1311,6.3266,6.9355,7.2335,7.2404,7.494,7.6191,7.6155,7.6324,7.5337,7.3148,6.6595,6.1672,5.811,4.794,3.4635,1.8392,0.2425,-1.5209,-3.4069,-4.8701,-5.8552,-6.2993,-6.31,-6.2287,-6.0842,-5.729,-5.3117,-4.8109,-3.8979,-2.8355,-1.6361,0.0,0.0,0.0,0.0,0.0,0.0,0.0,0.0,0.0,0.0,0.0,0.0,0.0,0.0,6.0781,6.4983,0.0,6.8097,6.4112,0.0,0.0,0.0,5.6545,5.6945,5.9593,6.2466,6.5442,0.0,0.0,6.7789,5.9467,5.2655,4.9668,2.7401,0.7318,-0.4181,-1.7715,-2.7678,-3.1666,-3.7393,-4.3618,-4.7989,-4.4894,-4.0615,-3.8238,-3.8757,-3.9424,-4.1781,-4.2966,-4.46,-4.7518,-4.8627,-4.9504,-5.2438,-5.2819,-5.2939,-5.3144,-5.0923,-4.7199,-4.2233,-3.8963,-3.5752,2.9221,3.8936,4.1895,4.184,3.9508,3.5431,3.3027,3.194,3.4029,3.6596,3.9743,4.663,5.0263,5.1043,5.0211,0.0,0.0,0.0,5.4633,5.8011,6.1135,6.3643,6.5616,6.8841,7.104,7.2339,7.3811,7.4786,7.5163,7.4547,7.2153,6.8078,0.0,0.0,5.6094,4.7994,3.5111,1.7852,0.3328,-1.3374,-3.2493,-4.3748,-5.3524,-6.1454,-6.2019,-6.1689,-6.0789,-5.5396,-4.8619,-4.0528,-3.071,-1.7972,0.0,0.0,0.0,0.0,0.0,0.0,0.0,0.0,0.0,0.0,0.0,4.8912,4.9333,0.0,0.0,0.0,5.9051,6.1554,6.2776,6.1904,0.0,0.0,0.0,0.0,0.0,0.0,0.0,6.6386,6.9935,7.1085,6.7628,6.1224,5.4418,4.8037,3.0721,1.2948,-0.2556,0.0,-2.2186,-3.3126,-3.6471,-3.932,-4.3305,-4.3377,-4.0489,-3.3517,-3.3075,-3.4538,-3.7391,-4.0049,-4.2339,-4.4445,-4.768,-5.0713,-5.1897,-5.4163,-5.5722,-5.6212,-5.3413,-4.8639,-4.1738,-3.5865,-3.0224,4.3226,0.0,0.0,0.0,0.0,4.5185,4.2812,4.1099,4.3415,4.5336,4.7155,5.1766,0.0,0.0,0.0,0.0,0.0,0.0,5.8998,6.2483,6.5434,6.7474,6.8646,6.9067,7.0553,7.3175,7.3393,7.3641,7.3939,7.092,6.7361,6.3416,0.0,0.0,0.0,0.0,3.5395,1.8218,0.4532,-1.2737,-3.4032,-4.1796,-5.019,-5.9255,-6.0057,-5.9143,-5.6793,-4.9061,-3.999,-2.9551,-1.8441,0.0,0.0,0.0,0.0,0.0,0.0,0.0,0.0,0.0,0.0,0.0,0.0,0.0,0.0,0.0,0.0,0.0,0.0,0.0,5.5736,5.6849,5.7454,0.0,0.0,0.0,0.0,0.0,0.0,0.0,0.0,0.0,6.5631,6.124,5.5306,0.0,0.0,1.7936,0.2539,-0.5265,-1.3893,-2.6152,-2.8078,0.0,-3.9823,-3.884,-3.4422,-2.6823,-2.4819,-2.6048,-3.0946,-3.5954,-3.9919,-4.1728,-4.6813,-5.0436,-5.0361,-5.5533,-6.0789,-6.1541,-5.8977,-5.3019,-4.245,-3.3922,-2.5532,0.0,0.0,0.0,0.0,0.0,0.0,0.0,0.0,5.2671,5.3846,0.0,5.9115,0.0,0.0,0.0,0.0,0.0,6.1411,0.0,0.0,7.0636,7.3435,7.1779,7.006,7.1405,7.5095,7.3937,7.3113,7.2243,6.5017,0.0,0.0,0.0,0.0,0.0,0.0,3.5764,1.9718,0.6524,-1.2645,-3.7737,-4.4372,-5.0238,-5.6269,-5.74,-5.4512,-4.7056,-3.7175,-2.6742,-1.5335,-0.117,0.0,0.0,0.0,0.0,0.0,0.0,0.0,0.0,0.0,0.0,0.0,0.0,0.0,0.0,0.0,0.0,0.0,0.0,0.0,0.0,4.9103,0.0,0.0,0.0,0.0,0.0,0.0,0.0,0.0,0.0,0.0,6.1174,5.8918,5.4866,4.6543,0.0,0.0,0.0,0.0,-0.1552,-0.5065,-0.8393,-1.838,-4.0297,-3.0546,-1.9925,-1.9171,0.0,0.0,-2.2955,-3.05,-3.6089,-4.138,-4.5595,-4.8076,-4.5911,-5.6094,-6.6386,-6.792,-6.4355,-5.8711,-4.3441,-2.9863,-1.9465,0.0,0.0,0.0,0.0,0.0,0.0,0.0,0.0,0.0,5.6602,5.7753,6.0007,0.0,0.0,0.0,0.0,0.0,0.0,0.0,0.0,6.834,7.014,7.0285,7.1708,7.1854,0.0,6.9305,6.7047,0.0,0.0,0.0,0.0,0.0,0.0,0.0,0.0,3.661,2.2261,0.7575,-1.2645,-3.7583,-4.2366,-4.757,-5.4449,-5.3937,-4.833,-3.7571,-2.6368,-1.3828,0.0,0.0,0.0,0.0,0.0,0.0,0.0,0.0,0.0,0.0,0.0,0.0,0.0,0.0,0.0,0.0,0.0,0.0,0.0,0.0,0.0,0.0,0.0,4.6101,0.0,0.0,0.0,0.0,0.0,0.0,0.0,0.0,0.0,5.5487,5.4309,5.1782,4.6162,3.7536,3.0155,2.5673,0.0,0.0,0.0,0.0,0.0,0.0,0.0,-0.949,0.1927,0.1806,0.2591,0.9896,-0.1099,-1.1398,-1.2392,0.0,0.0,-2.7472,-2.9243,-3.4504,-3.4738,-3.1576,-2.533,-1.4006,-0.3974,0.6223,0.0,0.0,0.0,0.0,0.0,0.0,0.0,0.0,0.0,5.7794,5.8287,0.0,0.0,0.0,0.0,0.0,0.0,0.0,0.0,0.0,0.0,0.0,6.8401,7.1849,0.0,0.0,0.0,0.0,0.0,0.0,0.0,0.0,0.0,0.0,0.0,0.0,3.9676,2.7286,1.1375,-0.9084,-3.3646,-3.9629,-4.5313,-5.1219,-4.9747,-4.3476,-3.2279,0.0,0.0,0.0,0.0,0.0,0.0,0.0,0.0,0.0,0.0,0.0,0.0,0.0,0.0,0.0,0.0,0.0,0.0,0.0,0.0,0.0,0.0,0.0,0.0,0.0,4.2355,0.0,0.0,0.0,0.0,0.0,0.0,0.0,0.0,0.0,0.0,0.0,4.8281,4.4222,3.8318,3.3134,3.0205,2.487,2.1538,0.0,0.0,0.0,0.0,0.0,0.0,0.0,0.0,0.0,0.0,0.0,0.0,0.0,0.0,-3.5655,-1.2102,-1.3182,-1.795,-1.8445,0.0,0.0,0.0,0.0,0.0,0.0,0.0,0.0,0.0,0.0,0.0,0.0,0.0,0.0,0.0,5.6505,0.0,0.0,5.4031,0.0,0.0,0.0,0.0,0.0,0.0,0.0,0.0,0.0,0.0,0.0,0.0,0.0,0.0,0.0,0.0,0.0,0.0,0.0,0.0,0.0,0.0,4.4591,3.4535,1.7495,-0.2475,-2.5184,-3.6331,-4.3449,-4.6686,-4.4985,-4.0065,-3.1415,0.0,0.0,0.0,0.0,0.0,0.0,0.0,0.0,0.0,0.0,0.0,0.0,0.0,0.0,0.0,0.0,0.0,0.0,0.0,0.0,0.0,0.0,0.0,0.0,0.0,0.0,3.7867,3.68,3.7173,0.0,0.0,0.0,0.0,0.0,0.0,0.0,0.0,0.0,0.0,3.5904,3.1159,2.7148,2.326,2.1448,2.2729,2.0672,1.9346,1.9959,1.9039,2.18,0.0,0.0,0.0,0.0,0.0,0.0,0.0,0.0,0.0,0.0,0.0,0.0,0.0,0.0,0.0,0.0,0.0,0.0,0.0,0.0,0.0,0.0,0.0,0.0,0.0,0.0,0.0,0.0,0.0,0.0,0.0,0.0,0.0,0.0,0.0,0.0,0.0,0.0,0.0,0.0,0.0,0.0,0.0,0.0,0.0,0.0,0.0,0.0,0.0,0.0,0.0,0.0,0.0,0.0,4.4455,3.668,1.7048,-0.2757,-2.2427,-3.5622,-4.3309,-4.5028,-4.2089,-3.6119,0.0,0.0,0.0,0.0,0.0,0.0,0.0,0.0,0.0,0.0,0.0,0.0,0.0,0.0,0.0,0.0,0.0,0.0,0.0,0.0,0.0,0.0,0.0,0.0,0.0,0.0,0.0,0.0,3.9384,3.8621,3.7076,0.0,0.0,0.0,0.0,0.0,0.0,0.0,0.0,0.0,0.0,3.4209,3.0419,2.8166,2.6208,2.399,2.2946,2.133,1.8709,1.9239,2.3428,3.3648,0.0,0.0,0.0,0.0,0.0,0.0,0.0,0.0,0.0,0.0,0.0,0.0,0.0,0.0,0.0,0.0,0.0,0.0,0.0,0.0,0.0,0.0,0.0,0.0,0.0,0.0,0.0,0.0,0.0,0.0,0.0,0.0,0.0,0.0,0.0,0.0,0.0,0.0,0.0,0.0,0.0,0.0,0.0,0.0,0.0,0.0,0.0,0.0,0.0,0.0,0.0,0.0,0.0,4.6243,3.7168,1.963,0.1667,-1.6688,-3.1726,-4.0205,-4.1882,-3.7831,-3.0815,0.0,0.0,0.0,0.0,0.0,0.0,0.0,0.0,0.0,0.0,0.0,0.0,0.0,0.0,0.0,0.0,0.0,0.0,0.0,0.0,0.0,0.0,0.0,0.0,0.0,0.0,0.0,0.0,3.8541,3.8131,3.6432,0.0,0.0,0.0,0.0,0.0,0.0,0.0,0.0,0.0,0.0,3.4481,3.1331,2.981,0.0,0.0,2.4402,2.2868,2.028,2.0951,2.4822,3.3233,4.0173,0.0,0.0,0.0,0.0,0.0,0.0,0.0,0.0,0.0,0.0,0.0,0.0,0.0,0.0,0.0,0.0,0.0,0.0,0.0,0.0,0.0,0.0,0.0,0.0,0.0,0.0,0.0,0.0,0.0,0.0,0.0,0.0,0.0,0.0,0.0,0.0,0.0,0.0,0.0,0.0,0.0,0.0,0.0,0.0,0.0,0.0,0.0,0.0,0.0,0.0,0.0,0.0,4.9025,3.7194,2.448,0.9049,-0.9247,-2.5927,-3.5434,-3.7189,-3.2906,-2.4676,0.0,0.0,0.0,0.0,0.0,0.0,0.0,0.0,0.0,0.0,0.0,0.0,0.0,0.0,0.0,0.0,0.0,0.0,0.0,0.0,0.0,0.0,0.0,0.0,0.0,0.0,0.0,0.0,0.0,0.0,0.0,0.0,0.0,0.0,0.0,0.0,0.0,0.0,0.0,0.0,0.0,3.3126,3.0759,2.8816,2.77,0.0,2.5487,2.414,2.402,2.3975,2.566,3.0734,0.0,0.0,0.0,0.0,0.0,0.0,0.0,0.0,0.0,0.0,0.0,0.0,0.0,0.0,0.0,0.0,0.0,0.0,0.0,0.0,0.0,0.0,0.0,0.0,0.0,0.0,0.0,0.0,0.0,0.0,0.0,0.0,0.0,0.0,0.0,0.0,0.0,0.0,0.0,0.0,0.0,0.0,0.0,0.0,0.0,0.0,0.0,0.0,0.0,0.0,0.0,0.0,0.0,0.0,3.9411,2.6537,1.1018,-0.7078,-2.6803,-3.6479,-3.5473,-3.0772,0.0,0.0,0.0,0.0,0.0,0.0,0.0,0.0,0.0,0.0,0.0,0.0,0.0,0.0,0.0,0.0,0.0,0.0,0.0,0.0,0.0,0.0,0.0,0.0,0.0,0.0,0.0,3.527,0.0,0.0,0.0,0.0,0.0,0.0,0.0,0.0,0.0,0.0,0.0,0.0,0.0,0.0,3.4948,2.9473,3.0697,3.1021,0.0,0.0,2.6031,2.4792,2.4203,2.4992,0.0,0.0,0.0,0.0,0.0,0.0,0.0,0.0,0.0,0.0,0.0,0.0,0.0,0.0,0.0,0.0,0.0,0.0,0.0,0.0,0.0,0.0,0.0,0.0,0.0,0.0,0.0,0.0,0.0,0.0,0.0,0.0,0.0,0.0,0.0,0.0,0.0,0.0,0.0,0.0,0.0,0.0,0.0,0.0,0.0,0.0,0.0,0.0,0.0,0.0,0.0,0.0,0.0,0.0,5.072,4.354,3.0718,1.5966,-0.0766,-1.9297,-2.9523,-3.05,-2.6089,-1.7871,0.0,0.0,0.0,0.0,0.0,0.0,0.0,0.0,0.0,0.0,0.0,0.0,0.0,0.0,0.0,0.0,0.0,0.0,0.0,0.0,0.0,0.0,0.0,0.0,0.0,0.0,0.0,0.0,0.0,0.0,0.0,0.0,0.0,0.0,0.0,0.0,0.0,0.0,0.0,0.0,0.0,0.0,3.0167,3.0066,0.0,0.0,0.0,2.6625,2.6043,0.0,0.0,0.0,0.0,0.0,0.0,0.0,0.0,0.0,0.0,0.0,0.0,0.0,0.0,0.0,0.0,0.0,0.0,0.0,0.0,0.0,0.0,0.0,0.0,0.0,0.0,0.0,0.0,0.0,0.0,0.0,0.0,0.0,0.0,0.0,0.0,0.0,0.0,0.0,0.0,0.0,0.0,0.0,0.0,0.0,0.0,0.0,0.0,0.0,0.0,0.0,0.0,0.0,0.0,0.0,0.0,0.0,4.8417,3.7303,2.3491,0.7175,-0.8175,-1.8884,-2.461,-2.0389,-1.3344,0.0,0.0,0.0,0.0,0.0,0.0,0.0,0.0,0.0,0.0,0.0,0.0,0.0,0.0,0.0,0.0,0.0,0.0,0.0,0.0,0.0,0.0,0.0,0.0,0.0,0.0,0.0,0.0,0.0,0.0,0.0,0.0,0.0,0.0,0.0,0.0,0.0,0.0,0.0,0.0,0.0,3.4753,3.1771,2.9248,2.8269,0.0,0.0,2.7201,2.7294,2.745,0.0,0.0,0.0,0.0,0.0,0.0,0.0,0.0,0.0,0.0,0.0,0.0,0.0,0.0,0.0,0.0,0.0,0.0,0.0,0.0,0.0,0.0,0.0,0.0,0.0,0.0,0.0,0.0,0.0,0.0,0.0,0.0,0.0,0.0,0.0,0.0,0.0,0.0,0.0,0.0,0.0,0.0,0.0,0.0,0.0,0.0,0.0,0.0,0.0,0.0,0.0,0.0,0.0,0.0,0.0,0.0,4.9702,4.8454,3.5025,0.89,-0.3044,-1.4062,-2.4653,-1.7289,-0.7875,0.0,0.0,0.0,0.0,0.0,0.0,0.0,0.0,0.0,0.0,0.0,0.0,0.0,0.0,0.0,0.0,0.0,0.0,0.0,0.0,0.0,0.0,0.0,0.0,0.0,0.0,0.0,0.0,0.0,0.0,0.0,0.0,0.0,0.0,0.0,0.0,0.0,0.0,0.0,0.0,0.0,3.8006,3.2431,3.398,0.0,0.0,0.0,0.0,2.7753,2.7762,0.0,0.0,0.0,0.0,0.0,0.0,0.0,0.0,0.0,0.0,0.0,0.0,0.0,0.0,0.0,0.0,0.0,0.0,0.0,0.0,0.0,0.0,0.0,0.0,0.0,0.0,0.0,0.0,0.0,0.0,0.0,0.0,0.0,0.0,0.0,0.0,0.0,0.0,0.0,0.0,0.0,0.0,0.0,0.0,0.0,0.0,0.0,0.0,0.0,0.0,0.0,0.0,0.0,0.0,0.0,0.0,5.2964,4.9427,3.7641,1.7293,0.516,-0.4762,-1.2594,-0.7215,0.0736,0.0,0.0,0.0,0.0,0.0,0.0,0.0,0.0,0.0,0.0,0.0,0.0,0.0,0.0,0.0,0.0,0.0,0.0,0.0,0.0,0.0,0.0,0.0,0.0,0.0,0.0,0.0,0.0,0.0,0.0,0.0,0.0,0.0,0.0,0.0,0.0,0.0,0.0,0.0,0.0,3.8778,3.7533,3.4511,0.0,0.0,0.0,0.0,0.0,0.0,2.7684,2.7944,0.0,0.0,0.0,0.0,0.0,0.0,0.0,0.0,0.0,0.0,0.0,0.0,0.0,0.0,0.0,0.0,0.0,0.0,0.0,0.0,0.0,0.0,0.0,0.0,0.0,0.0,0.0,0.0,0.0,0.0,0.0,0.0,0.0,0.0,0.0,0.0,0.0,0.0,0.0,0.0,0.0,0.0,0.0,0.0,0.0,0.0,0.0,0.0,0.0,0.0,0.0,0.0,0.0,0.0,0.0,5.6095,4.729,3.8183,2.8956,1.5069,0.5517,0.0901,0.4001,1.0234,1.9854,0.0,0.0,0.0,0.0,0.0,0.0,0.0,0.0,0.0,0.0,0.0,0.0,0.0,0.0,0.0,0.0,0.0,0.0,0.0,0.0,0.0,0.0,0.0,0.0,0.0,0.0,0.0,0.0,0.0,0.0,0.0,0.0,0.0,0.0,0.0,0.0,0.0,0.0,0.0,3.788,3.6017,0.0,0.0,0.0,0.0,0.0,0.0,0.0,0.0,2.7762,0.0,0.0,0.0,0.0,0.0,0.0,0.0,0.0,0.0,0.0,0.0,0.0,0.0,0.0,0.0,0.0,0.0,0.0,0.0,0.0,0.0,0.0,0.0,0.0,0.0,0.0,0.0,0.0,0.0,0.0,0.0,0.0,0.0,0.0,0.0,0.0,0.0,0.0,0.0,0.0,0.0,0.0,0.0,0.0,0.0,0.0,0.0,0.0,0.0,0.0,0.0,0.0,0.0,0.0,0.0,0.0,4.8549,4.4049,4.1932,2.6227,1.2992,0.3709,0.9697,1.861,3.0238,0.0,0.0,0.0,0.0,0.0,0.0,0.0,0.0,0.0,0.0,0.0,0.0,0.0,0.0,0.0,0.0,0.0,0.0,0.0,0.0,0.0,0.0,0.0,0.0,0.0,0.0,0.0,0.0,0.0,0.0,0.0,0.0,0.0,0.0,0.0,0.0,0.0,0.0,4.1127,3.8837,0.0,0.0,0.0,0.0,0.0,0.0,0.0,0.0,2.7398,0.0,0.0,0.0,0.0,0.0,0.0,0.0,0.0,0.0,0.0,0.0,0.0,0.0,0.0,0.0,0.0,0.0,0.0,0.0,0.0,0.0,0.0,0.0,0.0,0.0,0.0,0.0,0.0,0.0,0.0,0.0,0.0,0.0,0.0,0.0,0.0,0.0,0.0,0.0,0.0,0.0,0.0,0.0,0.0,0.0,0.0,0.0,0.0,0.0,0.0,0.0,0.0,0.0,0.0,0.0,0.0,0.0,0.0,4.7883,4.4293,3.6595,2.7143,1.6563,2.1991,2.8507,0.0,0.0,0.0,0.0,0.0,0.0,0.0,0.0,0.0,0.0,0.0,0.0,0.0,0.0,0.0,0.0,0.0,0.0,0.0,0.0,0.0,0.0,0.0,0.0,0.0,0.0,0.0,0.0,0.0,0.0,0.0,0.0,0.0,0.0,0.0,0.0,0.0,0.0,0.0,0.0,0.0,0.0,0.0,0.0,0.0,0.0,0.0,0.0,0.0,0.0,0.0,0.0,0.0,0.0,0.0,0.0,0.0,0.0,0.0,0.0,0.0,0.0,0.0,0.0,0.0,0.0,0.0,0.0,0.0,0.0,0.0,0.0,0.0,0.0,0.0,0.0,0.0,0.0,0.0,0.0,0.0,0.0,0.0,0.0,0.0,0.0,0.0,0.0,0.0,0.0,0.0,0.0,0.0,0.0,0.0,0.0,0.0,0.0,0.0,0.0,0.0,0.0,0.0,0.0,0.0,0.0,0.0,0.0,5.1021,4.4755,4.3918,3.8345,2.7601,3.3265,3.6959,0.0,0.0,0.0,0.0,0.0,0.0,0.0,0.0,0.0,0.0,0.0,0.0,0.0,0.0,0.0,0.0,0.0,0.0,0.0,0.0,0.0,0.0,0.0,0.0,0.0,0.0,0.0,0.0,0.0,0.0,0.0,0.0,0.0,0.0,0.0,0.0,0.0,0.0,0.0,0.0,0.0,0.0,0.0,0.0,0.0,0.0,0.0,0.0,2.7866,0.0,0.0,0.0,0.0,0.0,0.0,0.0,0.0,0.0,0.0,0.0,0.0,0.0,0.0,0.0,0.0,0.0,0.0,0.0,0.0,0.0,0.0,0.0,0.0,0.0,0.0,0.0,0.0,0.0,0.0,0.0,0.0,0.0,0.0,0.0,0.0,0.0,0.0,0.0,0.0,0.0,0.0,0.0,0.0,0.0,0.0,0.0,0.0,0.0,0.0,0.0,0.0,0.0,0.0,0.0,0.0,0.0,0.0,0.0,5.4064,4.9187,4.4881,3.9044,3.185,3.8252,4.1589,0.0,0.0,0.0,0.0,0.0,0.0,0.0,0.0,0.0,0.0,0.0,0.0,0.0,0.0,0.0,0.0,0.0,0.0,0.0,0.0,0.0,0.0,0.0,0.0,0.0,0.0,0.0,0.0,0.0,0.0,0.0,0.0,0.0,0.0,0.0,0.0,0.0,0.0,0.0,0.0,0.0,0.0,0.0,0.0,0.0,0.0,0.0,0.0,0.0,0.0,0.0,0.0,0.0,0.0,0.0,0.0,0.0,0.0,0.0,0.0,0.0,0.0,0.0,0.0,0.0,0.0,0.0,0.0,0.0,0.0,0.0,0.0,0.0,0.0,0.0,0.0,0.0,0.0,0.0,0.0,0.0,0.0,0.0,0.0,0.0,0.0,0.0,0.0,0.0,0.0,0.0,0.0,0.0,0.0,0.0,0.0,0.0,0.0,0.0,0.0,0.0,0.0,0.0,0.0,0.0,0.0,0.0,0.0,5.7107,5.307,4.9491,4.52,4.0029,4.0772,4.1026,0.0,0.0,0.0,0.0,0.0,0.0,0.0,0.0,0.0,0.0,0.0,0.0,0.0,0.0,0.0,0.0,0.0,0.0,0.0,0.0,0.0,0.0,0.0,0.0,0.0,0.0,0.0,0.0,0.0,0.0,0.0,0.0,0.0,0.0,0.0,0.0,0.0,0.0,0.0,0.0,0.0,0.0,0.0,0.0,0.0,0.0,0.0,0.0,0.0,0.0,0.0,0.0,0.0,0.0,0.0,0.0,0.0,0.0,0.0,0.0,0.0,0.0,0.0,0.0,0.0,0.0,0.0,0.0,0.0,0.0,0.0,0.0,0.0,0.0,0.0,0.0,0.0,0.0,0.0,0.0,0.0,0.0,0.0,0.0,0.0,0.0,0.0,0.0,0.0,0.0,0.0,0.0,0.0,0.0,0.0,0.0,0.0,0.0,0.0,0.0,0.0,0.0,0.0,0.0,0.0,0.0,0.0,0.0,0.0,5.624,5.3827,5.0647,4.6903,4.3079,4.0786,0.0,0.0,0.0,0.0,0.0,0.0,0.0,0.0,0.0,0.0,0.0,0.0,0.0,0.0,0.0,0.0,0.0,0.0,0.0,0.0,0.0,0.0,0.0,0.0,0.0,0.0,0.0,0.0,0.0,0.0,0.0,0.0,0.0,0.0,0.0,0.0,0.0,0.0,0.0,0.0,0.0,0.0,0.0,0.0,0.0,0.0,0.0,0.0,0.0,0.0,0.0,0.0,0.0,0.0,0.0,0.0,0.0,0.0,0.0,0.0,0.0,0.0,0.0,0.0,0.0,0.0,0.0,0.0,0.0,0.0,0.0,0.0,0.0,0.0,0.0,0.0,0.0,0.0,0.0,0.0,0.0,0.0,0.0,0.0,0.0,0.0,0.0,0.0,0.0,0.0,0.0,0.0,0.0,0.0,0.0,0.0,0.0,0.0,0.0,0.0,0.0,0.0,0.0,0.0,0.0,0.0,0.0,0.0,0.0,5.8221,5.6371,5.3595,4.9557,4.5786,4.2751,0.0,0.0,0.0,0.0,0.0,0.0,0.0,0.0,0.0,0.0,0.0,0.0,0.0,0.0,0.0,0.0,0.0,0.0,0.0,0.0,0.0,0.0,0.0,0.0,0.0,0.0,0.0,0.0,0.0,0.0,0.0,0.0,0.0,0.0,0.0,0.0,0.0,0.0,0.0,0.0,0.0,0.0,0.0,0.0,0.0,0.0,0.0,0.0,0.0,0.0,0.0,0.0,0.0,0.0,0.0,0.0,0.0,0.0,0.0,0.0,0.0,0.0,0.0,0.0,0.0,0.0,0.0,0.0,0.0,0.0,0.0,0.0,0.0,0.0,0.0,0.0,0.0,0.0,0.0,0.0,0.0,0.0,0.0,0.0,0.0,0.0,0.0,0.0,0.0,0.0,0.0,0.0,0.0,0.0,0.0,0.0,0.0,0.0,0.0,0.0,0.0,0.0,0.0,0.0,0.0,0.0,0.0,0.0,0.0,5.6554,5.5358,5.3523,5.0941,4.6512,4.3617,4.2581,0.0,0.0,0.0,0.0,0.0,0.0,0.0,0.0,0.0,0.0,0.0,0.0,0.0,0.0,0.0,0.0,0.0,0.0,0.0,0.0,0.0,0.0,0.0,0.0,0.0,0.0,0.0,0.0,0.0,0.0,0.0,0.0,0.0,0.0,0.0,0.0,0.0,0.0,0.0,0.0,0.0,0.0,0.0,0.0,0.0,0.0,0.0,0.0,0.0,0.0,0.0,0.0,0.0,0.0,0.0,0.0,0.0,0.0,0.0,0.0,0.0,0.0,0.0,0.0,0.0,0.0,0.0,0.0,0.0,0.0,0.0,0.0,0.0,0.0,0.0,0.0,0.0,0.0,0.0,0.0,0.0,0.0,0.0,0.0,0.0,0.0,0.0,0.0,0.0,0.0,0.0,0.0,0.0,0.0,0.0,0.0,0.0,0.0,0.0,0.0,0.0,0.0,0.0,0.0,0.0,0.0,0.0,0.0,5.4758,5.4182,5.3151,5.1528,4.8502,4.5988,0.0,0.0,0.0,0.0,0.0,0.0,0.0,0.0,0.0,0.0,0.0,0.0,0.0,0.0,0.0,0.0,0.0,0.0,0.0,0.0,0.0,0.0,0.0,0.0,0.0,0.0,0.0,0.0,0.0,0.0,0.0,0.0,0.0,0.0,0.0,0.0,0.0,0.0,0.0,0.0,0.0,0.0,0.0,0.0,0.0,0.0,0.0,0.0,0.0,0.0,0.0,0.0,0.0,0.0,0.0,0.0,0.0,0.0,0.0,0.0,0.0,0.0,0.0,0.0,0.0,0.0,0.0,0.0,0.0,0.0,0.0,0.0,0.0,0.0,0.0,0.0,0.0,0.0,0.0,0.0,0.0,0.0,0.0,0.0,0.0,0.0,0.0,0.0,0.0,0.0,0.0,0.0,0.0,0.0,0.0,0.0,0.0,0.0,0.0,0.0,0.0,0.0,0.0,0.0,0.0,0.0,0.0,0.0,5.2066,5.3045,5.3045,5.2605,5.1675,5.2224,5.0012,0.0,0.0,0.0,0.0,0.0,0.0,0.0,0.0,0.0,0.0,0.0,0.0,0.0,0.0,0.0,0.0,0.0,0.0,0.0,0.0,0.0,0.0,0.0,0.0,0.0,0.0,0.0,0.0,0.0,0.0,0.0,0.0,0.0,0.0,0.0,0.0,0.0,0.0,0.0,0.0,0.0,0.0,0.0,0.0,0.0,0.0,0.0,0.0,0.0,0.0,0.0,0.0,0.0,0.0,0.0,0.0,0.0,0.0,0.0,0.0,0.0,0.0,0.0,0.0,0.0,0.0,0.0,0.0,0.0,0.0,0.0,0.0,0.0,0.0,0.0,0.0,0.0,0.0,0.0,0.0,0.0,0.0,0.0,0.0,0.0,0.0,0.0,0.0,0.0,0.0,0.0,0.0,0.0,0.0,0.0,0.0,0.0,0.0,0.0,0.0,0.0,0.0,0.0,0.0,0.0,0.0,0.0,0.0,0.0,4.9784,0.0,5.2078,0.0,5.1541,4.9573,0.0,0.0,0.0,0.0,0.0,0.0,0.0,0.0,0.0,0.0,0.0,0.0,0.0,0.0,0.0,0.0,0.0,0.0,0.0,0.0,0.0,0.0,0.0,0.0,0.0,0.0,0.0,0.0,0.0,0.0,0.0,0.0,0.0,0.0,0.0,0.0,0.0,0.0,0.0,0.0,0.0,0.0,0.0,0.0,0.0,0.0,0.0,0.0,0.0,0.0,0.0,0.0,0.0,0.0,0.0,0.0,0.0,0.0,0.0,0.0,0.0,0.0,0.0,0.0,0.0,0.0,0.0,0.0,0.0,0.0,0.0,0.0,0.0,0.0,0.0,0.0,0.0,0.0,0.0,0.0,0.0,0.0,0.0,0.0,0.0,0.0,0.0,0.0,0.0,0.0,0.0,0.0,0.0,0.0,0.0,0.0,0.0,0.0,0.0,0.0,0.0,0.0,0.0,0.0,0.0,0.0,0.0,0.0,0.0,4.7866,4.9136,5.1297,5.4274,5.2371,5.0662,0.0,0.0,0.0,0.0,0.0,0.0,0.0,0.0,0.0,0.0,0.0,0.0,0.0,0.0,0.0,0.0,0.0,0.0,0.0,0.0,0.0,0.0,0.0,0.0,0.0,0.0,0.0,0.0,0.0,0.0,0.0,0.0,0.0,0.0,0.0,0.0,0.0,0.0,0.0,0.0,0.0,0.0,0.0,0.0,0.0,0.0,0.0,0.0,0.0,0.0,0.0,0.0,0.0,0.0,0.0,0.0,0.0,0.0,0.0,0.0,0.0,0.0,0.0,0.0,0.0,0.0,0.0,0.0,0.0,0.0,0.0,0.0,0.0,0.0,0.0,0.0,0.0,0.0,0.0,0.0,0.0,0.0,0.0,0.0,0.0,0.0,0.0,0.0,0.0,0.0,0.0,0.0,0.0,0.0,0.0,0.0,0.0,0.0,0.0,0.0,0.0,0.0,0.0,0.0,0.0,0.0,0.0,0.0,0.0,4.6819,4.8728,5.019,5.1394,5.4323,5.3054,0.0,0.0,0.0,0.0,0.0,0.0,0.0,0.0,0.0,0.0,0.0,0.0,0.0,0.0,0.0,0.0,0.0,0.0,0.0,0.0,0.0,0.0,0.0,0.0,0.0,0.0,0.0,0.0,0.0,0.0,0.0,0.0,0.0,0.0,0.0,0.0,0.0,0.0,0.0,0.0,0.0,0.0,0.0,0.0,0.0,0.0,0.0,0.0,0.0,0.0,0.0,0.0,0.0,0.0,0.0,0.0,0.0,0.0,0.0,0.0,0.0,0.0,0.0,0.0,0.0,0.0,0.0,0.0,0.0,0.0,0.0,0.0,0.0,0.0,0.0,0.0,0.0,0.0,0.0,0.0,0.0,0.0,0.0,0.0,0.0,0.0,0.0,0.0,0.0,0.0,0.0,0.0,0.0,0.0,0.0,0.0,0.0,0.0,0.0,0.0,0.0,0.0,0.0,0.0,0.0,0.0,0.0,0.0,0.0,0.0,4.6773,4.8883,4.8592,5.0472,5.0711,4.8954,0.0,0.0,0.0,0.0,0.0,0.0,0.0,0.0,0.0,0.0,0.0,0.0,0.0,0.0,0.0,0.0,0.0,0.0,0.0,0.0,0.0,0.0,0.0,0.0,0.0,0.0,0.0,0.0,0.0,0.0,0.0,0.0,0.0,0.0,0.0,0.0,0.0,0.0,0.0,0.0,0.0,0.0,0.0,0.0,0.0,0.0,0.0,0.0,0.0,0.0,0.0,0.0,0.0,0.0,0.0,0.0,0.0,0.0,0.0,0.0,0.0,0.0,0.0,0.0,0.0,0.0,0.0,0.0,0.0,0.0,0.0,0.0,0.0,0.0,0.0,0.0,0.0,0.0,0.0,0.0,0.0,0.0,0.0,0.0,0.0,0.0,0.0,0.0,0.0,0.0,0.0,0.0,0.0,0.0,0.0,0.0,0.0,0.0,0.0,0.0,0.0,0.0,0.0,0.0,0.0,0.0,0.0,0.0,0.0,0.0,4.6839,4.7792,4.8355,4.8138,0.0,0.0,0.0,0.0,0.0,0.0,0.0,0.0,0.0,0.0,0.0,0.0,0.0,0.0,0.0,0.0,0.0,0.0,0.0,0.0,0.0,0.0,0.0,0.0,0.0,0.0,0.0,0.0,0.0,0.0,0.0,0.0,0.0,0.0,0.0,0.0,0.0,0.0,0.0,0.0,0.0,0.0,0.0,0.0,0.0,0.0,0.0,0.0,0.0,0.0,0.0,0.0,0.0,0.0,0.0,0.0,0.0,0.0,0.0,0.0,0.0,0.0,0.0,0.0,0.0,0.0,0.0,0.0,0.0,0.0,0.0,0.0,0.0,0.0,0.0,0.0,0.0,0.0,0.0,0.0,0.0,0.0,0.0,0.0,0.0,0.0,0.0,0.0,0.0,0.0,0.0,0.0,0.0,0.0,0.0,0.0,0.0,0.0,0.0,0.0,0.0,0.0,0.0,0.0,0.0,0.0,0.0,0.0,0.0,0.0,0.0,4.449,4.7981,4.766,0.0,4.4096,0.0,0.0,0.0,0.0,0.0,0.0,0.0,0.0,0.0,0.0,0.0,0.0,0.0,0.0,0.0,0.0,0.0,0.0,0.0,0.0,0.0,0.0,0.0,0.0,0.0,0.0,0.0,0.0,0.0,0.0,0.0,0.0,0.0,0.0,0.0,0.0,0.0,0.0,0.0,0.0,0.0,0.0,0.0,0.0,0.0,0.0,0.0,0.0,0.0,0.0,0.0,0.0,0.0,0.0,0.0,0.0,0.0,0.0,0.0,0.0,0.0,0.0,0.0,0.0,0.0,0.0,0.0,0.0,0.0,0.0,0.0,0.0,0.0,0.0,0.0,0.0,0.0,0.0,0.0,0.0,0.0,0.0,0.0,0.0,0.0,0.0,0.0,0.0,0.0,0.0,0.0,0.0,0.0,0.0,0.0,0.0,0.0,0.0,0.0,0.0,0.0,0.0,0.0,0.0,0.0,0.0,0.0,0.0,0.0,0.0,0.0,0.0,4.7638,4.8857,4.7449,0.0,0.0,0.0,0.0,0.0,0.0,0.0,0.0,0.0,0.0,0.0,0.0,0.0,0.0,0.0,0.0,0.0,0.0,0.0,0.0,0.0,0.0,0.0,0.0,0.0,0.0,0.0,0.0,0.0,0.0,0.0,0.0,0.0,0.0,0.0,0.0,0.0,0.0,0.0,0.0,0.0,0.0,0.0,0.0,0.0,0.0,0.0,0.0,0.0,0.0,0.0,0.0,0.0,0.0,0.0,0.0,0.0,0.0,0.0,0.0,0.0,0.0,0.0,0.0,0.0,0.0,0.0,0.0,0.0,0.0,0.0,0.0,0.0,0.0,0.0,0.0,0.0,0.0,0.0,0.0,0.0,0.0,0.0,0.0,0.0,0.0,0.0,0.0,0.0,0.0,0.0,0.0,0.0,0.0,0.0,0.0,0.0,0.0,0.0,0.0,0.0,0.0,0.0,0.0,0.0,0.0,0.0,0.0,0.0,0.0,4.1701,4.309,4.4672,4.5782,4.6024,0.0,0.0,0.0,0.0,0.0,0.0,0.0,0.0,0.0,0.0,0.0,0.0,0.0,0.0,0.0,0.0,0.0,0.0,0.0,0.0,0.0,0.0,0.0,0.0,0.0,0.0,0.0,0.0,0.0,0.0,0.0,0.0,0.0,0.0,0.0,0.0,0.0,0.0,0.0,0.0,0.0,0.0,0.0,0.0,0.0,0.0,0.0,0.0,0.0,0.0,0.0,0.0,0.0,0.0,0.0,0.0,0.0,0.0,0.0,0.0,0.0,0.0,0.0,0.0,0.0,0.0,0.0,0.0,0.0,0.0,0.0,0.0,0.0,0.0,0.0,0.0,0.0,0.0,0.0,0.0,0.0,0.0,0.0,0.0,0.0,0.0,0.0,0.0,0.0,0.0,0.0,0.0,0.0,0.0,0.0,0.0,0.0,0.0,0.0,0.0,0.0,0.0,0.0,0.0,0.0,0.0,0.0,0.0,0.0,0.0,0.0,0.0,0.0,0.0,4.2678,0.0,0.0,0.0,0.0,0.0,0.0,0.0,0.0,0.0,0.0,0.0,0.0,0.0,0.0,0.0,0.0,0.0,0.0,0.0,0.0,0.0,0.0,0.0,0.0,0.0,0.0,0.0,0.0,0.0,0.0,0.0,0.0,0.0,0.0,0.0,0.0,0.0,0.0,0.0,0.0,0.0,0.0,0.0,0.0,0.0,0.0,0.0,0.0,0.0,0.0,0.0,0.0,0.0,0.0,0.0,0.0,0.0,0.0,0.0,0.0,0.0,0.0,0.0,0.0,0.0,0.0,0.0,0.0,0.0,0.0,0.0,0.0,0.0,0.0,0.0,0.0,0.0,0.0,0.0,0.0,0.0,0.0,0.0,0.0,0.0,0.0,0.0,0.0,0.0,0.0,0.0,0.0,0.0,0.0,0.0,0.0,0.0,0.0,0.0,0.0,0.0,0.0,0.0,0.0,0.0,0.0,0.0,0.0,0.0,0.0,0.0,0.0,0.0,0.0,0.0,0.0,0.0,0.0,0.0,0.0,0.0,0.0,0.0,0.0,0.0,0.0,0.0,0.0,0.0,0.0,0.0,0.0,0.0,0.0,0.0,0.0,0.0,0.0,0.0,0.0,0.0,0.0,0.0,0.0,0.0,0.0,0.0,0.0,0.0,0.0,0.0,0.0,0.0,0.0,0.0,0.0,0.0,0.0,0.0,0.0,0.0,0.0,0.0,0.0,0.0,0.0,0.0,0.0,0.0,0.0,0.0,0.0,0.0,0.0,0.0,0.0,0.0,0.0,0.0,0.0,0.0,0.0,0.0,0.0,0.0,0.0,0.0,0.0,0.0,0.0,0.0,0.0,0.0,0.0,0.0,0.0,0.0,0.0,0.0,0.0,0.0,0.0,0.0,0.0,0.0,0.0,0.0,0.0,0.0,0.0,0.0,0.0,0.0,0.0,0.0,0.0,0.0,0.0,0.0,0.0,0.0,0.0,0.0,0.0,0.0,0.0,0.0,0.0,0.0,0.0,0.0,0.0,0.0,0.0,0.0,0.0,0.0,0.0,0.0,0.0,0.0,0.0,0.0,0.0,0.0,0.0,0.0,0.0,0.0,0.0,0.0,0.0,0.0,0.0,0.0,0.0,0.0,0.0,0.0,0.0,0.0,0.0,0.0,0.0,0.0,0.0,0.0,0.0,0.0,0.0,0.0,0.0,0.0,0.0,0.0,0.0,0.0,0.0,0.0,0.0,0.0,0.0,0.0,0.0,0.0,0.0,0.0,0.0,0.0,0.0,0.0,0.0,0.0,0.0,0.0,0.0,0.0,0.0,0.0,0.0,0.0,0.0,0.0,0.0,0.0,0.0,0.0,0.0,0.0,0.0,0.0,0.0,0.0,0.0,0.0,0.0,0.0,0.0,0.0,0.0,0.0,0.0,0.0,0.0,0.0,0.0,0.0,0.0,0.0,0.0,0.0,0.0,0.0,0.0,0.0,0.0,0.0,0.0,0.0,0.0,0.0,0.0,0.0,0.0,0.0,0.0,0.0,0.0,0.0,0.0,0.0,0.0,0.0,0.0,0.0,0.0,0.0,0.0,0.0,0.0,0.0,0.0,0.0,0.0,0.0,0.0,0.0,0.0,0.0,0.0,0.0,0.0,0.0,0.0,0.0,0.0,0.0,0.0,0.0,0.0,0.0,0.0,0.0,0.0,0.0,0.0,0.0,0.0,0.0,0.0,0.0,0.0,0.0,0.0,0.0,0.0,0.0,0.0,0.0,0.0,0.0,0.0,0.0,0.0,0.0,0.0,0.0,0.0,0.0,0.0,0.0,0.0,0.0,0.0,0.0,0.0,0.0,0.0,0.0,0.0,0.0,0.0,0.0,0.0,0.0,0.0,0.0,0.0,0.0,0.0,0.0,0.0,0.0,0.0,0.0,0.0,0.0,0.0,0.0,0.0,0.0,0.0,0.0,0.0,0.0,0.0,0.0,0.0,0.0,0.0,0.0,0.0,0.0,0.0,0.0,0.0,0.0,0.0,0.0,0.0,0.0,0.0,0.0,0.0,0.0,0.0,0.0,0.0,0.0,0.0,0.0,0.0,0.0,0.0,0.0,0.0,0.0,0.0,0.0,0.0,0.0,0.0,0.0,0.0,0.0,0.0,0.0,0.0,0.0,0.0,0.0,0.0,0.0,0.0,0.0,0.0,0.0,0.0,0.0,0.0,0.0,0.0,0.0,0.0,0.0,0.0,0.0,0.0,0.0,0.0,0.0,0.0,0.0,0.0,0.0,0.0,0.0,0.0,0.0,0.0,0.0,0.0,0.0,0.0,0.0,0.0,0.0,0.0,0.0,0.0,0.0,0.0,0.0,0.0,0.0,0.0,0.0,0.0,0.0,0.0,0.0,0.0,0.0,0.0,0.0,0.0,0.0,0.0,0.0,0.0,0.0,0.0,0.0,0.0,0.0,0.0,0.0,0.0,0.0,0.0,0.0,0.0,0.0,0.0,0.0,0.0,0.0,0.0,0.0,0.0,0.0,0.0,0.0,0.0,0.0,0.0,0.0,0.0,0.0,0.0,0.0,0.0,0.0,0.0,0.0,0.0,0.0,0.0,0.0,0.0,0.0,0.0,0.0,0.0,0.0,0.0,0.0,0.0,0.0,0.0,0.0,0.0,0.0,0.0,0.0,0.0,0.0,0.0,0.0,0.0,0.0,0.0,0.0,0.0,0.0,0.0,0.0,0.0,0.0,0.0,0.0,0.0,0.0,0.0,0.0,0.0,0.0,0.0,0.0,0.0,0.0,0.0,0.0,0.0,0.0,0.0,0.0,0.0,0.0,0.0,0.0,0.0,0.0,0.0,0.0,0.0,0.0,0.0,0.0,0.0,0.0,0.0,0.0,0.0,0.0,0.0,0.0,0.0,0.0,0.0,0.0,0.0,0.0,0.0,0.0,0.0,0.0,0.0,0.0,0.0,0.0,0.0,0.0,0.0,0.0,0.0,0.0,0.0,0.0,0.0,0.0,0.0,0.0,0.0,0.0,0.0,0.0,0.0,0.0,0.0,0.0,0.0,0.0,0.0,0.0,0.0,0.0,0.0,0.0,0.0,0.0,0.0,0.0,0.0,0.0,0.0,0.0,0.0,0.0,0.0,0.0,0.0,0.0,0.0,0.0,0.0,0.0,0.0,0.0,0.0,0.0,0.0,0.0,0.0,0.0,0.0,0.0,0.0,0.0,0.0,0.0,0.0,0.0,0.0,0.0,0.0,0.0,0.0,0.0,0.0,0.0,0.0,0.0,0.0,0.0,0.0,0.0,0.0,0.0,0.0,0.0,0.0,0.0,0.0,0.0,0.0,0.0,0.0,0.0,0.0,0.0,0.0,0.0,0.0,0.0,0.0,0.0,0.0,0.0,0.0,0.0,0.0,0.0,0.0,0.0,0.0,0.0,0.0,0.0,0.0,0.0,0.0,0.0,0.0,0.0,0.0,0.0,0.0,0.0,0.0,0.0,0.0,0.0,0.0,0.0,0.0,0.0,0.0,0.0,0.0,0.0,0.0,0.0,0.0,0.0,0.0,0.0,0.0,0.0,0.0,0.0,0.0,0.0,0.0,0.0,0.0,0.0,0.0,0.0,0.0,0.0,0.0,0.0,0.0,0.0,0.0,0.0,0.0,0.0,0.0,0.0,0.0,0.0,0.0,0.0,0.0,0.0,0.0,0.0,0.0,0.0,0.0,0.0,0.0,0.0,0.0,0.0,0.0,0.0,0.0,0.0,0.0,0.0,0.0,0.0,0.0,0.0,0.0,0.0,0.0,0.0,0.0,0.0,0.0,0.0,0.0,0.0,0.0,0.0,0.0,0.0,0.0,0.0,0.0,0.0,0.0,0.0,0.0,0.0,0.0,0.0,0.0,0.0,0.0,0.0,0.0,0.0,0.0,0.0,0.0,0.0,0.0,0.0,0.0,0.0,0.0,0.0,0.0,0.0,0.0,0.0,0.0,0.0,0.0,0.0,0.0,0.0,0.0,0.0,0.0,0.0,0.0,0.0,0.0,0.0,0.0,0.0,0.0,0.0,0.0,0.0,0.0,0.0,0.0,0.0,0.0,0.0,0.0,0.0,0.0,0.0,0.0,0.0,0.0,0.0,0.0,0.0,0.0,0.0,0.0,0.0,0.0,0.0,0.0,0.0,0.0,0.0,0.0,0.0,0.0,0.0,0.0,0.0,0.0,0.0,0.0,0.0,0.0,0.0,0.0,0.0,0.0,0.0,0.0,0.0,0.0,0.0,0.0,0.0,0.0,0.0,0.0,0.0,0.0,0.0,0.0,0.0,0.0,0.0,0.0,0.0,0.0,0.0,0.0,0.0,0.0,0.0,0.0]}]]]